     2              OBSERVATION DATA    GPS                 RINEX VERSION / TYPE
teqc 2000Feb29 Duncan Agnew 20000527 00:59:00UTC            PGM / RUN BY / DATE
                                                            COMMENT
L2: 1 -> 1; 5 -> 5; 60 -> 9                                 COMMENT
L2: 1 -> 1; 5 -> 5; 60 -> 9                                 COMMENT
L2: 1 -> 1; 5 -> 5; 60 -> 9                                 COMMENT
L2: 1 -> 1; 5 -> 5; 60 -> 9                                 COMMENT
L2: 1 -> 1; 5 -> 5; 60 -> 9                                 COMMENT
Original Marker Name: 0821                                  COMMENT
Campaign Name: CSRC Post Hector                             COMMENT
4-Character Station Name: 0821                              COMMENT
6-Character Antenna Code: TRMCMP                            COMMENT
Vertical Measurement Point: BPA                             COMMENT
Vertical Offset to Rinex Ref. Point: 0.0000                 COMMENT
Radial Measurement Point: RRP                               COMMENT
Radial Offset to Rinex Ref. Point: 0.0000                   COMMENT
Antenna Height from Field Measurement: 1.8000 m             COMMENT
Additional Antenna Identification Info.:                    COMMENT
Model 22020.00+GP                                           COMMENT
Original XYZ: -2380333.4874 -4759510.4573 3506822.5734      COMMENT
New XYZ position is based on association with SCEC monument COMMENT
E1D0K4I3+0011. Position of that monument is believed to be  COMMENT
valid to within 1 m horizontally; vertical accuracy         COMMENT
should be no worse than 3-times this value.                 COMMENT
                                                            COMMENT
Revised Rinex header created by UCSD GPS archive for        COMMENT
GSAC on 16-Jun-2000 (2000:168) 00:11:12 GMT                 COMMENT
For assistance contact dagnew@ucsd.edu                      COMMENT
or anderson@python.ucsd.edu                                 COMMENT
                                                            COMMENT
08-21 SANTA ROSA 1990                                       MARKER NAME
0821                                                        MARKER NUMBER
-Unknown- RIVERSIDE COUNTY FCWCD                            OBSERVER / AGENCY
1536 TRIMBLE 4000 SSI NP 7.29; SP 3.07                      REC # / TYPE / VERS
78704 TR GEOD L1/L2 GP                                      ANT # / TYPE
 -2380334.2094 -4759513.5302  3506820.8381                  APPROX POSITION XYZ
        1.8000        0.0000        0.0000                  ANTENNA: DELTA H/E/N
     1     1     0                                          WAVELENGTH FACT L1/2
     7    C1    L1    L2    P1    P2    S1    S2            # / TYPES OF OBSERV
     0                                                      INTERVAL
  2000     5     2    15     0   15.000000                  TIME OF FIRST OBS
  2000     5     2    20    29   45.000000                  TIME OF LAST OBS
                                                            END OF HEADER
 00  5  2 15  0 15.0000000  0  7G 2G 4G 7G 8G 9G26G27
  21373502.2424   -2928201.17957  -2276920.84756                  21373502.8874
        26.0004         15.5004
  22788963.6644  -11349858.13356  -8368267.68355                  22788965.9614
        12.5004          4.7504
  20534508.0704   -3890897.91057  -3022769.55356                  20534508.4694
        27.2504         17.2504
  22634883.1094    3674299.80456   1297166.93655                  22634885.0084
        14.7504          4.7504
  23582077.6954   -6283016.67155  -4613096.60653                  23582079.5474
        10.7504          3.0004
  22932237.9224   -1725845.20956   -102275.69755                  22932238.3324
        15.2504          6.0004
  23689781.4924    4702453.62854   1530540.06452                  23689785.5944
         7.2504          1.5004
 00  5  2 15  0 30.0000000  0  7G 2G 4G 7G 8G 9G26G27
  21371159.0554   -2940513.99647  -2286515.26246                  21371159.9344
        26.0004         16.0004
  22775679.9694  -11419664.91746  -8422662.50245                  22775682.6884
        12.5004          4.7504
  20532131.5164   -3903386.47047  -3032500.89046                  20532131.7624
        27.0004         17.7504
  22640552.9844    3704096.00546   1320384.69845                  22640554.8014
        14.2504          5.2504
  23569419.1024   -6349538.85945  -4664932.04943                  23569421.1054
        10.7504          3.0004
  22932523.8524   -1724342.57046   -101104.83245                  22932524.1214
        15.5004          5.7504
  23696385.7344    4737158.67444   1557582.84742                  23696392.4024
         7.2504          1.7504
 00  5  2 15  0 45.0000000  0  7G 2G 4G 7G 8G 9G26G27
  21368825.9224   -2952775.73247  -2296069.86746                  21368826.5434
        26.0004         15.5004
  22762405.3754  -11489422.62946  -8477019.08545                  22762408.6094
        12.7504          4.5004
  20529774.4614   -3915773.64347  -3042153.23746                  20529774.7304
        27.0004         17.0004
  22646237.2664    3733967.18046   1343660.89345                  22646238.4264
        14.2504          5.0004
  23556770.2344   -6416006.77445  -4716725.22943                  23556773.0594
        10.2504          3.2504
  22932830.9534   -1722727.87746    -99846.63145                  22932831.5984
        15.5004          6.0004
  23703000.8524    4771923.19145   1584671.94342                  23703006.3484
         7.5004          1.5004
 00  5  2 15  1  0.0000000  0  7G 2G 4G 7G 8G 9G26G27
  21366502.6564   -2964983.87747  -2305582.71746                  21366503.1604
        26.0004         15.0004
  22749141.1254  -11559128.42646  -8531335.23444                  22749143.7274
        13.2504          4.2504
  20527437.0474   -3928057.00247  -3051724.68046                  20527437.3634
        27.2504         16.5004
  22651935.9064    3763915.52246   1366997.19645                  22651937.6764
        14.0004          4.7504
  23544132.5164   -6482417.69045  -4768473.94043                  23544134.0984
        10.7504          3.0004
  22933160.0554   -1720998.93146    -98499.41545                  22933161.4024
        15.0004          6.0004
  23709628.6174    4806749.35145   1611809.05542                  23709633.1764
         7.7504          1.7504
 00  5  2 15  1 15.0000000  0  7G 2G 4G 7G 8G 9G26G27
  21364189.5084   -2977140.12847  -2315055.14246                  21364190.3634
        25.7504         14.2504
  22735886.1564  -11628783.75246  -8585612.03944                  22735888.7704
        14.0004          4.0004
  20525118.8524   -3940238.62047  -3061216.84246                  20525118.8164
        27.0004         15.7504
  22657649.4144    3793938.95546   1390392.03544                  22657650.1414
        14.5004          4.2504
  23531505.5864   -6548773.14445  -4820179.49943                  23531507.6134
        10.2504          2.7504
  22933509.9844   -1719157.80846    -97064.81145                  22933511.5084
        15.0004          5.7504
  23716267.1094    4841635.07945   1638992.61442                  23716273.6954
         8.0004          1.5004
 00  5  2 15  1 30.0000000  0  7G 2G 4G 7G 8G 9G26G27
  21361885.7424   -2989245.93747  -2324488.22446                  21361886.5864
        26.0004         16.7504
  22722639.9144  -11698389.90646  -8639850.54945                  22722641.7544
        13.2504          5.0004
  20522819.8364   -3952320.25847  -3070631.11946                  20522820.1054
        27.2504         18.0004
  22663377.0004    3824035.67346   1413843.97345                  22663378.4774
        14.2504          5.0004
  23518888.7114   -6615074.36145  -4871842.73243                  23518889.1454
        10.7504          3.2504
  22933881.9844   -1717206.39846    -95544.25445                  22933883.7544
        14.7504          6.0004
  23722917.3204    4876578.49445   1666221.11142                  23722923.6374
         8.7504          1.5004
 00  5  2 15  1 45.0000000  0  7G 2G 4G 7G 8G 9G26G27
  21359592.0234   -3001299.85747  -2333880.89746                  21359592.9384
        26.0004         17.0004
  22709404.4774  -11767944.92346  -8694049.22245                  22709406.3984
        13.2504          4.7504
  20520540.0864   -3964300.62047  -3079966.46146                  20520539.9924
        27.0004         19.0004
  22669118.4924    3854206.94546   1437353.99645                  22669119.6994
        14.5004          5.0004
  23506283.5474   -6681319.61045  -4923462.40543                  23506284.1804
        11.0004          3.2504
  22934274.3754   -1715143.47646    -93936.78945                  22934276.0744
        15.2504          6.0004
  23729578.2734    4911580.79945   1693495.53142                  23729586.1524
         8.7504          1.7504
 00  5  2 15  2  0.0000000  0  7G 2G 4G 7G 8G 9G26G27
  21357307.6644   -3013303.49147  -2343234.39046                  21357308.5434
        26.0004         16.5004
  22696178.1414  -11837450.08946  -8748209.01745                  22696180.5664
        14.0004          5.0004
  20518279.1094   -3976181.66647  -3089224.41346                  20518279.4734
        27.0004         17.5004
  22674873.5864    3884450.76446   1460920.55245                  22674876.0354
        14.0004          5.0004
  23493687.2034   -6747510.36045  -4975039.57944                  23493688.4804
        11.2504          3.7504
  22934687.7424   -1712971.12146    -92244.05245                  22934688.8554
        15.0004          5.7504
  23736250.2034    4946640.02545   1720814.27742                  23736253.6484
         9.0004          2.0004
 00  5  2 15  2 15.0000000  0  7G 2G 4G 7G 8G 9G26G27
  21355033.5314   -3025254.94247  -2352547.21246                  21355034.1994
        26.0004         16.7504
  22682961.3834  -11906903.34446  -8802328.38045                  22682962.1914
        14.0004          4.7504
  20516037.5704   -3987961.79347  -3098403.72646                  20516037.6994
        27.2504         18.0004
  22680642.8834    3914768.67246   1484544.83845                  22680645.0394
        14.7504          5.2504
  23481102.0394   -6813644.53245  -5026572.70344                  23481103.1994
        11.2504          3.5004
  22935122.2194   -1710687.84846    -90464.91545                  22935123.2154
        15.2504          6.2504
  23742932.1644    4981757.55445   1748178.42642                  23742937.4964
         9.0004          2.2504
 00  5  2 15  2 30.0000000  0  7G 2G 4G 7G 8G 9G26G27
  21352769.1254   -3037154.29647  -2361819.44146                  21352770.0164
        25.7504         16.2504
  22669754.9384  -11976304.47046  -8856407.13245                  22669756.7194
        14.0004          5.0004
  20513814.7344   -3999641.30947  -3107504.65346                  20513815.1214
        27.0004         17.7504
  22686426.3054    3945160.25846   1508226.53245                  22686428.4384
        14.7504          5.2504
  23468527.9694   -6879721.95645  -5078061.57144                  23468529.0824
        11.5004          3.7504
  22935577.9384   -1708294.07646    -88599.64645                  22935578.7814
        15.2504          6.2504
  23749626.3984    5016932.99445   1775587.74942                  23749628.4264
         9.0004          2.2504
 00  5  2 15  2 45.0000000  0  7G 2G 4G 7G 8G 9G26G27
  21350514.7034   -3049001.49447  -2371051.02846                  21350515.7584
        25.2504         14.2504
  22656558.0004  -12045653.02146  -8910444.90745                  22656559.5474
        14.0004          4.5004
  20511611.4064   -4011220.46547  -3116527.36946                  20511611.8524
        27.0004         16.0004
  22692223.7114    3975625.18146   1531965.36945                  22692225.9844
        15.0004          5.0004
  23455964.4454   -6945742.43445  -5129506.08043                  23455965.6414
        11.0004          3.2504
  22936054.5234   -1705790.13746    -86648.54645                  22936054.9924
        15.5004          5.5004
  23756330.8984    5052166.05445   1803041.93442                  23756335.0004
         9.0004          1.7504
 00  5  2 15  3  0.0000000  0  7G 2G 4G 7G 8G 9G26G27
  21348270.1414   -3060796.43747  -2380241.90646                  21348271.0904
        25.2504         16.5004
  22643371.2274  -12114948.66546  -8964441.47145                  22643374.8244
        13.7504          5.2504
  20509426.9534   -4022699.44647  -3125472.02846                  20509427.2234
        26.7504         18.5004
  22698035.3284    4006163.34946   1555761.28545                  22698038.0474
        15.5004          5.7504
  23443412.5004   -7011705.69445  -5180906.00844                  23443413.8714
        11.5004          4.0004
  22936551.5704   -1703176.26446    -84611.78345                  22936552.7544
        14.7504          6.0004
  23763046.5704    5087456.42745   1830540.85642                  23763053.6414
         8.7504          2.0004
 00  5  2 15  3 15.0000000  0  7G 2G 4G 7G 8G 9G26G27
  21346035.9774   -3072537.41747  -2389390.72146                  21346036.6214
        26.0004         17.2504
  22630195.1724  -12184189.40346  -9018395.23045                  22630197.9734
        14.0004          5.7504
  20507261.9454   -4034076.85447  -3134337.54046                  20507262.3554
        26.7504         19.2504
  22703860.5234    4036776.04646   1579615.29245                  22703862.9494
        15.5004          5.7504
  23430871.0704   -7077609.78145  -5232259.82944                  23430872.5474
        11.7504          4.0004
  22937070.1024   -1700451.21446    -82488.39445                  22937070.8524
        15.2504          5.7504
  23769773.2114    5122805.51245   1858085.42942                  23769781.0434
         8.2504          2.0004
 00  5  2 15  3 29.9990000  0  7G 2G 4G 7G 8G 9G26G27
  21343811.9564   -3084225.61847  -2398498.42646                  21343812.4834
        26.2504         15.7504
  22617030.1834  -12253372.25546  -9072303.90145                  22617033.1014
        14.7504          4.7504
  20505115.9564   -4045354.07447  -3143124.98546                  20505116.4014
        26.7504         17.5004
  22709699.4094    4067458.88846   1603523.93645                  22709701.0624
        15.7504          5.5004
  23418342.2764   -7143452.09845  -5283565.50644                  23418344.1514
        11.7504          3.5004
  22937609.6054   -1697617.43146    -80280.26045                  22937610.2724
        15.2504          5.2504
  23776510.0114    5158208.56645   1885672.03742                  23776519.1554
         8.0004          1.7504
 00  5  2 15  3 44.9990000  0  7G 2G 4G 7G 8G 9G26G27
  21341597.1284   -3095864.50247  -2407567.68746                  21341597.7964
        26.2504         14.5004
  22603873.9334  -12322508.00046  -9126175.85045                  22603876.1124
        15.5004          4.7504
  20502988.3394   -4056534.86447  -3151837.28746                  20502988.9134
        26.7504         15.7504
  22715552.1754    4098213.88946   1627488.81145                  22715553.8274
        15.5004          4.7504
  23405822.7374   -7209243.12245  -5334831.22043                  23405822.9834
        11.5004          3.0004
  22938169.2924   -1694676.91746    -77988.97045                  22938170.3004
        15.0004          5.5004
  23783257.8864    5193668.08045   1913302.75042                  23783263.8514
         8.2504          1.7504
 00  5  2 15  3 59.9990000  0  7G 2G 4G 7G 8G 9G26G27
  21339392.1674   -3107451.45847  -2416596.49146                  21339392.6474
        26.0004         15.7504
  22590728.6124  -12391589.99446  -9180005.93545                  22590730.6404
        16.2504          5.5004
  20500879.3234   -4067616.84247  -3160472.59146                  20500879.7454
        26.7504         16.7504
  22721417.7924    4129040.39246   1651509.40245                  22721420.3004
        15.0004          5.0004
  23393313.4564   -7274976.44845  -5386051.95144                  23393314.0774
        11.2504          3.7504
  22938749.1364   -1691628.33746    -75613.48045                  22938750.3314
        14.5004          5.5004
  23790017.2064    5229183.16045   1940976.68742                  23790022.0934
         8.5004          1.7504
 00  5  2 15  4 14.9990000  0  7G 2G 4G 7G 8G 9G26G27
  21337197.9254   -3118983.57447  -2425582.56546                  21337198.5694
        26.0004         17.0004
  22577593.4564  -12460614.88246  -9233791.51145                  22577595.9524
        15.7504          6.0004
  20498790.1204   -4078597.32447  -3169028.81346                  20498790.5194
        26.7504         19.2504
  22727297.9014    4159941.09046   1675587.79945                  22727300.3864
        14.5004          5.7504
  23380816.4804   -7340648.89945  -5437225.29644                  23380817.4524
        11.5004          3.7504
  22939349.9724   -1688469.12746    -73151.77545                  22939350.7454
        14.5004          5.7504
  23796786.3154    5264756.33045   1968695.88242                  23796792.2804
         8.5004          2.0004
 00  5  2 15  4 29.9990000  0  7G 2G 4G 7G 8G 9G26G27
  21335013.3234   -3130462.29047  -2434527.02546                  21335013.9094
        26.0004         16.0004
  22564469.0424  -12529583.81646  -9287533.48445                  22564470.6124
        15.7504          5.7504
  20496719.6594   -4089478.13047  -3177507.35846                  20496719.7764
        27.0004         18.0004
  22733192.0654    4190914.00046   1699722.48045                  22733194.3274
        14.2504          5.2504
  23368330.8394   -7406261.69245  -5488352.11944                  23368332.1054
        11.7504          4.0004
  22939972.5264   -1685201.11946    -70605.29345                  22939972.7264
        15.0004          5.5004
  23803566.3864    5300385.80045   1996458.95042                  23803573.0894
         8.2504          1.5004
 00  5  2 15  4 44.9990000  0  7G 2G 4G 7G 8G 9G26G27
  21332839.3314   -3141888.01547  -2443430.19846                  21332839.9994
        26.2504         15.2504
  22551355.1364  -12598496.90346  -9341231.94945                  22551357.0814
        15.5004          5.2504
  20494667.8554   -4100259.81547  -3185908.67046                  20494668.1944
        27.0004         17.2504
  22739099.8154    4221958.51746   1723912.94845                  22739102.2414
        15.5004          5.2504
  23355856.6834   -7471814.94245  -5539432.55444                  23355857.9134
        11.5004          4.0004
  22940614.7534   -1681825.10046    -67974.65745                  22940616.0194
        15.0004          5.0004
  23810356.9724    5336070.85045   2024265.28442                  23810363.7104
         8.2504          1.5004
 00  5  2 15  4 59.9990000  0  7G 2G 4G 7G 8G 9G26G27
  21330675.2694   -3153260.25947  -2452291.68846                  21330675.5034
        26.0004         15.0004
  22538252.3314  -12667353.40246  -9394886.31045                  22538253.8664
        15.7504          5.2504
  20492635.1674   -4110942.22047  -3194232.61646                  20492635.3784
        26.7504         17.2504
  22745021.2844    4253074.96046   1748159.47945                  22745023.8274
        15.0004          5.2504
  23343393.9874   -7537308.05945  -5590466.15444                  23343395.8154
        11.7504          3.7504
  22941277.8474   -1678341.06646    -65259.85545                  22941278.6084
        14.7504          5.2504
  23817158.3944    5371811.51645   2052115.03042                  23817162.9524
         8.2504          1.7504
 00  5  2 15  5 14.9990000  0  7G 2G 4G 7G 8G 9G26G27
  21328520.9564   -3164580.31447  -2461112.52246                  21328521.6124
        26.5004         15.2504
  22525159.4954  -12736154.24846  -9448497.31145                  22525161.2184
        16.0004          5.0004
  20490620.8784   -4121526.99747  -3202480.50146                  20490621.4294
        26.7504         17.2504
  22750955.6364    4284261.48146   1772460.59745                  22750957.9914
        15.0004          4.7504
  23330941.7534   -7602742.15845  -5641453.73244                  23330943.0074
        11.7504          3.7504
  22941961.3084   -1674750.57246    -62462.07245                  22941961.9874
        15.0004          5.2504
  23823970.1594    5407606.10845   2080006.79342                  23823976.7924
         8.5004          2.0004
 00  5  2 15  5 29.9990000  0  7G 2G 4G 7G 8G 9G26G27
  21326376.7924   -3175847.87947  -2469892.44746                  21326377.1444
        26.2504         15.7504
  22512078.2064  -12804898.84746  -9502064.49945                  22512080.3394
        16.0004          5.0004
  20488625.1444   -4132013.94847  -3210652.14946                  20488625.6944
        27.0004         17.5004
  22756903.9334    4315518.09346   1796816.33545                  22756906.3004
        14.2504          4.7504
  23318501.2844   -7668116.67845  -5692394.90444                  23318502.7964
        11.2504          3.7504
  22942664.9014   -1671053.71546    -59581.43745                  22942665.9334
        14.7504          5.7504
  23830791.7924    5443454.65145   2107940.57842                  23830799.5894
         8.2504          2.0004
 00  5  2 15  5 44.9990000  0  7G 2G 4G 7G 8G 9G26G27
  21324243.0894   -3187061.03747  -2478629.98046                  21324243.4404
        26.0004         15.5004
  22499007.7144  -12873584.97146  -9555586.10045                  22499010.5974
        15.2504          5.2504
  20486648.4804   -4142401.48047  -3218746.32546                  20486648.8904
        27.0004         18.0004
  22762865.7614    4346846.45746   1821227.99445                  22762868.0114
        14.5004          4.7504
  23306072.6124   -7733429.48745  -5743287.98044                  23306074.3004
        11.2504          4.0004
  22943388.5504   -1667248.97846    -56616.71945                  22943389.2884
        15.0004          5.5004
  23837623.9404    5479358.68145   2135917.61942                  23837628.0544
         8.2504          1.7504
 00  5  2 15  5 59.9990000  0  7G 2G 4G 7G 8G 9G26G27
  21322119.0344   -3198222.13447  -2487326.94846                  21322119.1634
        26.0004         15.0004
  22485947.5344  -12942214.74446  -9609063.79645                  22485949.4094
        15.2504          5.2504
  20484690.1364   -4152692.33247  -3226765.17146                  20484690.5694
        27.0004         17.2504
  22768840.2614    4378243.72846   1845693.33045                  22768842.0424
        14.7504          5.2504
  23293655.7064   -7798682.85245  -5794134.73844                  23293657.5224
        11.2504          4.0004
  22944132.5264   -1663339.14446    -53570.12045                  22944133.4644
        14.2504          5.2504
  23844466.4334    5515315.40345   2163935.67542                  23844470.4174
         7.7504          1.7504
 00  5  2 15  6 14.9990000  0  7G 2G 4G 7G 8G 9G26G27
  21320005.5504   -3209329.42847  -2495981.99146                  21320006.0424
        25.7504         15.2504
  22472899.1444  -13010786.13746  -9662496.00745                  22472901.5114
        15.5004          4.7504
  20482750.7614   -4162885.12947  -3234707.60646                  20482751.1014
        26.7504         17.5004
  22774828.4174    4409711.38846   1870213.53645                  22774830.4094
        15.0004          5.2504
  23281249.5894   -7863874.78245  -5844933.62844                  23281251.0194
        11.0004          3.5004
  22944897.0344   -1659322.91346    -50440.61145                  22944897.7964
        14.7504          5.2504
  23851318.5584    5551326.15644   2191995.90842                  23851322.1084
         7.2504          1.5004
 00  5  2 15  6 29.9990000  0  7G 2G 4G 7G 8G 9G26G27
  21317902.2844   -3220381.27047  -2504593.82046                  21317903.0114
        26.0004         14.7504
  22459861.4954  -13079297.02946  -9715881.05745                  22459863.3704
        15.0004          5.0004
  20480829.9094   -4172978.28147  -3242572.40046                  20480830.1904
        27.0004         17.2504
  22780829.9564    4441250.82046   1894789.65045                  22780831.7144
        14.7504          5.2504
  23268856.1834   -7929003.33445  -5895683.12644                  23268857.7304
        11.0004          3.7504
  22945681.5814   -1655198.88946    -47227.11245                  22945682.5304
        14.7504          5.2504
  23858182.4874    5587392.26144   2220099.19842                  23858188.6984
         7.0004          1.5004
 00  5  2 15  6 44.9990000  0  7G 2G 4G 7G 8G 9G26G27
  21315809.2224   -3231380.19747  -2513164.41746                  21315809.9954
        25.2504         15.0004
  22446835.3554  -13147749.87846  -9769220.91645                  22446838.3084
        14.5004          5.0004
  20478927.7454   -4182974.73347  -3250361.83946                  20478928.1324
        26.7504         17.0004
  22786844.7304    4472859.06546   1919419.39345                  22786847.6594
        14.2504          5.0004
  23256474.3154   -7994070.90045  -5946385.12144                  23256476.4374
        11.2504          3.5004
  22946486.3394   -1650970.06646    -43931.94845                  22946487.9564
        14.0004          5.2504
  23865055.9954    5623510.76244   2248243.34341                  23865062.5934
         6.7504          1.0004
 00  5  2 15  6 59.9990000  0  7G 2G 4G 7G 8G 9G26G27
  21313726.2454   -3242325.94947  -2521693.57946                  21313727.2064
        25.0004         15.2504
  22433820.3314  -13216143.87646  -9822514.87845                  22433823.0154
        14.7504          5.0004
  20477043.9174   -4192874.41747  -3258075.87946                  20477044.3274
        27.0004         16.7504
  22792872.6054    4504536.03946   1944102.65745                  22792875.1474
        14.2504          5.2504
  23244104.0974   -8059077.00345  -5997039.20944                  23244106.2304
        11.0004          3.5004
  22947310.7304   -1646636.53046    -40555.19645                  22947312.4764
        13.2504          5.2504
  23871938.6204    5659681.69244   2276428.29242                  23871945.7494
         6.5004          1.7504
 00  5  2 15  7 14.9990000  0  7G 2G 4G 7G 8G 9G26G27
  21311653.6124   -3253218.53247  -2530181.32246                  21311654.3744
        25.2504         14.7504
  22420816.7304  -13284478.83646  -9875762.84345                  22420819.1444
        14.7504          5.2504
  20475178.3624   -4202677.64447  -3265714.75546                  20475178.5264
        26.7504         17.0004
  22798913.8864    4536281.43246   1968839.27545                  22798917.3784
        14.7504          4.7504
  23231745.4564   -8124021.42545  -6047645.20644                  23231746.4054
        11.2504          3.7504
  22948155.3784   -1642198.70446    -37097.17245                  22948156.3044
        14.0004          4.5004
  23878832.1284    5695904.58544   2304653.76441                  23878837.9524
         6.5004          0.7504
 00  5  2 15  7 29.9990000  0  7G 2G 4G 7G 8G 9G26G27
  21309591.2844   -3264055.97147  -2538626.08346                  21309592.0114
        25.2504         14.7504
  22407824.8944  -13352752.63446  -9928963.15445                  22407826.3584
        14.2504          4.5004
  20473331.7534   -4212382.71147  -3273277.15146                  20473332.2224
        26.5004         17.0004
  22804968.4874    4568096.97446   1993630.54645                  22804971.4764
        14.0004          5.0004
  23219399.2764   -8188902.00145  -6098201.49944                  23219401.5034
        11.5004          4.2504
  22949019.9564   -1637655.04046    -33556.66245                  22949020.4134
        14.2504          5.0004
  23885735.8314    5732181.01444   2332920.96941                  23885743.4294
         6.7504          1.2504
 00  5  2 15  7 44.9990000  0  7G 2G 4G 7G 8G 9G26G27
  21307539.5584   -3274838.47347  -2547028.04246                  21307540.3314
        25.0004         14.7504
  22394843.9094  -13420964.94546  -9982115.56645                  22394845.8084
        14.0004          4.5004
  20471503.2144   -4221990.11947  -3280763.44146                  20471503.9874
        26.7504         17.0004
  22811035.8554    4599981.92946   2018475.90045                  22811038.9014
        14.0004          4.7504
  23207064.8084   -8253718.70345  -6148707.99943                  23207066.7064
        11.2504          3.2504
  22949905.0584   -1633006.19446    -29934.21745                  22949906.1014
        14.5004          5.0004
  23892648.8234    5768510.44844   2361229.47342                  23892653.4174
         7.0004          1.5004
 00  5  2 15  7 59.9990000  0  7G 2G 4G 7G 8G 9G26G27
  21305497.6054   -3285567.23447  -2555388.11946                  21305498.5424
        25.2504         14.7504
  22381875.5194  -13489116.68246 -10035220.73844                  22381877.1714
        14.2504          4.2504
  20469693.3624   -4231501.34647  -3288174.78246                  20469693.8194
        26.7504         17.2504
  22817116.3394    4631934.87246   2043374.22745                  22817118.2144
        14.0004          4.5004
  23194742.9094   -8318472.54345  -6199165.50744                  23194743.8234
        11.0004          4.0004
  22950809.4174   -1628253.59646    -26230.91445                  22950810.1674
        13.7504          5.2504
  23899572.2924    5804891.29644   2389578.02441                  23899581.2374
         7.0004          1.2504
 00  5  2 15  8 14.9990000  0  7G 2G 4G 7G 8G 9G26G27
  21303466.7144   -3296241.06347  -2563705.40046                  21303467.7104
        25.2504         15.2504
  22368918.0974  -13557206.50046 -10088277.71245                  22368920.4054
        14.2504          5.0004
  20467901.8944   -4240915.48647  -3295510.48446                  20467902.4444
        26.7504         17.5004
  22823210.0894    4663956.74646   2068326.26644                  22823212.0934
        13.7504          4.2504
  23182432.4174   -8383162.11745  -6249572.97644                  23182433.4954
        11.0004          3.7504
  22951733.4094   -1623396.53646    -22446.22945                  22951735.6364
        13.7504          5.0004
  23906505.7144    5841324.36844   2417967.25142                  23906513.9564
         7.0004          1.5004
 00  5  2 15  8 29.9990000  0  7G 2G 4G 7G 8G 9G26G27
  21301445.6514   -3306860.89147  -2571980.59846                  21301446.5304
        25.0004         14.7504
  22355973.0654  -13625234.84646 -10141286.75645                  22355975.0584
        14.2504          4.7504
  20466128.7764   -4250233.74547  -3302771.46146                  20466129.1634
        26.7504         17.0004
  22829316.4724    4696046.14946   2093330.92445                  22829319.1904
        13.5004          4.5004
  23170134.7694   -8447788.15945  -6299930.90644                  23170136.2574
        11.5004          3.7504
  22952677.0974   -1618436.26446    -18581.10245                  22952678.4214
        14.0004          5.5004
  23913448.0344    5877808.36344   2446396.18541                  23913456.2534
         7.0004          1.2504
 00  5  2 15  8 44.9990000  0  7G 2G 4G 7G 8G 9G26G27
  21299435.4174   -3317425.44447  -2580212.71346                  21299436.2724
        25.0004         15.5004
  22343039.3944  -13693200.15546 -10194246.67545                  22343041.3864
        14.7504          5.0004
  20464373.9334   -4259454.98647  -3309956.84746                  20464374.2264
        26.5004         17.5004
  22835435.8004    4728204.07346   2118388.98344                  22835437.6634
        13.2504          4.2504
  23157849.1514   -8512349.27145  -6350238.25744                  23157850.9564
        11.5004          3.7504
  22953641.3154   -1613372.00946    -14634.96545                  22953642.5224
        13.2504          5.0004
  23920400.1984    5914344.23844   2474865.52841                  23920405.4484
         6.7504          1.2504
 00  5  2 15  8 59.9990000  0  7G 2G 4G 7G 8G 9G26G27
  21297436.1984   -3327932.18447  -2588399.80046                  21297436.9484
        25.0004         15.5004
  22330118.4484  -13761099.67246 -10247155.35045                  22330119.9604
        15.0004          5.0004
  20462638.0344   -4268577.06347  -3317064.96046                  20462638.2104
        26.7504         17.7504
  22841568.8314    4760432.78046   2143502.18944                  22841571.2804
        12.7504          4.0004
  23145576.4334   -8576842.58645  -6400492.78444                  23145578.4374
        11.7504          3.7504
  22954625.3154   -1608201.50646    -10606.01545                  22954625.9014
        13.7504          5.2504
  23927363.9724    5950934.15744   2503376.99642                  23927374.0894
         6.7504          1.5004
 00  5  2 15  9 14.9990000  0  7G 2G 4G 7G 8G 9G26G27
  21295447.5584   -3338382.59647  -2596542.99046                  21295448.7304
        25.2504         15.2504
  22317209.8394  -13828934.52646 -10300013.64145                  22317211.8434
        15.2504          5.0004
  20460920.7144   -4277601.77447  -3324097.19946                  20460920.9954
        26.7504         17.5004
  22847714.6124    4792730.39146   2168669.07344                  22847716.7224
        12.5004          4.0004
  23133316.0894   -8641269.49645  -6450695.53744                  23133317.4484
        11.7504          3.7504
  22955629.0344   -1602926.65146     -6495.77345                  22955629.7844
        14.2504          5.2504
  23934336.8154    5987576.21444   2531929.13542                  23934342.4764
         7.0004          1.7504
 00  5  2 15  9 29.9990000  0  7G 2G 4G 7G 8G 9G26G27
  21293469.2534   -3348777.97347  -2604643.28846                  21293470.2614
        25.2504         15.0004
  22304313.4174  -13896705.75846 -10352822.33845                  22304315.1054
        15.0004          5.0004
  20459221.5264   -4286530.89347  -3331054.95546                  20459221.7144
        27.0004         17.2504
  22853873.9644    4825095.11246   2193888.26144                  22853875.7104
        12.5004          4.0004
  23121068.8234   -8705631.06845  -6500847.37644                  23121069.9254
        11.7504          3.7504
  22956652.2144   -1597549.31446     -2305.65745                  22956652.9174
        14.5004          5.2504
  23941319.1594    6024268.61344   2560520.40742                  23941325.7334
         7.0004          1.5004
 00  5  2 15  9 44.9990000  0  7G 2G 4G 7G 8G 9G26G27
  21291501.8864   -3359117.13947  -2612699.79546                  21291502.8824
        25.0004         15.5004
  22291429.2614  -13964412.05946 -10405580.44545                  22291431.1124
        15.5004          5.5004
  20457540.9564   -4295363.26147  -3337937.32046                  20457541.5074
        27.0004         17.5004
  22860045.6054    4857527.80746   2219160.43243                  22860049.1444
        12.0004          3.2504
  23108833.6204   -8769925.84445  -6550947.21244                  23108834.2764
        11.7504          4.0004
  22957695.3314   -1592068.69746      1964.93845                  22957696.0464
        13.7504          5.2504
  23948311.1834    6061012.22744   2589151.64541                  23948319.2374
         6.7504          1.2504
 00  5  2 15  9 59.9990000  0  7G 2G 4G 7G 8G 9G26G27
  21289544.6904   -3369402.77947  -2620714.58746                  21289545.9444
        25.2504         15.2504
  22278557.1834  -14032055.67246 -10458289.70245                  22278559.3864
        15.5004          5.5004
  20455878.1444   -4304101.99047  -3344746.71646                  20455878.3664
        27.0004         17.7504
  22866230.0264    4890025.48246   2244483.22544                  22866232.5814
        12.5004          3.7504
  23096610.9094   -8834156.29245  -6600996.88044                  23096610.9564
        11.7504          3.7504
  22958757.4564   -1586487.87246      6313.60945                  22958757.6084
        14.0004          5.5004
  23955312.4724    6097804.04044   2617820.39441                  23955317.3354
         7.0004          1.2504
 00  5  2 15 10 14.9990000  0  7G 2G 4G 7G 8G 9G26G27
  21287597.7614   -3379633.59147  -2628686.65346                  21287598.8154
        25.2504         15.7504
  22265697.0974  -14099635.01246 -10510948.87745                  22265698.6674
        15.7504          5.7504
  20454233.1204   -4312746.03147  -3351482.33546                  20454233.5304
        27.0004         17.7504
  22872426.4644    4922589.09946   2269857.39244                  22872429.0194
        12.7504          3.5004
  23084400.9804   -8898320.96846  -6650995.32444                  23084402.2224
        12.2504          4.0004
  22959838.4874   -1580805.84946     10741.12145                  22959839.6244
        14.0004          5.5004
  23962323.4644    6134644.94145   2646527.40542                  23962328.7844
         7.7504          1.5004
 00  5  2 15 10 29.9990000  0  7G 2G 4G 7G 8G 9G26G27
  21285661.3474   -3389809.38047  -2636615.84546                  21285662.0034
        25.7504         15.5004
  22252849.4564  -14167149.55146 -10563557.54045                  22252850.9094
        15.7504          5.7504
  20452606.3234   -4321295.53147  -3358144.28246                  20452606.7924
        27.0004         17.7504
  22878635.5894    4955218.51446   2295282.84744                  22878637.8274
        12.5004          3.7504
  23072203.7534   -8962419.46546  -6700942.18844                  23072205.0074
        12.2504          4.0004
  22960939.3004   -1575022.97346     15247.22645                  22960940.9764
        14.2504          5.7504
  23969343.3314    6171534.71045   2675272.53841                  23969350.8004
         7.7504          1.2504
 00  5  2 15 10 44.9990000  0  7G 2G 4G 7G 8G 9G26G27
  21283736.0504   -3399928.00647  -2644500.49246                  21283736.4484
        26.0004         15.0004
  22240014.6514  -14234596.86346 -10616113.83245                  22240016.4914
        16.0004          5.7504
  20450997.5974   -4329748.54147  -3364731.04046                  20450997.8784
        27.0004         17.0004
  22884857.9804    4987915.48246   2320760.92744                  22884862.1164
        12.2504          3.5004
  23060019.1124   -9026449.42646  -6750835.64244                  23060019.6164
        12.5004          4.0004
  22962059.0894   -1569137.43446     19833.35245                  22962059.4294
        14.5004          5.2504
  23976373.1514    6208475.17645   2704057.13642                  23976382.1904
         7.7504          1.7504
 00  5  2 15 10 59.9990000  0  7G 2G 4G 7G 8G 9G26G27
  21281821.0194   -3409991.59847  -2652342.25846                  21281821.2884
        26.0004         15.5004
  22227192.3704  -14301978.77346 -10668619.16745                  22227193.9994
        16.7504          6.0004
  20449407.0424   -4338107.46547  -3371244.49846                  20449407.4054
        26.5004         17.5004
  22891092.3084    5020677.61346   2346289.79044                  22891095.5654
        12.5004          3.7504
  23047847.2694   -9090412.75946  -6800677.18944                  23047847.8784
        12.5004          4.2504
  22963198.4254   -1563151.72246     24497.49945                  22963199.3044
        15.0004          5.5004
  23983411.8474    6245463.80744   2732879.27441                  23983417.6834
         7.0004          1.0004
 00  5  2 15 11 14.9990000  0  7G 2G 4G 7G 8G 9G26G27
  21279916.5894   -3419998.39547  -2660139.77146                  21279917.1984
        25.7504         15.2504
  22214382.5344  -14369293.14846 -10721071.86345                  22214384.3394
        16.7504          6.2504
  20447834.4724   -4346370.89847  -3377683.53146                  20447834.8354
        26.7504         17.2504
  22897339.9724    5053506.30046   2371870.50844                  22897341.6124
        12.7504          3.5004
  23035688.4564   -9154307.55946  -6850465.32644                  23035689.2654
        12.2504          4.0004
  22964356.6984   -1557064.57446     29240.71245                  22964357.3194
        14.7504          5.7504
  23990459.8624    6282501.97844   2761740.01942                  23990464.4444
         6.7504          1.5004
 00  5  2 15 11 29.9990000  0  7G 2G 4G 7G 8G 9G26G27
  21278023.3314   -3429947.51047  -2667892.33346                  21278024.2104
        25.2504         15.5004
  22201586.3784  -14436538.94546 -10773471.14045                  22201587.9604
        17.0004          6.2504
  20446280.2144   -4354538.15947  -3384047.63246                  20446280.5424
        26.2504         17.7504
  22903599.4484    5086402.19046   2397503.60444                  22903602.4724
        12.5004          3.7504
  23023542.8004   -9218132.72146  -6900199.20644                  23023544.1364
        12.2504          4.0004
  22965534.5504   -1550875.34746     34063.45445                  22965536.0264
        14.7504          5.2504
  23997517.3784    6319590.27244   2790639.84441                  23997522.2064
         6.5004          1.2504
 00  5  2 15 11 44.9990000  0  7G 2G 4G 7G 8G 9G26G27
  21276140.5734   -3439841.94847  -2675602.28746                  21276141.5224
        25.0004         15.0004
  22188802.6594  -14503718.69446 -10825818.93645                  22188804.8154
        17.0004          6.7504
  20444743.7224   -4362612.54847  -3390339.36346                  20444743.8624
        26.5004         17.0004
  22909871.4644    5119361.76646   2423186.32344                  22909873.8554
        12.2504          3.7504
  23011409.9094   -9281891.02446  -6949880.97545                  23011410.8004
        12.5004          4.5004
  22966731.1124   -1544587.51046     38963.05745                  22966732.6244
        14.5004          5.2504
  24004584.5584    6356725.21444   2819575.94142                  24004589.4684
         6.7504          1.5004
 00  5  2 15 11 59.9990000  0  7G 2G 4G 7G 8G 9G26G27
  21274268.0974   -3449681.22247  -2683269.25846                  21274269.1984
        24.5004         15.0004
  22176031.3084  -14570831.72046 -10878114.74245                  22176033.1714
        17.0004          6.5004
  20443225.1054   -4370593.83947  -3396558.55546                  20443225.4334
        26.5004         17.0004
  22916155.2144    5152385.31345   2448918.87244                  22916158.2024
        11.7504          3.5004
  22999290.4334   -9345581.68846  -6999510.05644                  22999290.7964
        13.2504          4.2504
  22967945.9644   -1538200.99046     43939.54045                  22967947.0894
        15.0004          5.5004
  24011660.2764    6393907.01344   2848548.59342                  24011666.1714
         7.0004          1.5004
 00  5  2 15 12 14.9990000  0  7G 2G 4G 7G 8G 9G26G27
  21272406.3314   -3459464.31547  -2690892.46046                  21272407.5034
        24.5004         15.2504
  22163273.0814  -14637876.62846 -10930357.46945                  22163274.5934
        17.0004          7.0004
  20441723.9644   -4378481.37647  -3402704.68646                  20441724.4094
        26.7504         17.5004
  22922451.8234    5185473.35445   2474701.67144                  22922455.1634
        11.7504          3.7504
  22987183.6364   -9409203.54346  -7049085.51545                  22987184.0344
        13.5004          4.5004
  22969180.6834   -1531715.25846     48993.33445                  22969181.8084
        14.2504          5.7504
  24018744.9094    6431136.15944   2877558.16242                  24018754.6634
         7.2504          1.5004
 00  5  2 15 12 29.9990000  0  7G 2G 4G 7G 8G 9G26G27
  21270555.8944   -3469189.40047  -2698470.45746                  21270556.7494
        24.7504         15.5004
  22150528.0584  -14704851.36646 -10982545.51845                  22150530.0384
        16.5004          6.5004
  20440241.1904   -4386273.59747  -3408776.54346                  20440241.5424
        26.2504         17.7504
  22928760.9804    5218627.42545   2500535.95943                  22928763.8274
        11.7504          3.2504
  22975090.1754   -9472754.55446  -7098605.75945                  22975090.1634
        13.7504          4.5004
  22970433.4334   -1525128.88246     54125.54245                  22970435.7184
        13.7504          5.5004
  24025838.0974    6468414.14644   2906605.73941                  24025848.1794
         7.0004          1.2504
 00  5  2 15 12 44.9990000  0  7G 2G 4G 7G 8G 9G26G27
  21268715.6984   -3478858.57447  -2706004.88146                  21268716.8354
        24.5004         15.5004
  22137796.4254  -14771757.66546 -11034680.23845                  22137798.4644
        17.0004          7.0004
  20438776.1204   -4393972.96047  -3414776.04946                  20438776.5424
        26.2504         17.7504
  22935082.2064    5251844.99745   2526419.70344                  22935086.7184
        11.7504          3.5004
  22963009.9094   -9536236.70646  -7148072.35145                  22963009.8974
        14.2504          5.2504
  22971705.6904   -1518444.38146     59334.22845                  22971707.6124
        14.0004          5.2504
  24032941.5654    6505738.50544   2935689.47541                  24032948.1284
         6.5004          1.2504
 00  5  2 15 12 59.9990000  0  7G 2G 4G 7G 8G 9G26G27
  21266886.6204   -3488470.82547  -2713494.94746                  21266887.6634
        25.0004         15.2504
  22125077.4804  -14838594.38846 -11086760.75845                  22125078.7574
        17.0004          6.7504
  20437328.7924   -4401578.66047  -3420702.56846                  20437329.2374
        26.7504         18.2504
  22941416.0504    5285126.94946   2552353.61944                  22941419.4014
        12.2504          3.7504
  22950942.9094   -9599648.68546  -7197484.28745                  22950944.1054
        14.0004          5.0004
  22972996.9404   -1511660.98646     64619.96645                  22972998.5224
        14.2504          5.2504
  24040053.0264    6543109.88643   2964809.83341                  24040060.2264
         6.0004          1.2504
 00  5  2 15 13 14.9990000  0  7G 2G 4G 7G 8G 9G26G27
  21265068.3704   -3498025.62247  -2720940.25346                  21265069.1904
        24.7504         15.5004
  22112372.5034  -14905360.50746 -11138786.22745                  22112374.0154
        17.0004          6.7504
  20435899.3554   -4409090.50747  -3426555.95446                  20435899.6834
        27.0004         18.5004
  22947761.8624    5318473.14846   2578337.63544                  22947764.6404
        12.5004          3.7504
  22938889.7304   -9662989.80046  -7246840.98545                  22938891.0544
        14.0004          4.7504
  22974305.8784   -1504778.89846     69982.61645                  22974307.1794
        13.5004          5.5004
  24047173.6444    6580528.35543   2993966.82542                  24047184.4874
         6.0004          1.5004
 00  5  2 15 13 29.9990000  0  7G 2G 4G 7G 8G 9G26G27
  21263261.3394   -3507521.77947  -2728339.86746                  21263262.1474
        25.0004         15.5004
  22099680.5424  -14972054.69846 -11190755.68645                  22099682.3004
        16.5004          7.0004
  20434487.9564   -4416507.55347  -3432335.47346                  20434488.2374
        27.0004         18.2504
  22954119.4174    5351884.54046   2604372.37044                  22954123.6014
        12.5004          4.0004
  22926849.7064   -9726258.63846  -7296141.36045                  22926850.0934
        13.2504          4.7504
  22975634.9954   -1497797.06046     75422.96745                  22975636.7414
        13.7504          5.2504
  24054303.5894    6617994.68243   3023161.18942                  24054312.3004
         6.0004          1.5004
 00  5  2 15 13 44.9990000  0  7G 2G 4G 7G 8G 9G26G27
  21261465.2374   -3516961.01947  -2735695.12146                  21261466.0224
        24.7504         14.7504
  22087002.2614  -15038678.34646 -11242670.13845                  22087003.6324
        16.2504          7.0004
  20433094.2694   -4423831.91647  -3438042.76846                  20433094.5264
        27.2504         18.2504
  22960489.2304    5385359.17546   2630456.42844                  22960492.2064
        12.0004          3.7504
  22914823.8784   -9789456.75946  -7345386.61845                  22914824.6054
        13.7504          4.7504
  22976982.1674   -1490717.75046     80939.28145                  22976983.7144
        13.5004          5.2504
  24061442.2614    6655506.83244   3052391.25042                  24061450.5154
         6.2504          1.5004
 00  5  2 15 13 59.9990000  0  7G 2G 4G 7G 8G 9G26G27
  21259679.7924   -3526343.27147  -2743005.97146                  21259680.6014
        25.0004         15.2504
  22074337.9484  -15105231.10246 -11294529.38145                  22074339.7184
        16.2504          6.5004
  20431718.1594   -4431063.79347  -3443678.00446                  20431718.6514
        26.7504         18.5004
  22966871.8474    5418896.74646   2656589.52044                  22966875.2104
        12.2504          3.7504
  22902811.0424   -9852583.83946  -7394576.56145                  22902811.1364
        13.7504          5.0004
  22978347.5504   -1483541.34446     86531.25845                  22978349.2494
        13.2504          4.7504
  24068589.6754    6693064.47944   3081656.68241                  24068600.1084
         6.5004          1.2504
 00  5  2 15 14 14.9990000  0  7G 2G 4G 7G 8G 9G26G27
  21257905.3554   -3535668.37847  -2750272.29246                  21257905.8824
        25.2504         15.2504
  22061687.1364  -15171712.41946 -11346332.95445                  22061688.6244
        16.2504          6.2504
  20430359.5424   -4438203.26947  -3449241.23246                  20430360.0224
        26.7504         18.2504
  22973265.6594    5452496.92846   2682771.39444                  22973269.5624
        12.0004          3.5004
  22890811.6594   -9915639.46246  -7443710.78745                  22890812.2454
        14.0004          5.0004
  22979732.0584   -1476267.94446     92198.82145                  22979733.9684
        13.5004          5.2504
  24075744.6124    6730667.41044   3110957.50742                  24075753.3824
         6.7504          1.7504
 00  5  2 15 14 29.9990000  0  7G 2G 4G 7G 8G 9G26G27
  21256141.7534   -3544936.30047  -2757494.06146                  21256142.1754
        25.0004         14.7504
  22049049.4174  -15238121.91346 -11398080.54645                  22049051.5624
        16.2504          6.2504
  20429018.4724   -4445250.52447  -3454732.59846                  20429018.9994
        26.7504         18.0004
  22979671.4484    5486159.50746   2709001.88944                  22979674.7654
        13.0004          3.7504
  22878826.4874   -9978623.35246  -7492789.15545                  22878827.3664
        13.7504          4.7504
  22981134.2224   -1468898.02546     97941.58045                  22981135.5224
        14.0004          5.0004
  24082909.4724    6768315.30944   3140293.31342                  24082917.7374
         7.0004          1.5004
 00  5  2 15 14 44.9990000  0  7G 2G 4G 7G 8G 9G26G27
  21254389.1754   -3554146.53747  -2764670.86746                  21254389.6554
        25.2504         14.5004
  22036425.9404  -15304458.84346 -11449771.59845                  22036427.8044
        16.5004          6.2504
  20427694.8624   -4452205.47247  -3460152.04046                  20427695.2844
        26.2504         18.0004
  22986089.3314    5519884.71546   2735281.21544                  22986091.0544
        13.0004          3.7504
  22866854.7064  -10041534.98646  -7541811.17045                  22866855.1874
        14.0004          4.7504
  22982555.3084   -1461431.46646    103759.65345                  22982556.8194
        14.0004          5.2504
  24090081.9874    6806008.27244   3169664.24542                  24090089.7264
         7.0004          1.5004
 00  5  2 15 14 59.9990000  0  7G 2G 4G 7G 8G 9G26G27
  21252647.6754   -3563298.65047  -2771802.38846                  21252648.0504
        24.7504         15.0004
  22023816.6594  -15370722.54646 -11501405.61845                  22023818.7574
        17.0004          6.7504
  20426388.7064   -4459067.84347  -3465499.34446                  20426388.9994
        26.7504         17.7504
  22992519.0584    5553672.46246   2761609.25543                  22992520.4524
        12.5004          3.2504
  22854896.8234  -10104373.57346  -7590776.29445                  22854896.8584
        13.7504          5.0004
  22983994.4404   -1453868.22946    109653.08045                  22983996.0464
        13.7504          5.0004
  24097263.0194    6843746.32844   3199070.30842                  24097271.0974
         7.0004          2.0004
 00  5  2 15 15 14.9990000  0  7G 2G 4G 7G 8G 9G26G27
  21250916.9014   -3572393.35747  -2778889.18646                  21250917.5584
        25.0004         15.0004
  22011220.7844  -15436913.45846 -11552982.88445                  22011222.2614
        17.2504          6.2504
  20425100.4014   -4465838.83647  -3470775.43746                  20425100.7064
        26.2504         18.0004
  22998960.1444    5587521.76946   2787985.26444                  22998963.8824
        12.5004          3.7504
  22842953.0504  -10167139.73146  -7639684.97645                  22842953.9874
        14.0004          5.2504
  22985451.5264   -1446209.58146    115620.82545                  22985452.8974
        13.5004          5.0004
  24104453.8474    6881528.33845   3228510.61642                  24104462.0774
         7.5004          1.7504
 00  5  2 15 15 29.9990000  0  7G 2G 4G 7G 8G 9G26G27
  21249197.0584   -3581430.31147  -2785930.97146                  21249197.6554
        24.7504         14.5004
  21998639.0344  -15503030.89846 -11604502.91145                  21998640.9214
        17.2504          6.2504
  20423829.3704   -4472518.23047  -3475980.16846                  20423830.0504
        26.0004         17.2504
  23005413.3234    5621432.64046   2814409.25644                  23005416.5224
        12.7504          3.5004
  22831022.7304  -10229832.83546  -7688536.74645                  22831023.0584
        14.0004          5.2504
  22986927.4014   -1438455.52746    121662.90745                  22986928.7144
        14.2504          5.2504
  24111651.5424    6919354.36945   3257985.23042                  24111658.1634
         7.5004          1.5004
 00  5  2 15 15 44.9990000  0  7G 2G 4G 7G 8G 9G26G27
  21247488.7844   -3590408.44547  -2792926.92146                  21247489.5694
        25.0004         15.0004
  21986071.5584  -15569073.30846 -11655964.47145                  21986072.6834
        17.0004          7.2504
  20422575.8314   -4479105.21947  -3481112.87946                  20422576.1944
        26.0004         18.0004
  23011878.2694    5655405.92046   2840881.83344                  23011881.2454
        12.5004          3.5004
  22819107.2534  -10292451.58946  -7737330.56545                  22819107.7334
        13.7504          5.5004
  22988421.3394   -1430605.32946    127779.91145                  22988422.4644
        13.7504          5.5004
  24118858.0194    6957225.11245   3287494.72242                  24118866.1554
         7.7504          1.7504
 00  5  2 15 15 59.9990000  0  7G 2G 4G 7G 8G 9G26G27
  21245791.4174   -3599328.24547  -2799877.41346                  21245792.1324
        25.0004         15.0004
  21973518.2064  -15635041.24146 -11707368.01445                  21973519.6714
        17.2504          6.7504
  20421339.7454   -4485600.74347  -3486174.33446                  20421340.2144
        26.0004         17.7504
  23018355.1204    5689440.43646   2867402.17743                  23018357.5224
        12.5004          3.2504
  22807204.7454  -10354996.28246  -7786066.67945                  22807205.9764
        14.2504          5.2504
  22989933.6514   -1422660.01446    133971.04245                  22989935.4804
        13.7504          5.2504
  24126073.4644    6995139.65645   3317038.29842                  24126081.2614
         7.7504          2.0004
 00  5  2 15 16 14.9990000  0  7G 2G 4G 7G 8G 9G26G27
  21244105.2224   -3608189.52847  -2806782.31246                  21244105.9014
        25.0004         14.7504
  21960979.2844  -15700933.92446 -11758712.89745                  21960980.5734
        17.5004          6.7504
  20420121.3864   -4492004.79647  -3491164.50646                  20420121.6324
        26.5004         18.0004
  23024843.2144    5723536.25546   2893970.27343                  23024845.8514
        13.0004          3.2504
  22795317.0034  -10417466.54246  -7834744.77045                  22795317.6014
        14.0004          5.2504
  22991463.4254   -1414619.68146    140236.22045                  22991464.6904
        13.2504          5.2504
  24133297.2064    7033097.79845   3346615.80842                  24133305.3904
         7.5004          1.7504
 00  5  2 15 16 29.9990000  0  7G 2G 4G 7G 8G 9G26G27
  21242429.8624   -3616993.43347  -2813642.51746                  21242430.9054
        24.5004         15.0004
  21948454.3314  -15766752.33946 -11809999.91845                  21948455.7264
        17.5004          7.0004
  20418919.7844   -4498318.90447  -3496084.59246                  20418920.1014
        26.2504         18.2504
  23031342.7374    5757691.78646   2920584.89844                  23031346.0424
        13.0004          4.0004
  22783443.2144  -10479863.33346  -7883365.65145                  22783443.7064
        13.7504          5.5004
  22993010.9564   -1406486.08446    146574.03945                  22993012.3864
        13.2504          5.2504
  24140528.1444    7071098.03344   3376226.18842                  24140535.5774
         7.0004          1.5004
 00  5  2 15 16 44.9990000  0  7G 2G 4G 7G 8G 9G26G27
  21240765.3154   -3625739.51947  -2820457.65146                  21240766.3944
        24.5004         15.2504
  21935943.3004  -15832495.76446 -11861228.51745                  21935944.7534
        17.2504          6.7504
  20417735.4334   -4504542.88447  -3500934.45046                  20417735.7374
        26.2504         19.0004
  23037853.5034    5791907.07146   2947246.07444                  23037856.5384
        12.5004          3.5004
  22771583.9804  -10542185.94346  -7931928.69245                  22771584.8824
        13.7504          5.5004
  22994577.3154   -1398259.08546    152984.68445                  22994578.0304
        13.5004          5.0004
  24147767.4804    7109140.35144   3405869.36442                  24147773.7374
         6.7504          1.5004
 00  5  2 15 16 59.9990000  0  7G 2G 4G 7G 8G 9G26G27
  21239112.2844   -3634427.09447  -2827227.19146                  21239113.1284
        24.5004         15.2504
  21923447.8624  -15898163.15146 -11912397.86445                  21923449.0344
        17.5004          7.5004
  20416568.3554   -4510676.31847  -3505713.74546                  20416568.9294
        26.5004         18.5004
  23044376.4644    5826182.49246   2973954.10144                  23044379.8624
        12.7504          3.7504
  22759738.4644  -10604433.55646  -7980433.33845                  22759739.7764
        14.0004          5.5004
  22996159.8314   -1389938.49746    159468.23245                  22996161.3904
        13.5004          5.0004
  24155015.1674    7147225.06344   3435545.47242                  24155023.0114
         6.7504          1.5004
 00  5  2 15 17 14.9990000  0  7G 2G 4G 7G 8G 9G26G27
  21237469.8554   -3643057.74747  -2833952.38046                  21237470.7804
        24.2504         14.7504
  21910965.5974  -15963755.85046 -11963509.01045                  21910966.6164
        17.5004          7.5004
  20415418.1054   -4516721.18047  -3510424.02846                  20415418.4804
        26.7504         18.2504
  23050909.6054    5860516.13245   3000707.51744                  23050911.7494
        11.7504          3.7504
  22747906.8314  -10666607.52146  -8028880.57245                  22747907.6754
        13.5004          5.0004
  22997760.5814   -1381526.31946    166023.14145                  22997761.6944
        13.5004          5.5004
  24162269.9724    7185350.20844   3465253.24341                  24162275.5504
         6.2504          1.2504
 00  5  2 15 17 29.9990000  0  6G 2G 4G 7G 8G 9G26
  21235838.0654   -3651632.59847  -2840634.09346                  21235839.0974
        24.5004         15.0004
  21898497.8084  -16029274.59646 -12014562.50845                  21898498.9214
        17.7504          7.2504
  20414284.3084   -4522678.73447  -3515066.27746                  20414284.5194
        26.7504         19.0004
  23057453.9334    5894906.63246   3027505.20944                  23057457.2024
        12.0004          4.0004
  22736089.8004  -10728708.70046  -8077271.07445                  22736090.9374
        13.7504          5.2504
  22999378.6674   -1373023.93546    172648.34145                  22999380.0974
        13.0004          5.0004
 00  5  2 15 17 44.9990000  0  6G 2G 4G 7G 8G 9G26
  21234217.6834   -3660148.65847  -2847269.98446                  21234218.8664
        24.2504         14.7504
  21886044.4874  -16094716.25446 -12065555.96845                  21886046.4914
        18.2504          7.7504
  20413167.5584   -4528546.40247  -3519638.49046                  20413167.7924
        26.2504         17.7504
  23064009.8314    5929356.40046   3054349.08744                  23064011.9764
        12.2504          3.7504
  22724286.6594  -10790733.93846  -8125602.41245                  22724287.4564
        14.2504          5.0004
  23001014.1904   -1364428.98346    179345.69145                  23001015.7264
        13.0004          5.0004
 00  5  2 15 17 59.9990000  0  6G 2G 4G 7G 8G 9G26
  21232608.5584   -3668604.73647  -2853859.14246                  21232609.2724
        24.5004         15.5004
  21873606.5194  -16160079.16346 -12116488.04745                  21873608.3354
        18.5004          8.7504
  20412068.2224   -4534323.23947  -3524139.92346                  20412068.5264
        26.2504         18.5004
  23070576.8704    5963866.35546   3081239.89144                  23070580.5384
        12.2504          3.5004
  22712498.3704  -10852681.84146  -8173873.51145                  22712500.5624
        13.5004          5.2504
  23002667.5194   -1355740.65546    186115.77045                  23002669.5114
        12.7504          5.0004
 00  5  2 15 18 14.9990000  0  6G 2G 4G 7G 8G 9G26
  21231010.5504   -3677002.35947  -2860402.76046                  21231011.5694
        25.0004         15.2504
  21861183.3394  -16225364.68146 -12167359.82245                  21861185.0624
        19.2504          8.7504
  20410985.9724   -4540011.11247  -3528572.03846                  20410986.2534
        26.7504         18.7504
  23077154.9564    5998434.68545   3108176.16844                  23077157.3584
        11.7504          3.5004
  22700724.7304  -10914553.71446  -8222085.32845                  22700727.0264
        13.7504          5.5004
  23004338.5424   -1346960.83946    192957.16345                  23004339.4094
        13.0004          5.0004
 00  5  2 15 18 29.9990000  0  6G 2G 4G 7G 8G 9G26
  21229423.6984   -3685341.20347  -2866900.56146                  21229424.3664
        25.0004         14.7504
  21848774.4804  -16290572.11346 -12218170.77145                  21848775.7224
        18.7504          8.5004
  20409920.4874   -4545609.95447  -3532934.77246                  20409920.7574
        26.0004         18.2504
  23083744.7064    6033061.26045   3135157.81244                  23083748.4444
        11.7504          3.5004
  22688965.2144  -10976349.10846  -8270237.57145                  22688965.9764
        14.0004          5.7504
  23006027.2144   -1338089.62546    199869.76945                  23006028.0114
        12.5004          4.5004
 00  5  2 15 18 44.9990000  0  6G 2G 4G 7G 8G 9G26
  21227848.2064   -3693620.62947  -2873352.06846                  21227848.6284
        25.0004         14.7504
  21836380.7064  -16355700.65646 -12268920.23445                  21836382.3234
        18.0004          8.2504
  20408872.0344   -4551119.44547  -3537227.88946                  20408872.4214
        26.5004         17.7504
  23090344.7374    6067746.34345   3162185.02644                  23090348.6164
        11.7504          3.7504
  22677220.9334  -11038067.10346  -8318329.52345                  22677221.7064
        14.2504          5.5004
  23007732.1594   -1329126.86745    206853.71044                  23007733.6594
        11.7504          4.2504
 00  5  2 15 18 59.9990000  0  6G 2G 4G 7G 8G 9G26
  21226284.1204   -3701840.82347  -2879757.42146                  21226284.7884
        25.5004         14.7504
  21824002.3554  -16420750.10446 -12319608.06245                  21824004.1594
        17.7504          8.5004
  20407840.6124   -4556540.10347  -3541451.78046                  20407841.0694
        26.2504         17.7504
  23096956.4334    6102489.44946   3189257.54444                  23096958.0854
        12.2504          4.0004
  22665490.9404  -11099707.62046  -8366361.06345                  22665492.1124
        14.5004          5.5004
  23009455.0264   -1320073.21445    213908.47144                  23009456.4564
        11.5004          4.2504
 00  5  2 15 19 14.9990000  0  6G 2G 4G 7G 8G 9G26
  21224730.9094   -3710001.70847  -2886116.56346                  21224731.7184
        25.5004         14.7504
  21811638.8234  -16485720.01946 -12370233.91745                  21811640.8154
        18.0004          8.2504
  20406825.9564   -4561872.10047  -3545606.58846                  20406826.5304
        26.0004         17.7504
  23103578.6444    6137290.39246   3216375.05844                  23103581.7144
        12.0004          3.5004
  22653775.8864  -11161270.36246  -8414332.01345                  22653776.4484
        15.0004          5.5004
  23011194.9804   -1310928.88945    221033.89344                  23011196.6204
        11.0004          3.7504
 00  5  2 15 19 29.9990000  0  6G 2G 4G 7G 8G 9G26
  21223189.1054   -3718104.61347  -2892430.51846                  21223189.5854
        25.2504         15.2504
  21799290.3554  -16550611.48246 -12420798.63845                  21799292.0194
        18.2504          8.2504
  20405827.7304   -4567117.07647  -3549693.58746                  20405828.1404
        26.0004         18.2504
  23110211.9724    6172147.42946   3243536.28044                  23110215.0424
        12.0004          3.5004
  22642075.6514  -11222756.53646  -8462243.29945                  22642076.5194
        14.5004          5.2504
  23012952.5114   -1301695.74345    228228.51944                  23012954.4684
        11.7504          3.7504
 00  5  2 15 19 44.9990000  0  6G 2G 4G 7G 8G 9G26
  21221658.5114   -3726147.99347  -2898698.08846                  21221658.9214
        25.2504         15.0004
  21786957.3004  -16615422.70846 -12471300.85245                  21786959.3044
        18.0004          8.2504
  20404846.6054   -4572273.72847  -3553711.76346                  20404847.4014
        26.2504         18.2504
  23116855.9874    6207061.61545   3270742.07543                  23116858.0974
        11.7504          3.2504
  22630390.0894  -11284164.42646  -8510093.58945                  22630390.5694
        14.5004          5.5004
  23014725.9014   -1292372.62145    235493.23444                  23014727.8704
        11.7504          4.0004
 00  5  2 15 19 59.9990000  0  6G 2G 4G 7G 8G 9G26
  21220138.8394   -3734134.40447  -2904921.26946                  21220139.4834
        25.2504         15.0004
  21774638.6754  -16680155.96446 -12521742.28745                  21774640.4684
        17.2504          8.2504
  20403881.4954   -4577344.93647  -3557663.36046                  20403882.0464
        26.2504         18.0004
  23123510.0264    6242030.08345   3297990.13744                  23123513.3314
        11.5004          3.7504
  22618718.5894  -11345496.30646  -8557884.66345                  22618719.4684
        14.2504          5.5004
  23016516.7924   -1282962.57046    242825.73544                  23016518.2224
        12.2504          4.2504
 00  5  2 15 20 14.9990000  0  6G 2G 4G 7G 8G 9G26
  21218630.1984   -3742061.56347  -2911098.28446                  21218631.0894
        25.0004         14.7504
  21762336.0814  -16744808.63846 -12572120.95645                  21762337.5344
        18.0004          8.0004
  20402933.2614   -4582328.83147  -3561546.91346                  20402933.6594
        26.2504         18.0004
  23130175.3784    6277054.86545   3325282.09143                  23130178.7304
        11.0004          3.0004
  22607062.6204  -11406749.70246  -8605614.57145                  22607063.6874
        14.2504          6.0004
  23018324.9174   -1273463.65446    250227.45444                  23018326.7334
        12.0004          4.2504
 00  5  2 15 20 29.9990000  0  6G 2G 4G 7G 8G 9G26
  21217132.8394   -3749931.18447  -2917230.47146                  21217133.6834
        25.0004         13.7504
  21750047.8004  -16809382.18246 -12622437.95445                  21750049.6634
        18.0004          8.2504
  20402001.1204   -4587227.31147  -3565363.91946                  20402001.5194
        26.5004         18.0004
  23136850.6754    6312133.66245   3352616.09843                  23136853.9804
        11.0004          2.7504
  22595421.4874  -11467926.17746  -8653284.53145                  22595422.7884
        15.2504          6.2504
  23020149.1984   -1263878.04546    257696.71044                  23020150.9444
        13.0004          4.2504
 00  5  2 15 20 44.9990000  0  6G 2G 4G 7G 8G 9G26
  21215646.4484   -3757741.99947  -2923316.82546                  21215647.2224
        24.7504         14.7504
  21737775.1284  -16873875.04946 -12672692.07845                  21737776.9564
        18.0004          8.0004
  20401085.2844   -4592039.48847  -3569113.66946                  20401085.7184
        26.7504         18.2504
  23143536.3624    6347267.60245   3379993.11643                  23143539.9134
        10.2504          3.0004
  22583795.0264  -11529024.24646  -8700893.39945                  22583795.5074
        15.5004          6.5004
  23021989.9254   -1254205.04146    265234.09344                  23021991.4724
        12.7504          4.2504
 00  5  2 15 20 59.9990000  0  6G 2G 4G 7G 8G 9G26
  21214171.4014   -3765493.06847  -2929356.62346                  21214172.4684
        24.7504         14.5004
  21725518.4174  -16938286.03146 -12722882.42245                  21725520.3394
        18.2504          8.0004
  20400186.3944   -4596764.70647  -3572795.65846                  20400186.6054
        26.7504         18.2504
  23150232.3314    6382457.04245   3407413.31843                  23150237.5224
        10.0004          3.0004
  22572183.3704  -11590042.81946  -8748440.34145                  22572184.4954
        15.2504          6.2504
  23023847.4254   -1244444.02646    272840.05945                  23023848.7964
        13.5004          4.5004
 00  5  2 15 21 14.9990000  0  6G 2G 4G 7G 8G 9G26
  21212707.6834   -3773184.73847  -2935350.14846                  21212708.7144
        24.5004         14.5004
  21713276.6514  -17002615.13546 -12773008.92745                  21713278.5154
        18.2504          8.2504
  20399303.5114   -4601403.61147  -3576410.39746                  20399303.8044
        26.5004         18.2504
  23156939.6754    6417701.49445   3434876.42743                  23156943.6124
        10.2504          2.7504
  22560586.6364  -11650982.04446  -8795925.43945                  22560587.4564
        15.7504          6.0004
  23025721.3394   -1234595.78046    280513.96744                  23025723.0504
        13.2504          4.0004
 00  5  2 15 21 29.9990000  0  6G 2G 4G 7G 8G 9G26
  21211255.3314   -3780817.76947  -2941297.95646                  21211256.1164
        24.5004         14.5004
  21701050.8624  -17066862.78046 -12823071.99145                  21701052.2924
        19.0004          8.2504
  20398436.9484   -4605957.23647  -3579958.68646                  20398437.6634
        26.7504         18.5004
  23163656.7454    6452999.73645   3462381.47443                  23163662.0654
        10.0004          2.7504
  22549005.3864  -11711842.32346  -8843349.00945                  22549005.7024
        15.5004          6.2504
  23027611.9484   -1224661.51846    288254.92845                  23027613.8474
        13.2504          4.5004
 00  5  2 15 21 44.9990000  0  6G 2G 4G 7G 8G 9G26
  21209813.9644   -3788391.05447  -2947199.22146                  21209814.6084
        25.0004         14.2504
  21688840.4484  -17131027.66546 -12873070.56245                  21688841.9604
        19.0004          8.0004
  20397586.8234   -4610424.76747  -3583439.87746                  20397587.3154
        26.7504         18.5004
  23170384.5584    6488352.43345   3489928.91843                  23170388.9054
        10.2504          2.7504
  22537439.3004  -11772622.37846  -8890710.08145                  22537440.4254
        15.0004          6.0004
  23029518.2844   -1214640.53546    296063.44145                  23029519.5504
        12.5004          4.7504
 00  5  2 15 21 59.9990000  0  6G 2G 4G 7G 8G 9G26
  21208384.3474   -3795905.05347  -2953054.30046                  21208385.4134
        24.5004         14.2504
  21676645.9334  -17195110.05546 -12923004.84745                  21676647.0694
        19.7504          8.2504
  20396752.6904   -4614806.96147  -3586854.57846                  20396753.0304
        26.7504         18.2504
  23177121.7844    6523758.86445   3517518.20843                  23177125.4174
        10.2504          2.7504
  22525888.3704  -11833322.54146  -8938008.89745                  22525889.1204
        15.0004          5.7504
  23031442.4254   -1204533.74646    303938.85044                  23031443.1984
        13.2504          4.2504
 00  5  2 15 22 14.9990000  0  6G 2G 4G 7G 8G 9G26
  21206965.5424   -3803360.64047  -2958863.84246                  21206966.2924
        25.2504         13.7504
  21664467.5194  -17259110.31846 -12972875.13745                  21664468.6204
        19.7504          7.7504
  20395935.0504   -4619104.99547  -3590203.71046                  20395935.2964
        26.7504         18.0004
  23183869.3004    6559217.83845   3545148.51843                  23183873.4134
         9.7504          2.5004
  22514352.7764  -11893943.42046  -8985245.92745                  22514352.5304
        15.5004          5.7504
  23033381.0894   -1194342.34846    311880.16445                  23033382.1444
        12.5004          4.5004
 00  5  2 15 22 29.9990000  0  6G 2G 4G 7G 8G 9G26
  21205558.3004   -3810756.51247  -2964626.87746                  21205559.0734
        25.7504         14.5004
  21652304.2454  -17323026.94246 -13022680.25845                  21652305.2654
        19.7504          8.5004
  20395133.4174   -4623317.86847  -3593486.47046                  20395133.8154
        27.2504         18.2504
  23190626.9954    6594730.18845   3572820.34343                  23190631.6124
         9.0004          2.7504
  22502832.3704  -11954483.49746  -9032420.00745                  22502833.1444
        15.5004          6.0004
  23035336.8554   -1184065.65746    319887.96245                  23035337.6754
        13.2504          4.5004
 00  5  2 15 22 44.9990000  0  6G 2G 4G 7G 8G 9G26
  21204162.1284   -3818093.50347  -2970344.02346                  21204162.5974
        25.5004         14.2504
  21640157.1204  -17386860.46446 -13072420.62045                  21640158.1284
        19.7504          8.7504
  20394347.7064   -4627446.70547  -3596703.74846                  20394347.9054
        26.7504         18.7504
  23197395.0584    6630294.81445   3600532.92642                  23197400.7764
         9.2504          2.2504
  22491327.2764  -12014943.40346  -9079531.60845                  22491327.3474
        15.5004          6.0004
  23037308.4874   -1173704.83346    327961.28645                  23037310.5734
        13.0004          4.7504
 00  5  2 15 22 59.9990000  0  6G 2G 4G 7G 8G 9G26
  21202776.9484   -3825372.16347  -2976015.70946                  21202777.7104
        25.2504         14.5004
  21628025.9334  -17450611.16547 -13122096.44745                  21628026.8824
        20.5004          8.7504
  20393577.7844   -4631492.28647  -3599856.15246                  20393578.0894
        27.0004         18.5004
  23204173.2374    6665910.80045   3628285.56342                  23204179.2614
         9.5004          2.0004
  22479837.3784  -12075323.42846  -9126580.96345                  22479838.2574
        15.7504          5.7504
  23039296.1984   -1163260.91646    336099.38444                  23039296.8784
        13.0004          4.2504
 00  5  2 15 23 14.9990000  0  6G 2G 4G 7G 8G 9G26
  21201403.3474   -3832590.09047  -2981640.07546                  21201403.7694
        25.7504         14.5004
  21615911.1364  -17514276.37047 -13171705.65445                  21615912.1444
        21.2504          8.7504
  20392824.2764   -4635452.61847  -3602942.14146                  20392824.8154
        26.7504         18.5004
  23210960.3084    6701580.13445   3656079.69642                  23210964.5264
         9.2504          2.0004
  22468363.1444  -12135621.12246  -9173566.17545                  22468364.2104
        15.7504          6.5004
  23041299.6124   -1152732.01746    344303.67745                  23041300.4804
        13.0004          4.5004
 00  5  2 15 23 29.9990000  0  6G 2G 4G 7G 8G 9G26
  21200041.2924   -3839748.44247  -2987218.01646                  21200041.8664
        25.2504         14.7504
  21603811.5974  -17577856.94947 -13221248.92345                  21603812.6284
        20.7504          9.0004
  20392086.5264   -4639329.22547  -3605962.87146                  20392086.9374
        26.7504         18.5004
  23217757.9254    6737301.19545   3683914.21842                  23217761.5694
         9.2504          2.0004
  22456904.2454  -12195837.43646  -9220487.97245                  22456905.6514
        15.5004          5.5004
  23043319.0654   -1142119.53746    352573.10444                  23043320.8584
        13.0004          4.2504
 00  5  2 15 23 44.9990000  0  6G 2G 4G 7G 8G 9G26
  21198690.8474   -3846845.33047  -2992748.07246                  21198691.6674
        25.0004         14.7504
  21591729.2764  -17641350.68047 -13270724.52345                  21591730.3434
        21.2504          9.2504
  20391364.8864   -4643120.34947  -3608916.99846                  20391365.0504
        26.7504         18.5004
  23224565.4644    6773075.76345   3711790.38842                  23224569.2264
         8.7504          2.2504
  22445461.0894  -12255970.14246  -9267344.61445                  22445462.0264
        15.0004          6.0004
  23045355.0424   -1131422.18446    360908.67945                  23045356.3554
        13.2504          4.7504
 00  5  2 15 23 59.9990000  0  6G 2G 4G 7G 8G 9G26
  21197351.6674   -3853882.71547  -2998231.75446                  21197352.3474
        25.2504         14.7504
  21579662.7924  -17704759.32247 -13320133.81445                  21579663.8124
        21.0004          9.7504
  20390659.5034   -4646828.36147  -3611806.36446                  20390659.8664
        26.5004         18.5004
  23231383.4254    6808901.27245   3739706.25942                  23231388.7224
         9.0004          2.0004
  22434034.0654  -12316021.08846  -9314137.54645                  22434035.2024
        15.0004          6.5004
  23047406.2374   -1120642.32146    369308.52645                  23047408.4994
        13.2504          4.5004
 00  5  2 15 24 14.9990000  0  6G 2G 4G 7G 8G 9G26
  21196023.6594   -3860860.90147  -3003669.29846                  21196024.5384
        25.0004         14.7504
  21567612.9804  -17768082.84847 -13369476.76845                  21567614.1984
        21.0004          9.7504
  20389969.5654   -4650453.81547  -3614631.39846                  20389970.0344
        26.5004         18.7504
  23238210.4334    6844777.16545   3767661.40442                  23238215.3904
         9.0004          2.0004
  22422622.0814  -12375990.31846  -9360866.79345                  22422623.4404
        15.5004          6.7504
  23049473.7694   -1109780.64146    377772.15745                  23049474.6124
        14.0004          4.5004
 00  5  2 15 24 29.9980000  0  6G 2G 4G 7G 8G 9G26
  21194707.2324   -3867778.83947  -3009059.91646                  21194708.0184
        24.7504         15.0004
  21555580.0374  -17831316.11747 -13418749.40745                  21555581.3974
        20.7504         10.2504
  20389295.5374   -4653996.27047  -3617391.75246                  20389295.8424
        26.7504         18.7504
  23245046.5374    6880701.28745   3795654.08442                  23245050.7914
         8.7504          2.2504
  22411226.7794  -12435873.04646  -9407528.64645                  22411227.4474
        15.5004          6.5004
  23051555.5294   -1098837.77746    386299.03045                  23051555.6354
        14.0004          4.5004
 00  5  2 15 24 44.9980000  0  6G 2G 4G 7G 8G 9G26
  21193401.9824   -3874638.20447  -3014404.88446                  21193402.8034
        25.0004         15.2504
  21543562.4124  -17894468.05147 -13467958.65945                  21543564.0064
        20.0004         10.0004
  20388636.9754   -4657457.12747  -3620088.53746                  20388637.4674
        26.5004         19.2504
  23251892.1544    6916677.26645   3823687.17942                  23251896.1154
         8.5004          2.2504
  22399846.5454  -12495677.67346  -9454129.63945                  22399846.8854
        15.7504          6.7504
  23053653.5614   -1087813.38346    394889.43644                  23053654.9204
        13.7504          4.2504
 00  5  2 15 24 59.9980000  0  6G 2G 4G 7G 8G 9G26
  21192107.8114   -3881437.71847  -3019703.21246                  21192108.7364
        24.5004         15.0004
  21531561.4364  -17957533.38247 -13517100.43345                  21531562.8304
        20.2504         10.2504
  20387993.8814   -4660835.70747  -3622721.19646                  20387994.3734
        26.5004         19.0004
  23258748.0294    6952703.20245   3851759.28843                  23258751.4394
         8.5004          2.5004
  22388481.8424  -12555399.34746  -9500666.00645                  22388482.3814
        15.5004          7.0004
  23055766.5764   -1076707.97946    403542.94645                  23055767.6434
        13.2504          4.7504
 00  5  2 15 25 14.9980000  0  6G 2G 4G 7G 8G 9G26
  21190825.3574   -3888177.84547  -3024955.27246                  21190826.2134
        24.5004         14.7504
  21519576.7174  -18020512.29947 -13566174.86645                  21519577.7724
        20.0004          9.7504
  20387366.5764   -4664132.84647  -3625290.40146                  20387366.9754
        26.7504         18.7504
  23265612.9284    6988778.14445   3879869.49842                  23265617.1234
         9.0004          2.2504
  22377132.8424  -12615038.31746  -9547137.91045                  22377133.6974
        15.7504          6.7504
  23057895.4124   -1065522.30346    412259.05244                  23057895.6934
        13.0004          4.2504
 00  5  2 15 25 29.9980000  0  6G 2G 4G 7G 8G 9G26
  21189554.0684   -3894857.82547  -3030160.45446                  21189554.7834
        24.5004         14.5004
  21507608.8574  -18083403.67446 -13615181.09445                  21507610.0644
        19.7504          9.2504
  20386754.9044   -4667348.03147  -3627795.73946                  20386755.3734
        26.7504         18.5004
  23272488.0374    7024902.47345   3908018.18642                  23272489.8544
         9.7504          2.0004
  22365799.8504  -12674593.63846  -9593544.65345                  22365800.8694
        15.7504          6.5004
  23060039.4594   -1054256.14646    421037.85744                  23060039.8344
        13.2504          4.0004
 00  5  2 15 25 44.9980000  0  6G 2G 4G 7G 8G 9G26
  21188294.3734   -3901477.24047  -3035318.44546                  21188295.2404
        24.2504         15.5004
  21495657.7874  -18146206.93846 -13664118.66145                  21495659.1704
        19.5004         10.0004
  20386158.6394   -4670481.03547  -3630237.05246                  20386159.1194
        26.7504         19.5004
  23279371.4984    7061076.46745   3936205.60343                  23279374.3344
        10.0004          2.5004
  22354482.8344  -12734064.66346  -9639885.70045                  22354483.9244
        15.5004          7.0004
  23062198.2644   -1042909.47046    429879.36644                  23062199.7174
        12.5004          4.2504
 00  5  2 15 25 59.9980000  0  6G 2G 4G 7G 8G 9G26
  21187046.3344   -3908036.82847  -3040429.82146                  21187047.2604
        24.5004         15.0004
  21483723.4904  -18208922.48746 -13712987.87945                  21483725.0614
        19.7504         10.2504
  20385577.9514   -4673533.02947  -3632615.23546                  20385578.4204
        26.7504         19.0004
  23286264.4984    7097298.83645   3964430.74743                  23286268.3424
         9.2504          2.5004
  22343181.9824  -12793451.95546  -9686161.50345                  22343182.5574
        15.7504          6.7504
  23064372.4824   -1031483.51745    438782.67044                  23064374.3934
        11.7504          4.0004
 00  5  2 15 26 14.9980000  0  6G 2G 4G 7G 8G 9G26
  21185809.7724   -3914535.31447  -3045493.58746                  21185810.6864
        24.2504         15.5004
  21471806.2014  -18271548.67346 -13761787.45845                  21471807.4084
        19.7504         10.0004
  20385012.7644   -4676502.94147  -3634929.46046                  20385012.9984
        27.2504         19.5004
  23293166.6474    7133570.50745   3992694.20543                  23293170.4324
         9.0004          2.5004
  22331896.8114  -12852754.01146  -9732370.88645                  22331898.0184
        15.5004          7.0004
  23066562.1074   -1019977.38646    447748.45944                  23066563.8894
        12.0004          4.2504
 00  5  2 15 26 29.9980000  0  6G 2G 4G 7G 8G 9G26
  21184584.6784   -3920973.16847  -3050510.11346                  21184585.9554
        23.7504         15.2504
  21459905.3344  -18334085.75246 -13810517.61145                  21459906.7524
        19.2504         10.2504
  20384462.9044   -4679391.63747  -3637180.39146                  20384463.1624
        27.0004         19.5004
  23300078.4674    7169890.67745   4020995.54242                  23300083.1434
         9.0004          2.2504
  22320628.6544  -12911971.01846  -9778513.99945                  22320629.4514
        16.2504          7.0004
  23068766.9754   -1008392.04746    456775.95844                  23068769.6704
        12.0004          4.2504
 00  5  2 15 26 44.9980000  0  6G 2G 4G 7G 8G 9G26
  21183371.2404   -3927349.90747  -3055479.00746                  21183372.3304
        24.2504         15.7504
  21448022.2874  -18396533.07846 -13859177.82645                  21448023.7524
        19.7504          9.7504
  20383928.7794   -4682198.95147  -3639367.91746                  20383929.1314
        26.7504         19.2504
  23306999.3114    7206259.43845   4049334.70342                  23307004.8774
         9.0004          2.0004
  22309376.0614  -12971102.31846  -9824590.33245                  22309376.9754
        16.5004          7.2504
  23070986.4434    -996727.41245    465865.25044                  23070988.5414
        11.2504          4.0004
 00  5  2 15 26 59.9980000  0  6G 2G 4G 7G 8G 9G26
  21182169.2724   -3933665.89647  -3060400.57546                  21182170.3974
        24.2504         15.0004
  21436156.1154  -18458890.49847 -13907767.98345                  21436157.8384
        20.2504          9.7504
  20383409.9904   -4684925.48747  -3641492.49946                  20383410.3304
        27.0004         18.7504
  23313929.0764    7242676.13045   4077711.24142                  23313933.0724
         9.0004          2.0004
  22298140.1314  -13030148.15446  -9870600.06745                  22298140.7174
        16.5004          7.0004
  23073220.3894    -984984.34745    475015.63544                  23073222.6044
        10.5004          3.7504
 00  5  2 15 27 14.9980000  0  6G 2G 4G 7G 8G 9G26
  21180978.8574   -3939921.80847  -3065275.31846                  21180979.8074
        24.5004         14.5004
  21424306.7404  -18521158.54846 -13956288.49645                  21424308.0414
        19.7504         10.0004
  20382906.3344   -4687572.23847  -3643554.90946                  20382906.6154
        27.0004         18.5004
  23320868.2094    7279139.59945   4106124.19842                  23320871.6784
         9.2504          2.2504
  22286920.1624  -13089109.00646  -9916543.57245                  22286921.1004
        16.5004          7.0004
  23075470.3654    -973164.01745    484226.25544                  23075471.8424
        11.2504          4.0004
 00  5  2 15 27 29.9980000  0  6G 2G 4G 7G 8G 9G26
  21179800.1934   -3946116.39047  -3070102.27546                  21179800.8504
        24.2504         14.5004
  21412474.8344  -18583335.70246 -14004738.19445                  21412476.1114
        19.7504         10.0004
  20382418.0924   -4690138.29547  -3645554.44646                  20382418.4554
        27.0004         19.0004
  23327816.2954    7315650.75245   4134574.32243                  23327819.5414
         9.7504          2.7504
  22275716.8184  -13147983.43546  -9962419.74145                  22275718.2014
        16.7504          6.7504
  23077735.2094    -961265.49746    493497.78044                  23077736.7914
        12.5004          4.2504
 00  5  2 15 27 44.9980000  0  6G 2G 4G 7G 8G 9G26
  21178633.1704   -3952250.21047  -3074881.89046                  21178634.1894
        24.2504         14.7504
  21400660.1074  -18645422.14847 -14053117.21345                  21400661.6664
        20.5004          9.7504
  20381944.7404   -4692624.53647  -3647491.77746                  20381944.7644
        27.0004         19.0004
  23334772.6544    7352208.81145   4163060.97343                  23334775.4904
         9.7504          2.5004
  22264529.9124  -13206771.59646 -10008228.68445                  22264530.7444
        16.7504          7.2504
  23080013.7254    -949289.80446    502829.46045                  23080014.6744
        12.2504          4.5004
 00  5  2 15 27 59.9980000  0  6G 2G 4G 7G 8G 9G26
  21177477.0924   -3958323.19747  -3079614.09546                  21177478.2174
        24.2504         14.2504
  21388862.8574  -18707417.64047 -14101425.34445                  21388864.0184
        20.5004         10.2504
  20381487.0064   -4695031.10547  -3649367.04446                  20381487.3344
        27.0004         18.7504
  23341738.5374    7388813.28545   4191583.83743                  23341741.6434
        10.2504          2.5004
  22253359.1234  -13265473.30446 -10053970.26745                  22253359.7914
        16.5004          7.2504
  23082307.3894    -937237.40846    512220.87745                  23082308.7834
        12.2504          4.7504
 00  5  2 15 28 14.9980000  0  6G 2G 4G 7G 8G 9G26
  21176332.9044   -3964336.96947  -3084300.16246                  21176333.8424
        24.2504         14.7504
  21377082.4674  -18769323.44347 -14149663.59445                  21377083.5924
        21.0004         10.0004
  20381043.7484   -4697359.99647  -3651181.76146                  20381044.1584
        27.0004         19.0004
  23348713.1234    7425462.28345   4220141.33843                  23348717.3304
        10.7504          3.0004
  22242204.7564  -13324090.01546 -10099645.61045                  22242205.1894
        16.5004          7.0004
  23084615.4284    -925110.32646    521670.52945                  23084617.9244
        12.5004          4.7504
 00  5  2 15 28 29.9980000  0  6G 2G 4G 7G 8G 9G26
  21175200.0764   -3970289.26847  -3088938.33046                  21175200.8734
        24.2504         14.5004
  21365319.6394  -18831137.08747 -14197830.04945                  21365321.1274
        20.7504         10.5004
  20380615.7174   -4699609.20947  -3652934.40646                  20380616.2914
        26.7504         19.2504
  23355696.1934    7462157.64145   4248734.99443                  23355700.6934
        11.5004          2.7504
  22231066.9514  -13382619.20846 -10145252.78545                  22231068.1584
        16.7504          7.2504
  23086937.2484    -912906.75745    531179.75045                  23086940.4244
        11.5004          4.5004
 00  5  2 15 28 44.9980000  0  6G 2G 4G 7G 8G 9G26
  21174079.5374   -3976178.97247  -3093527.71746                  21174080.4394
        24.2504         14.5004
  21353574.8974  -18892857.11247 -14245923.53445                  21353575.9394
        21.0004         10.7504
  20380203.0534   -4701777.99147  -3654624.37246                  20380203.5224
        26.7504         19.2504
  23362688.1704    7498900.18045   4277365.43343                  23362691.2524
        11.5004          3.0004
  22219946.4044  -13441059.65146 -10190790.77545                  22219947.4004
        17.0004          7.5004
  23089274.4434    -900626.00445    540749.13844                  23089276.8464
        11.7504          4.2504
 00  5  2 15 28 59.9980000  0  6G 2G 4G 7G 8G 9G26
  21172970.1704   -3982007.97747  -3098069.82246                  21172970.9674
        24.5004         15.5004
  21341847.7484  -18954485.19747 -14293945.38545                  21341849.2254
        21.2504         11.0004
  20379805.1234   -4703868.39447  -3656253.25946                  20379805.6274
        26.2504         19.5004
  23369688.4284    7535687.63545   4306030.85743                  23369693.1504
        11.5004          2.5004
  22208842.1314  -13499412.96046 -10236260.87845                  22208842.7404
        16.7504          7.2504
  23091625.4204    -888270.32145    550376.90745                  23091627.0724
        11.7504          4.5004
 00  5  2 15 29 14.9980000  0  6G 2G 4G 7G 8G 9G26
  21171872.2254   -3987776.62547  -3102564.87846                  21171872.9634
        24.0004         14.5004
  21330137.4514  -19016021.32847 -14341895.58145                  21330139.0804
        21.7504         10.7504
  20379422.1784   -4705881.18247  -3657821.67746                  20379422.6474
        26.7504         19.0004
  23376697.0924    7572519.16945   4334730.64543                  23376701.9794
        11.0004          2.7504
  22197754.1474  -13557679.29146 -10281663.20645                  22197755.1544
        17.0004          7.5004
  23093991.1864    -875840.63045    560062.33145                  23093992.9904
        11.7504          4.7504
 00  5  2 15 29 29.9980000  0  6G 2G 4G 7G 8G 9G26
  21170785.8974   -3993485.91047  -3107013.68846                  21170786.7294
        24.0004         13.7504
  21318444.9044  -19077466.33547 -14389774.76745                  21318446.0294
        21.7504         10.5004
  20379053.9124   -4707817.61747  -3659330.59446                  20379054.3574
        26.5004         18.7504
  23383714.5374    7609393.52045   4363463.76543                  23383719.4124
        11.0004          2.5004
  22186683.0924  -13615859.42446 -10326998.35845                  22186683.4324
        17.0004          7.2504
  23096369.9984    -863338.35345    569804.31845                  23096372.4244
        11.5004          4.5004
 00  5  2 15 29 44.9980000  0  6G 2G 4G 7G 8G 9G26
  21169711.3734   -3999132.63647  -3111413.75346                  21169712.4284
        23.7504         14.7504
  21306770.2874  -19138816.66947 -14437580.19145                  21306770.8854
        22.0004         10.7504
  20378700.4674   -4709674.87547  -3660777.81346                  20378700.8774
        26.7504         19.2504
  23390739.9984    7646313.42745   4392232.37743                  23390744.9324
        10.5004          2.5004
  22175628.6474  -13673950.03546 -10372263.77145                  22175629.1744
        17.5004          7.2504
  23098763.4674    -850760.75345    579605.01245                  23098765.2724
        11.0004          4.5004
 00  5  2 15 29 59.9980000  0  7G 2G 4G 7G 8G 9G24G26
  21168648.7564   -4004717.51247  -3115765.62346                  21168649.7874
        24.2504         14.7504
  21295113.6004  -19200072.75947 -14485312.18145                  21295114.4794
        22.0004         11.0004
  20378361.8734   -4711453.89447  -3662164.06846                  20378362.4124
        26.7504         19.2504
  23397774.1704    7683278.04245   4421035.83542                  23397778.1434
        10.2504          2.2504
  22164591.4904  -13731951.56046 -10417459.75945                  22164592.0644
        17.5004          7.5004
  23868177.5684     -48515.17054
         7.2504
  23101171.5764    -838108.94945    589463.49044                  23101172.9944
        11.2504          4.2504
 00  5  2 15 30 14.9980000  0  7G 2G 4G 7G 8G 9G24G26
  21167597.7564   -4010242.00847  -3120070.44346                  21167598.6824
        24.5004         14.7504
  21283474.6154  -19261235.73647 -14532971.61045                  21283475.4364
        22.0004         11.0004
  20378037.7644   -4713156.42847  -3663490.72946                  20378038.5024
        26.7504         19.5004
  23404816.8184    7720285.30845   4449872.57442                  23404820.1584
        10.0004          2.2504
  22153570.8424  -13789865.19046 -10462587.24845                  22153571.5104
        17.7504          7.5004
  23854328.9044    -121290.06645
         8.0004
  23103592.1234    -825384.83645    599378.35644                  23103593.4364
        11.5004          3.5004
 00  5  2 15 30 29.9980000  0  7G 2G 4G 7G 8G 9G24G26
  21166557.9594   -4015706.01147  -3124328.11446                  21166558.9554
        25.0004         14.7504
  21271853.3184  -19322305.20247 -14580558.17345                  21271854.3614
        21.2504         10.7504
  20377728.3114   -4714782.68047  -3664757.94146                  20377728.8974
        27.0004         18.7504
  23411867.0614    7757335.03445   4478742.34542                  23411869.9084
        10.0004          2.0004
  22142566.6544  -13847690.65446 -10507646.03945                  22142567.0534
        17.5004          7.5004
  23840482.2794    -194060.40145
         8.5004
  23106027.0454    -812588.69645    609349.31644                  23106028.9434
        11.0004          3.7504
 00  5  2 15 30 44.9980000  0  7G 2G 4G 7G 8G 9G24G26
  21165529.8654   -4021107.98447  -3128537.45346                  21165530.7564
        24.5004         14.7504
  21260250.3344  -19383279.51347 -14628070.58845                  21260251.3304
        21.7504         11.0004
  20377433.8184   -4716331.51247  -3665964.83946                  20377434.2754
        27.0004         19.0004
  23418925.5764    7794428.39545   4507646.08943                  23418930.9324
        10.0004          2.5004
  22131580.2404  -13905426.27846 -10552634.83545                  22131580.8854
        17.5004          8.0004
  23826634.6474    -266824.37145
         8.5004
  23108476.0454    -799719.64045    619377.12744                  23108478.4004
        11.0004          3.7504
 00  5  2 15 30 59.9980000  0  7G 2G 4G 7G 8G 9G24G26
  21164513.9124   -4026446.90047  -3132697.65446                  21164514.8974
        24.2504         14.7504
  21248665.7564  -19444157.33747 -14675507.82645                  21248667.1504
        22.0004         11.0004
  20377153.7724   -4717802.22147  -3667110.85246                  20377154.1824
        26.7504         19.2504
  23425992.3734    7831565.93545   4536584.37342                  23425997.0614
         9.5004          2.0004
  22120611.0144  -13963070.93346 -10597552.71945                  22120611.3654
        17.5004          7.7504
  23812789.6864    -339580.76245
         7.5004
  23110939.2324    -786776.99145    629462.28844                  23110939.7254
        10.5004          3.7504
 00  5  2 15 31 14.9980000  0  7G 2G 4G 7G 8G 9G24G26
  21163509.3894   -4031725.97347  -3136811.23346                  21163510.5844
        24.2504         14.5004
  21237098.3734  -19504941.56647 -14722872.12445                  21237099.5454
        21.2504         11.2504
  20376888.0684   -4719198.20847  -3668198.64146                  20376888.5494
        27.0004         19.2504
  23433067.2094    7868744.12845   4565554.21442                  23433070.9714
         9.0004          2.0004
  22109658.1624  -14020627.51846 -10642402.00945                  22109658.7014
        17.7504          7.5004
  23798944.6784    -412332.61444
         6.5004
  23113415.4204    -773764.39445    639601.89943                  23113417.3304
        10.0004          3.2504
 00  5  2 15 31 29.9980000  0  7G 2G 4G 7G 8G 9G24G26
  21162516.5454   -4036943.24547  -3140876.65446                  21162517.4824
        24.5004         14.5004
  21225549.9594  -19565630.02147 -14770161.79545                  21225551.2014
        21.2504         11.0004
  20376637.0294   -4720517.87947  -3669226.96546                  20376637.2994
        27.5004         19.0004
  23440150.0764    7905964.64845   4594557.13941                  23440152.1624
         8.5004          1.2504
  22098722.3734  -14078093.82546 -10687180.94045                  22098722.7724
        17.7504          7.7504
  23785101.8264    -485077.66743    -49122.24851                  23785107.9434
         5.7504          1.2504
  23115905.0844    -760680.38645    649797.18744                  23115907.0294
        10.7504          3.5004
 00  5  2 15 31 44.9980000  0  7G 2G 4G 7G 8G 9G24G26
  21161535.7174   -4042098.36747  -3144893.65746                  21161536.6194
        25.0004         14.5004
  21214019.8184  -19626221.97147 -14817376.27545                  21214021.2484
        22.2504         11.0004
  20376400.4984   -4721761.13847  -3670195.75146                  20376400.8384
        27.2504         18.7504
  23447241.0614    7943227.44345   4623592.91542                  23447243.1114
         8.2504          1.5004
  22087804.6314  -14135469.29146 -10731889.07945                  22087804.6894
        18.0004          7.7504
  23771259.9044    -557815.33143   -105800.75941                  23771270.0924
         5.5004          1.0004
  23118409.1394    -747525.07845    660048.04744                  23118411.1194
        10.7504          3.5004
 00  5  2 15 31 59.9980000  0  7G 2G 4G 7G 8G 9G24G26
  21160566.2874   -4047192.11147  -3148862.82046                  21160567.0144
        24.5004         14.0004
  21202507.9284  -19686718.04347 -14864516.02545                  21202509.1474
        22.7504         11.2504
  20376178.1864   -4722929.09847  -3671105.85946                  20376178.5494
        26.7504         19.2504
  23454340.4284    7980531.26345   4652660.69241                  23454343.3224
         8.2504          1.2504
  22076903.4904  -14192754.54846 -10776526.93645                  22076903.5724
        18.0004          7.7504
  23757419.7254    -630546.09143   -162473.82141                  23757426.3464
         5.7504          1.0004
  23120925.4904    -734299.70645    670353.47543                  23120928.1154
        11.0004          3.2504
 00  5  2 15 32 14.9980000  0  7G 2G 4G 7G 8G 9G24G26
  21159608.9904   -4052223.69547  -3152783.54346                  21159609.6824
        24.5004         14.2504
  21191014.0764  -19747116.96147 -14911580.09345                  21191015.1434
        22.7504         11.7504
  20375970.3734   -4724021.19647  -3671956.85246                  20375970.9004
        27.0004         19.0004
  23461446.9284    8017876.72045   4681760.92542                  23461449.6934
         8.0004          1.5004
  22066019.6544  -14249948.57046 -10821093.70445                  22066020.0184
        18.2504          7.7504
  23743580.9204    -703268.95444   -219140.88842                  23743589.7014
         6.2504          1.5004
  23123455.6474    -721003.85345    680713.83444                  23123458.6114
        11.0004          3.5004
 00  5  2 15 32 29.9980000  0  7G 2G 4G 7G 8G 9G24G26
  21158663.1934   -4057192.88747  -3156655.65246                  21158664.2134
        24.0004         13.5004
  21179539.0924  -19807418.41147 -14958568.20345                  21179540.2294
        22.5004         11.2504
  20375777.0224   -4725037.61947  -3672748.88046                  20375777.4674
        27.0004         18.2504
  23468561.6864    8055263.47745   4710893.31542                  23468564.7684
         7.7504          2.0004
  22055153.6074  -14307051.01546 -10865589.09845                  22055153.4674
        19.0004          7.7504
  23729744.1314    -775983.48944   -275801.41841                  23729752.6784
         6.2504          1.2504
  23125999.0374    -707637.80845    691128.89144                  23126002.9164
        11.2504          3.5004
 00  5  2 15 32 44.9980000  0  7G 2G 4G 7G 8G 9G24G26
  21157729.2564   -4062100.93047  -3160480.12546                  21157730.3224
        24.0004         13.5004
  21168082.7564  -19867623.33947 -15005481.10845                  21168083.7754
        23.0004         11.5004
  20375597.7404   -4725979.84847  -3673483.09346                  20375598.3144
        27.2504         18.0004
  23475683.9364    8092689.97345   4740056.70542                  23475684.6624
         7.7504          1.5004
  22044304.3734  -14364062.90946 -10910013.93245                  22044304.1624
        19.0004          8.0004
  23715908.3974    -848690.59644   -332456.03441                  23715915.2684
         6.2504          1.0004
  23128555.6154    -694203.21745    701597.37544                  23128559.1314
        11.5004          3.5004
 00  5  2 15 32 59.9980000  0  7G 2G 4G 7G 8G 9G24G26
  21156807.0294   -4066948.08547  -3164257.13546                  21156807.7564
        24.2504         13.7504
  21156644.6474  -19927731.57947 -15052318.66045                  21156645.2444
        23.7504         11.5004
  20375432.4824   -4726848.37247  -3674159.86746                  20375432.8694
        27.0004         18.7504
  23482813.2094    8130155.72745   4769250.58642                  23482817.7794
         7.5004          1.7504
  22033472.8574  -14420984.22546 -10954368.20345                  22033472.7524
        18.7504          7.7504
  23702073.4754    -921390.31044   -389105.00542                  23702080.9904
         6.7504          1.5004
  23131125.2174    -680700.76545    712118.71744                  23131126.4714
        11.5004          3.7504
 00  5  2 15 33 14.9980000  0  7G 2G 4G 7G 8G 9G24G26
  21155896.5144   -4071733.22447  -3167985.83146                  21155897.2754
        24.5004         13.7504
  21145224.8574  -19987741.96147 -15099079.97846                  21145225.6314
        23.7504         12.0004
  20375281.3344   -4727642.47547  -3674778.66446                  20375281.9434
        27.0004         19.0004
  23489950.4594    8167661.39145   4798475.70842                  23489953.0374
         7.5004          1.7504
  22022658.5294  -14477813.61946 -10998650.83545                  22022658.3184
        18.7504          7.7504
  23688241.4754    -994081.35044   -445747.20642                  23688249.6584
         6.2504          1.5004
  23133708.0614    -667129.78146    722693.47444                  23133709.7254
        12.0004          4.0004
 00  5  2 15 33 29.9980000  0  7G 2G 4G 7G 8G 9G24G26
  21154997.5294   -4076456.66847  -3171666.45746                  21154998.2564
        24.5004         13.7504
  21133823.5844  -20047654.46747 -15145765.02246                  21133824.4864
        23.0004         12.0004
  20375144.1234   -4728362.88547  -3675340.02746                  20375144.6394
        26.7504         18.7504
  23497094.9904    8205206.18845   4827731.23342                  23497099.8544
         7.7504          1.5004
  22011861.5224  -14534551.30946 -11042862.01945                  22011861.4754
        18.7504          8.5004
  23674409.9364   -1066763.87344   -502382.75041                  23674412.9004
         6.7504          1.0004
  23136303.1154    -653491.15245    733320.91344                  23136305.3184
        11.5004          4.0004
 00  5  2 15 33 44.9980000  0  7G 2G 4G 7G 8G 9G24G26
  21154110.3574   -4081118.73247  -3175299.24846                  21154111.2954
        24.2504         14.0004
  21122441.3814  -20107469.11347 -15192373.79846                  21122442.2724
        23.0004         12.0004
  20375021.0924   -4729010.07747  -3675844.34146                  20375021.5844
        27.0004         19.2504
  23504246.9434    8242789.59245   4857016.83242                  23504251.3734
         8.0004          1.5004
  22001082.1474  -14591197.31246 -11087001.74345                  22001082.5224
        18.7504          8.0004
  23660580.6314   -1139437.76345   -559011.51341                  23660587.4044
         7.7504          1.2504
  23138911.3504    -639785.56546    744000.57044                  23138913.1194
        12.0004          3.7504
 00  5  2 15 33 59.9980000  0  7G 2G 4G 7G 8G 9G24G26
  21153235.6394   -4085716.18947  -3178881.70446                  21153236.6004
        23.7504         14.0004
  21111078.5064  -20167182.32847 -15238903.55045                  21111079.4674
        23.0004         11.5004
  20374912.3264   -4729581.09447  -3676289.29346                  20374912.7604
        27.2504         19.2504
  23511407.1624    8280414.36045   4886334.67442                  23511413.0104
         8.5004          1.5004
  21990320.8114  -14647748.23246 -11131067.38545                  21990321.2214
        18.5004          8.5004
  23646753.0684   -1212099.72745   -615631.12742                  23646760.6544
         7.7504          2.0004
  23141532.7724    -626010.18846    754734.58144                  23141534.0844
        12.5004          4.0004
 00  5  2 15 34 14.9980000  0  7G 2G 4G 7G 8G 9G24G26
  21152372.7724   -4090250.33147  -3182414.81546                  21152373.6394
        24.2504         14.0004
  21099734.5064  -20226795.17847 -15285355.10245                  21099735.5494
        23.0004         11.2504
  20374818.1004   -4730077.49247  -3676676.11046                  20374818.6624
        27.2504         19.2504
  23518574.8424    8318078.88545   4915683.54142                  23518580.6194
         8.5004          1.7504
  21979577.5144  -14704205.12546 -11175059.76545                  21979577.7724
        18.5004          8.0004
  23632927.6394   -1284750.57944   -672242.02242                  23632935.0254
         7.2504          2.0004
  23144167.3574    -612166.77646    765521.58544                  23144169.6314
        12.5004          3.5004
 00  5  2 15 34 29.9980000  0  7G 2G 4G 7G 8G 9G24G26
  21151521.9204   -4094722.09447  -3185899.31846                  21151522.6584
        24.7504         13.7504
  21088409.6624  -20286308.33347 -15331728.96145                  21088410.3544
        23.2504         11.5004
  20374737.4364   -4730500.56347  -3677005.78746                  20374738.0684
        27.0004         18.5004
  23525748.9674    8355781.89645   4945062.38742                  23525754.4514
         7.7504          1.7504
  21968851.8424  -14760568.78046 -11218979.48945                  21968852.1004
        18.7504          8.2504
  23619104.7484   -1357391.10845   -728844.81042                  23619110.9124
         8.0004          1.7504
  23146814.2794    -598256.78446    776360.52644                  23146816.4124
        12.2504          3.5004
 00  5  2 15 34 44.9980000  0  7G 2G 4G 7G 8G 9G24G26
  21150682.8424   -4099131.81247  -3189335.47246                  21150683.6044
        24.2504         14.2504
  21077103.2014  -20345721.84747 -15378025.17845                  21077103.8464
        23.0004         11.0004
  20374670.8894   -4730851.01247  -3677278.87146                  20374671.4634
        27.2504         18.7504
  23532930.8114    8393522.54545   4974470.52942                  23532935.5804
         7.5004          1.7504
  21958143.9434  -14816839.29646 -11262826.62545                  21958144.4594
        18.7504          8.2504
  23605283.6544   -1430021.47245   -785439.77342                  23605289.2324
         8.2504          1.5004
  23149473.3184    -584280.94046    787250.74343                  23149474.5254
        12.0004          3.2504
 00  5  2 15 34 59.9980000  0  7G 2G 4G 7G 8G 9G24G26
  21149855.0454   -4103479.77047  -3192723.50346                  21149855.8654
        24.2504         13.5004
  21065816.1544  -20405035.70947 -15424243.74645                  21065816.8814
        22.7504         11.0004
  20374617.7644   -4731129.35647  -3677495.76946                  20374618.3264
        27.2504         19.2504
  23540119.9284    8431300.27345   5003907.51842                  23540126.3734
         8.0004          1.5004
  21947453.7954  -14873016.82646 -11306601.31545                  21947454.4634
        18.5004          8.2504
  23591463.4434   -1502641.77645   -842026.89142                  23591471.6154
         8.0004          1.7504
  23152145.8344    -570240.08346    798191.62244                  23152146.2214
        12.5004          3.5004
 00  5  2 15 35 14.9980000  0  7G 2G 4G 7G 8G 9G24G26
  21149040.1864   -4107763.48247  -3196061.47846                  21149040.9944
        24.5004         14.2504
  21054548.5614  -20464247.19947 -15470382.53845                  21054549.2404
        22.2504         11.2504
  20374579.1394   -4731333.41747  -3677654.78846                  20374579.6434
        27.2504         19.5004
  23547317.0374    8469117.19245   5033375.15642                  23547320.8694
         8.5004          1.7504
  21936781.8654  -14929098.56246 -11350301.35745                  21936782.6154
        18.7504          8.2504
  23577647.6864   -1575249.10745   -898603.83042                  23577654.2254
         9.0004          1.5004
  23154830.1784    -556132.09146    809184.83344                  23154831.5494
        12.2504          3.7504
 00  5  2 15 35 29.9980000  0  7G 2G 4G 7G 8G 9G24G26
  21148237.0534   -4111983.81747  -3199350.06946                  21148238.0024
        24.2504         14.2504
  21043300.3114  -20523357.10547 -15516442.18645                  21043300.9204
        22.0004         11.0004
  20374554.1234   -4731464.45147  -3677756.89846                  20374554.4284
        27.2504         19.0004
  23554520.0454    8506972.02845   5062872.28842                  23554523.0804
         8.2504          1.7504
  21926128.0684  -14985085.22446 -11393927.31445                  21926128.4674
        19.2504          8.5004
  23563833.4124   -1647844.32745   -955171.42742                  23563841.1624
         9.2504          1.7504
  23157528.0684    -541958.35646    820229.23744                  23157528.6314
        13.0004          3.5004
 00  5  2 15 35 44.9980000  0  7G 2G 4G 7G 8G 9G24G26
  21147445.6394   -4116143.26047  -3202591.20646                  21147446.6354
        24.5004         14.2504
  21032070.9514  -20582367.45147 -15562424.23945                  21032071.5144
        22.0004         11.5004
  20374542.5374   -4731525.22447  -3677804.25846                  20374543.0064
        27.0004         19.0004
  23561730.0534    8544861.94145   5092396.73442                  23561734.6004
         7.5004          1.7504
  21915491.3184  -15040979.10946 -11437480.97745                  21915492.0224
        18.5004          8.5004
  23550020.3894   -1720429.64445  -1011731.21042                  23550027.4474
         8.0004          1.7504
  23160236.7404    -527721.84146    831322.59144                  23160238.9674
        12.5004          3.5004
 00  5  2 15 35 59.9980000  0  7G 2G 4G 7G 8G 9G24G26
  21146666.1154   -4120239.54347  -3205783.12046                  21146666.9124
        25.5004         14.5004
  21020861.0534  -20641275.93147 -15608326.91445                  21020861.7214
        22.0004         11.7504
  20374544.5614   -4731513.70347  -3677795.29046                  20374545.0064
        27.0004         19.0004
  23568948.2644    8582788.72245   5121949.95442                  23568951.2754
         7.5004          1.7504
  21904873.2254  -15096777.70846 -11480960.39045                  21904874.2324
        18.7504          8.7504
  23536210.1704   -1793002.42945  -1068281.28942                  23536217.8264
         9.0004          1.5004
  23162958.1474    -513420.70446    842466.29944                  23162959.4714
        12.5004          3.7504
 00  5  2 15 36 14.9980000  0  7G 2G 4G 7G 8G 9G24G26
  21145898.7484   -4124272.44247  -3208925.65146                  21145899.6044
        25.0004         14.2504
  21009670.5764  -20700081.77247 -15654149.62245                  21009671.3264
        21.7504         11.5004
  20374560.4284   -4731430.01047  -3677730.08146                  20374560.6504
        27.0004         19.0004
  23576172.9904    8620752.26244   5151531.72742                  23576177.1504
         7.0004          2.0004
  21894273.5614  -15152480.64346 -11524365.25645                  21894274.1234
        18.5004          8.5004
  23522402.2254   -1865562.27445  -1124821.29442                  23522409.5184
         8.7504          1.7504
  23165692.1784    -499055.18146    853660.17243                  23165693.2094
        12.7504          3.2504
 00  5  2 15 36 29.9980000  0  7G 2G 4G 7G 8G 9G24G26
  21145143.3344   -4128241.97347  -3212018.80346                  21145144.3774
        25.0004         14.0004
  20998499.8504  -20758784.80947 -15699892.21046                  20998500.7054
        22.7504         12.2504
  20374590.2954   -4731274.46247  -3677608.88346                  20374590.8114
        27.2504         18.2504
  23583403.0534    8658752.29244   5181141.99942                  23583408.8304
         7.0004          1.7504
  21883691.8344  -15208087.74646 -11567695.46545                  21883692.5374
        18.2504          8.7504
  23508597.5684   -1938108.92445  -1181350.98842                  23508605.5764
         8.5004          1.7504
  23168437.7324    -484625.73246    864903.89043                  23168437.8854
        12.5004          3.2504
 00  5  2 15 36 44.9980000  0  7G 2G 4G 7G 8G 9G24G26
  21144399.9594   -4132148.01647  -3215062.48846                  21144400.8384
        24.5004         13.7504
  20987348.5294  -20817384.82447 -15745554.52546                  20987349.3034
        22.7504         12.0004
  20374633.5294   -4731047.35047  -3677431.91646                  20374633.9754
        27.0004         18.2504
  23590641.4124    8696788.40144   5210780.31741                  23590650.7094
         7.0004          1.2504
  21873128.1624  -15263598.76746 -11610950.79345                  21873128.9244
        18.7504          8.5004
  23494794.1934   -2010642.09145  -1237870.19942                  23494801.6744
         8.0004          1.5004
  23171195.3814    -470132.74146    876197.04943                  23171197.3734
        12.2504          3.2504
 00  5  2 15 36 59.9980000  0  7G 2G 4G 7G 8G 9G24G26
  21143668.7324   -4135991.14547  -3218057.15446                  21143669.5644
        24.7504         13.5004
  20976217.0224  -20875881.97747 -15791136.69446                  20976217.7254
        23.5004         12.2504
  20374690.0924   -4730749.42747  -3677199.77646                  20374690.6194
        27.0004         18.0004
  23597886.8654    8734859.82344   5240446.32041                  23597895.2254
         7.2504          1.2504
  21862583.1704  -15319013.99846 -11654131.48445                  21862583.7564
        18.7504          8.2504
  23480994.5294   -2083162.05445  -1294379.14241                  23480999.3694
         8.2504          1.2504
  23173965.6544    -455577.15746    887539.02543                  23173968.0104
        12.2504          3.0004
 00  5  2 15 37 14.9980000  0  7G 2G 4G 7G 8G 9G24G26
  21142949.5374   -4139769.94447  -3221001.68246                  21142950.4044
        24.5004         13.5004
  20965105.2724  -20934274.62447 -15836637.42446                  20965105.9634
        23.2504         13.5004
  20374760.6394   -4730379.60147  -3676911.60846                  20374760.9434
        27.0004         19.0004
  23605138.1004    8772967.42444   5270140.34942                  23605146.9754
         7.0004          1.5004
  21852056.4824  -15374331.85246 -11697236.29545                  21852057.2214
        18.7504          8.7504
  23467196.4824   -2155667.24345  -1350876.49541                  23467200.8774
         8.2504          1.2504
  23176747.8114    -440957.99746    898930.55944                  23176749.9204
        13.2504          3.5004
 00  5  2 15 37 29.9980000  0  7G 2G 4G 7G 8G 9G24G26
  21142242.4514   -4143486.50147  -3223897.71146                  21142243.0494
        24.5004         13.5004
  20954013.1004  -20992564.55347 -15882058.12446                  20954013.8504
        24.0004         12.7504
  20374844.3424   -4729940.17747  -3676569.21146                  20374845.1274
        26.7504         18.5004
  23612397.0374    8811108.80444   5299860.74742                  23612404.2364
         7.2504          1.5004
  21841548.0844  -15429554.26746 -11740266.72945                  21841548.9164
        19.0004          9.2504
  23453402.0224   -2228159.31045  -1407363.70042                  23453405.5144
         7.5004          1.5004
  23179541.2484    -426277.88146    910369.54644                  23179542.9364
        12.2504          4.0004
 00  5  2 15 37 44.9980000  0  7G 2G 4G 7G 8G 9G24G26
  21141547.2644   -4147138.98347  -3226743.81546                  21141548.2254
        23.7504         12.7504
  20942940.8734  -21050749.59247 -15927397.08746                  20942941.6934
        24.2504         13.2504
  20374941.2954   -4729429.67347  -3676171.41646                  20374941.9394
        26.7504         18.2504
  23619661.5064    8849285.55245   5329608.71942                  23619667.6354
         7.7504          1.5004
  21831058.2564  -15484679.05846 -11783221.10145                  21831059.0414
        19.2504          9.5004
  23439609.4754   -2300636.20045  -1463839.00041                  23439615.4634
         8.2504          1.2504
  23182346.2644    -411535.31745    921857.23143                  23182347.9514
        11.2504          3.2504
 00  5  2 15 37 59.9980000  0  7G 2G 4G 7G 8G 9G24G26
  21140864.4514   -4150726.62147  -3229539.37946                  21140865.1434
        23.5004         12.5004
  20931888.7094  -21108828.75747 -15972653.54846                  20931889.5534
        24.5004         13.0004
  20375052.0064   -4728847.62647  -3675717.88546                  20375052.5334
        26.7504         18.5004
  23626933.3654    8887498.05245   5359384.50542                  23626939.8934
         7.5004          1.7504
  21820587.1074  -15539705.32746 -11826098.71245                  21820587.9514
        19.5004          8.7504
  23425821.6544   -2373097.00745  -1520301.91042                  23425828.3464
         7.7504          1.5004
  23185163.8184    -396730.13545    933393.66843                  23185166.1504
        11.7504          2.7504
 00  5  2 15 38 14.9980000  0  7G 2G 4G 7G 8G 9G24G26
  21140193.9824   -4154250.74247  -3232285.47446                  21140194.6394
        23.7504         12.2504
  20920856.5454  -21166803.17547 -16017828.38646                  20920857.2834
        24.5004         12.7504
  20375176.1074   -4728195.59847  -3675209.81446                  20375176.8694
        26.7504         18.2504
  23634211.2324    8925744.51045   5389186.81242                  23634218.1044
         7.5004          1.5004
  21810134.4754  -15594634.07946 -11868900.32045                  21810135.4594
        19.7504          9.2504
  23412035.3654   -2445542.76945  -1576752.93741                  23412039.5144
         8.2504          1.2504
  23187993.4754    -381863.92845    944977.66643                  23187995.5024
        11.7504          3.2504
 00  5  2 15 38 29.9980000  0  7G 2G 4G 7G 8G 9G24G26
  21139535.8424   -4157709.28547  -3234980.44946                  21139536.3114
        23.5004         13.2504
  20909844.6704  -21224670.41047 -16062919.71246                  20909845.4554
        23.7504         13.5004
  20375314.0144   -4727471.90647  -3674645.90446                  20375314.5184
        27.0004         19.2504
  23641496.1314    8964026.73044   5419016.94942                  23641502.9754
         7.2504          1.7504
  21799700.8894  -15649463.06546 -11911624.19245                  21799701.5224
        19.7504          9.7504
  23398251.4284   -2517971.16745  -1633190.53541                  23398257.5804
         7.7504          1.2504
  23190833.5294    -366935.19245    956610.40643                  23190835.9204
        11.0004          3.0004
 00  5  2 15 38 44.9980000  0  7G 2G 4G 7G 8G 9G24G26
  21138889.4754   -4161105.17147  -3237626.60646                  21138890.2954
        23.2504         13.7504
  20898853.0294  -21282433.27647 -16107929.70346                  20898853.8034
        24.5004         13.7504
  20375464.6154   -4726679.74247  -3674028.63746                  20375465.0144
        27.0004         19.5004
  23648788.0844    9002341.24745   5448872.26741                  23648797.7094
         7.5004          1.2504
  21789285.6864  -15704195.13046 -11954272.55045                  21789286.6234
        19.7504         10.2504
  23384472.5924   -2590384.90745  -1689616.67342                  23384481.5964
         8.2504          1.5004
  23193686.1934    -351947.34545    968289.20343                  23193688.5144
        11.0004          3.2504
 00  5  2 15 38 59.9980000  0  7G 2G 4G 7G 8G 9G24G26
  21138255.5224   -4164437.20847  -3240223.01446                  21138256.3894
        23.5004         13.2504
  20887880.9984  -21340090.23747 -16152857.17446                  20887881.7134
        24.7504         13.7504
  20375628.5454   -4725818.23147  -3673357.34146                  20375629.2254
        27.0004         19.7504
  23656084.8654    9040689.06744   5478753.53942                  23656091.3464
         7.0004          1.7504
  21778889.1394  -15758828.91146 -11996844.32245                  21778890.1234
        19.5004          9.7504
  23370694.4124   -2662782.51745  -1746030.19741                  23370698.2794
         7.7504          1.2504
  23196549.5064    -336899.57545    980014.70244                  23196551.1004
        10.7504          3.5004
 00  5  2 15 39 14.9980000  0  7G 2G 4G 7G 8G 9G24G26
  21137633.8894   -4167703.86147  -3242768.48046                  21137635.1544
        23.0004         12.7504
  20876929.7724  -21397639.53647 -16197700.75946                  20876930.5804
        24.7504         13.5004
  20375806.0294   -4724886.13647  -3672631.03646                  20375806.3224
        27.5004         19.5004
  23663389.1704    9079071.16444   5508661.47341                  23663397.5884
         6.7504          1.0004
  21768511.7094  -15813362.67046 -12039338.13545                  21768512.2604
        19.5004         10.0004
  23356921.1394   -2735162.25645  -1802429.90141                  23356926.0024
         7.7504          1.2504
  23199424.3814    -321790.94445    991787.61444                  23199425.7404
        10.7504          3.5004
 00  5  2 15 39 29.9980000  0  7G 2G 4G 7G 8G 9G24G26
  21137024.8264   -4170904.87647  -3245262.78846                  21137025.8574
        23.5004         13.0004
  20865999.3034  -21455080.68347 -16242460.06746                  20866000.0184
        24.5004         13.7504
  20375996.7174   -4723883.55547  -3671849.81346                  20375997.1624
        27.5004         19.2504
  23670699.7644    9117487.43544   5538596.11741                  23670705.3544
         7.0004          1.2504
  21758153.5684  -15867796.05046 -12081753.74545                  21758153.8384
        19.7504          9.2504
  23343151.5614   -2807523.64944  -1858815.28742                  23343154.3614
         7.2504          1.5004
  23202310.8574    -306621.55945   1003607.85743                  23202313.3544
         9.7504          3.0004
 00  5  2 15 39 44.9980000  0  7G 2G 4G 7G 8G 9G24G26
  21136428.1474   -4174041.27447  -3247706.74646                  21136429.2604
        23.2504         12.7504
  20855088.9124  -21512414.44947 -16287135.69446                  20855089.7324
        25.0004         13.0004
  20376200.7564   -4722811.72247  -3671014.63046                  20376201.2604
        27.2504         18.5004
  23678015.5144    9155936.57644   5568556.28441                  23678022.3114
         7.2504          0.7504
  21747814.1544  -15922129.72247 -12124091.66745                  21747814.8814
        20.0004          9.5004
  23329385.2564   -2879867.33845  -1915186.80742                  23329390.8464
         7.7504          1.5004
  23205209.0684    -291392.88645   1015474.31243                  23205212.0104
         9.5004          2.7504
 00  5  2 15 39 59.9980000  0  7G 2G 4G 7G 8G 9G24G26
  21135843.7644   -4177112.00947  -3250099.53946                  21135844.7134
        23.7504         14.0004
  20844199.3734  -21569639.40547 -16331726.54046                  20844200.0884
        24.5004         14.7504
  20376418.1004   -4721669.87047  -3670124.88446                  20376418.6974
        27.2504         20.5004
  23685339.6934    9194419.36945   5598542.74941                  23685343.7364
         7.5004          1.0004
  21737493.9754  -15976362.52346 -12166350.98345                  21737494.8304
        19.7504         10.5004
  23315621.4434   -2952192.17645  -1971543.69642                  23315628.3504
         7.7504          1.7504
  23208118.0224    -276104.35345   1027387.38343                  23208120.2254
         9.7504          3.0004
 00  5  2 15 40 14.9980000  0  7G 2G 4G 7G 8G 9G24G26
  21135272.1004   -4180116.54147  -3252440.75446                  21135272.8614
        24.2504         14.0004
  20833330.4904  -21626754.82147 -16376232.03346                  20833331.1704
        23.7504         14.0004
  20376648.7954   -4720457.82047  -3669180.43346                  20376649.2294
        27.0004         20.2504
  23692668.6784    9232935.85445   5628555.41242                  23692674.2094
         7.7504          1.7504
  21727192.7644  -16030493.68746 -12208531.10045                  21727193.5144
        19.5004         10.2504
  23301862.6784   -3024497.28545  -2027885.14942                  23301869.3814
         8.2504          1.7504
  23211039.3734    -260755.88945   1039347.18443                  23211041.7294
         9.7504          3.0004
 00  5  2 15 40 29.9980000  0  7G 2G 4G 7G 8G 9G24G26
  21134712.7484   -4183057.36147  -3254732.31746                  21134713.6274
        24.7504         13.7504
  20822481.8424  -21683762.98747 -16420653.94846                  20822482.2404
        23.5004         13.5004
  20376892.2174   -4719178.33447  -3668183.44046                  20376892.7214
        27.0004         20.0004
  23700004.6074    9271483.18945   5658592.12641                  23700011.2524
         7.7504          1.2504
  21716911.0224  -16084525.44046 -12250633.74945                  21716911.9714
        19.5004         10.2504
  23288106.4594   -3096784.91145  -2084213.00742                  23288114.2444
         8.0004          2.0004
  23213970.7794    -245350.33845   1051351.49743                  23213973.4394
        10.0004          2.5004
 00  5  2 15 40 44.9980000  0  7G 2G 4G 7G 8G 9G24G26
  21134165.1544   -4185933.30247  -3256973.32946                  21134165.6704
        24.2504         13.5004
  20811654.3734  -21740662.34747 -16464991.08346                  20811655.1474
        23.7504         13.5004
  20377148.5294   -4717830.61547  -3667133.27446                  20377149.0224
        27.0004         19.7504
  23707346.1624    9310062.12545   5688653.50642                  23707353.0804
         7.7504          1.5004
  21706648.3344  -16138456.48046 -12292657.93545                  21706649.0024
        19.7504         10.2504
  23274353.9044   -3169053.64145  -2140526.18442                  23274362.1354
         7.7504          1.5004
  23216913.0454    -229887.08845   1063400.68643                  23216914.7324
         9.7504          3.0004
 00  5  2 15 40 59.9980000  0  7G 2G 4G 7G 8G 9G24G26
  21133630.3574   -4188744.11847  -3259163.58746                  21133631.1074
        24.5004         13.5004
  20800847.5924  -21797452.49447 -16509243.11146                  20800848.3304
        23.7504         13.7504
  20377418.0064   -4716414.55347  -3666029.86146                  20377418.5334
        27.0004         20.2504
  23714693.1074    9348672.53645   5718739.41142                  23714697.0224
         8.0004          1.5004
  21696404.8574  -16192286.24446 -12334603.19945                  21696405.7134
        19.5004         10.5004
  23260605.4434   -3241302.94845  -2196824.16542                  23260609.8614
         8.2504          2.0004
  23219866.6004    -214366.32245   1075494.76943                  23219868.3814
         8.5004          2.7504
 00  5  2 15 41 14.9980000  0  7G 2G 4G 7G 8G 9G24G26
  21133108.5144   -4191486.80947  -3261300.76046                  21133108.8654
        24.2504         14.0004
  20790062.2254  -21854130.15347 -16553407.49046                  20790062.7404
        23.7504         14.0004
  20377701.0294   -4714927.54247  -3664871.16646                  20377701.5104
        27.2504         19.7504
  23722047.3814    9387317.18945   5748851.89342                  23722052.8544
         8.0004          1.5004
  21686181.1544  -16246011.59046 -12376467.09245                  21686182.1044
        19.5004         10.2504
  23246860.8814   -3313529.67745  -2253104.57142                  23246867.7254
         8.0004          2.0004
  23222832.0064    -198785.48645   1087635.57343                  23222834.5494
        10.0004          3.2504
 00  5  2 15 41 29.9980000  0  7G 2G 4G 7G 8G 9G24G26
  21132599.1314   -4194164.64047  -3263387.39746                  21132599.9864
        24.5004         13.7504
  20779297.3184  -21910698.33047 -16597486.56346                  20779298.2214
        24.0004         13.7504
  20377996.9754   -4713373.11447  -3663659.92546                  20377997.5024
        27.0004         19.7504
  23729407.1704    9425992.33145   5778988.23841                  23729411.9864
         8.2504          1.2504
  21675976.9594  -16299635.59147 -12418252.02245                  21675977.8034
        20.0004         10.2504
  23233120.5374   -3385736.74245  -2309369.68443                  23233126.2794
         8.5004          2.5004
  23225807.5614    -183148.31445   1099820.36043                  23225809.3774
        10.0004          3.2504
 00  5  2 15 41 44.9980000  0  7G 2G 4G 7G 8G 9G24G26
  21132101.9824   -4196775.42247  -3265421.78946                  21132102.7564
        24.0004         13.7504
  20768554.5064  -21967154.54247 -16641478.38546                  20768554.9044
        24.5004         13.5004
  20378305.9204   -4711749.37647  -3662394.68346                  20378306.7174
        26.7504         19.5004
  23736773.0924    9464699.88645   5809149.77241                  23736781.1004
         8.2504          1.2504
  21665792.4824  -16353155.81547 -12459956.07745                  21665793.2324
        20.5004         10.5004
  23219384.3504   -3457921.77245  -2365617.55642                  23219389.2604
         9.2504          2.2504
  23228794.6544    -167453.04645   1112050.34743                  23228796.1434
        10.2504          3.2504
 00  5  2 15 41 59.9980000  0  7G 2G 4G 7G 8G 9G24G26
  21131617.4984   -4199322.00547  -3267406.16546                  21131618.6704
        24.0004         13.0004
  20757831.9824  -22023501.54547 -16685385.11846                  20757832.7564
        24.2504         13.2504
  20378627.5294   -4710059.48447  -3661077.88946                  20378628.1504
        26.7504         19.2504
  23744144.6004    9503436.55745   5839334.10642                  23744152.2914
         8.0004          1.5004
  21655627.0294  -16406574.94047 -12501581.35945                  21655627.8384
        20.7504         10.5004
  23205650.8344   -3530087.41945  -2421850.41542                  23205657.2444
         8.5004          2.2504
  23231791.5924    -151702.97345   1124323.12844                  23231792.5764
        10.2504          3.5004
 00  5  2 15 42 14.9980000  0  7G 2G 4G 7G 8G 9G24G26
  21131145.5144   -4201802.33947  -3269338.90746                  21131146.6504
        23.7504         13.2504
  20747130.3734  -22079736.91047 -16729204.85346                  20747131.3464
        24.0004         13.2504
  20378961.9594   -4708301.69747  -3659708.19246                  20378962.6154
        27.0004         19.5004
  23751521.2484    9542203.90245   5869542.28341                  23751526.5334
         8.0004          1.0004
  21645481.6784  -16459890.80647 -12543126.17445                  21645482.2174
        20.7504         10.2504
  23191922.8894   -3602231.24045  -2478066.15042                  23191928.7134
         8.7504          2.2504
  23234799.1544    -135896.53745   1136639.73843                  23234801.5804
        10.5004          3.2504
 00  5  2 15 42 29.9980000  0  7G 2G 4G 7G 8G 9G24G26
  21130686.1704   -4204216.19947  -3271219.85046                  21130687.0144
        24.2504         13.7504
  20736450.6934  -22135860.06347 -16772937.15046                  20736451.1624
        24.5004         13.5004
  20379309.4904   -4706476.14147  -3658285.69246                  20379310.1934
        27.5004         19.7504
  23758904.7954    9581001.96445   5899774.31641                  23758909.1664
         8.0004          1.2504
  21635355.3894  -16513102.99347 -12584590.20745                  21635355.9044
        20.5004         10.7504
  23178198.0844   -3674352.88045  -2534264.68643                  23178200.8974
         9.2504          2.5004
  23237818.2644    -120034.09045   1149000.04344                  23237820.2684
        11.0004          3.5004
 00  5  2 15 42 44.9980000  0  7G 2G 4G 7G 8G 9G24G26
  21130239.5374   -4206563.71347  -3273049.09646                  21130240.4164
        24.2504         13.5004
  20725792.2874  -22191871.12747 -16816582.11046                  20725792.8144
        25.2504         14.0004
  20379669.6154   -4704583.20447  -3656810.68246                  20379670.1544
        27.5004         19.5004
  23766293.9284    9619830.11145   5930029.87542                  23766298.4754
         7.5004          1.5004
  21625249.2564  -16566211.40847 -12625973.38645                  21625249.7014
        20.5004         10.5004
  23164478.1544   -3746452.19045  -2590445.82342                  23164481.4714
         9.7504          2.2504
  23240847.1234    -104116.01845   1161403.69343                  23240848.6354
        10.7504          3.0004
 00  5  2 15 42 59.9980000  0  7G 2G 4G 7G 8G 9G24G26
  21129805.4824   -4208845.31747  -3274826.98946                  21129806.4794
        24.2504         14.0004
  20715155.0764  -22247770.14947 -16860139.76546                  20715155.6044
        25.0004         13.7504
  20380042.5064   -4702623.59347  -3655283.72346                  20380042.9044
        27.0004         19.2504
  23773688.2174    9658687.67544   5960308.32541                  23773693.7014
         7.2504          1.2504
  21615162.8184  -16619216.22447 -12667275.83045                  21615163.3814
        20.5004         10.2504
  23150762.2404   -3818529.22945  -2646609.62242                  23150769.0374
         9.7504          2.0004
  23243886.7564     -88143.26845   1173849.90844                  23243888.9824
        10.7504          3.5004
 00  5  2 15 43 14.9980000  0  7G 2G 4G 7G 8G 9G24G26
  21129384.4514   -4211058.77947  -3276551.78546                  21129385.1894
        24.7504         13.7504
  20704539.5144  -22303554.60047 -16903608.14246                  20704539.8894
        25.2504         14.5004
  20380428.4204   -4700595.36747  -3653703.29346                  20380428.9594
        27.0004         19.5004
  23781088.0614    9697576.50944   5990611.16641                  23781095.4944
         7.2504          1.2504
  21605096.5684  -16672115.03347 -12708495.66945                  21605096.9204
        21.0004         10.7504
  23137050.3814   -3890581.74745  -2702754.26742                  23137056.9554
         9.0004          2.2504
  23246937.0374     -72114.14745   1186340.09643                  23246938.8544
        10.2504          3.2504
 00  5  2 15 43 29.9980000  0  7G 2G 4G 7G 8G 9G24G26
  21128975.5454   -4213205.18447  -3278224.33046                  21128976.2834
        24.0004         13.2504
  20693945.4984  -22359225.50247 -16946988.04246                  20693945.6974
        25.0004         14.5004
  20380827.2794   -4698500.00447  -3652070.54846                  20380827.9124
        27.5004         19.5004
  23788494.5144    9736495.00545   6020937.06442                  23788503.7524
         7.5004          1.7504
  21595050.3574  -16724908.78947 -12749633.65145                  21595050.7444
        21.0004         10.7504
  23123344.0144   -3962610.48645  -2758880.36342                  23123350.2604
         8.7504          2.0004
  23249998.0294     -56030.14545   1198873.05443                  23249999.0254
        11.0004          3.0004
 00  5  2 15 43 44.9980000  0  7G 2G 4G 7G 8G 9G24G26
  21128580.1474   -4215283.91647  -3279844.14046                  21128580.9434
        24.2504         13.0004
  20683373.6784  -22414781.86447 -16990278.68546                  20683374.5224
        24.5004         14.2504
  20381238.8814   -4696337.09247  -3650385.17446                  20381239.3734
        27.2504         19.5004
  23795906.2094    9775443.45344   6051286.33142                  23795915.6584
         7.2504          1.5004
  21585024.0684  -16777596.67947 -12790689.14245                  21585024.6074
        21.7504         10.5004
  23109642.1074   -4034614.57745  -2814987.28542                  23109647.9554
         9.0004          1.5004
  23253069.0534     -39891.21645   1211448.75543                  23253070.2254
        10.7504          3.2504
 00  5  2 15 43 59.9980000  0  7G 2G 4G 7G 8G 9G24G26
  21128197.6704   -4217293.94947  -3281410.41846                  21128197.9864
        24.0004         13.5004
  20672823.4284  -22470222.50747 -17033479.15546                  20672823.8974
        25.0004         14.2504
  20381663.4754   -4694106.01147  -3648646.67346                  20381663.9794
        27.5004         19.0004
  23803323.5064    9814422.56645   6081659.48342                  23803332.7684
         7.5004          1.5004
  21575018.2014  -16830177.56647 -12831661.23645                  21575018.5884
        21.7504         10.7504
  23095944.7254   -4106592.79245  -2871074.05342                  23095951.2174
         8.7504          1.7504
  23256151.0684     -23696.66445   1224067.85343                  23256154.0684
        10.2504          3.0004
 00  5  2 15 44 14.9980000  0  7G 2G 4G 7G 8G 9G24G26
  21127828.2174   -4219235.31547  -3282923.19246                  21127828.9434
        23.7504         12.0004
  20662295.5224  -22525547.02247 -17076589.13946                  20662296.0494
        25.0004         13.5004
  20382100.9674   -4691806.87947  -3646855.15446                  20382101.4004
        27.5004         17.7504
  23810746.8504    9853431.91945   6112056.25542                  23810756.0534
         7.5004          1.5004
  21565032.8034  -16882651.24447 -12872549.80945                  21565032.7684
        21.7504         10.0004
  23082252.5924   -4178544.70745  -2927140.31442                  23082256.4004
         8.2504          1.7504
  23259243.1864      -7446.96345   1236729.88143                  23259246.1744
        10.7504          2.7504
 00  5  2 15 44 29.9980000  0  7G 2G 4G 7G 8G 9G24G26
  21127470.9824   -4221111.25047  -3284384.97046                  21127471.9674
        22.7504         12.7504
  20651789.2794  -22580758.55747 -17119611.09446                  20651790.1004
        25.0004         15.0004
  20382550.9364   -4689443.29947  -3645013.40946                  20382551.2994
        27.7504         19.7504
  23818175.7404    9892468.04945   6142473.86842                  23818179.9124
         7.5004          1.5004
  21555067.2404  -16935020.66347 -12913357.14445                  21555067.1474
        21.2504         10.7504
  23068564.1784   -4250473.45545  -2983188.54542                  23068568.4324
         8.2504          2.2504
  23262345.1704       8854.22345   1249432.06143                  23262347.2444
        10.5004          3.2504
 00  5  2 15 44 44.9980000  0  7G 2G 4G 7G 8G 9G24G26
  21127126.8114   -4222920.49947  -3285794.79346                  21127128.0884
        22.2504         12.7504
  20641304.6314  -22635855.49547 -17162543.73546                  20641305.3224
        25.0004         14.7504
  20383012.9984   -4687014.35247  -3643120.73346                  20383013.2914
        27.7504         19.2504
  23825609.9284    9931531.76445   6172912.92841                  23825615.2954
         7.5004          1.2504
  21545121.8974  -16987284.31947 -12954082.06345                  21545122.3184
        21.2504         10.5004
  23054881.8424   -4322377.49245  -3039217.49642                  23054887.4434
         8.7504          2.0004
  23265457.3974      25207.69045   1262174.94543                  23265461.6154
        10.5004          3.0004
 00  5  2 15 44 59.9980000  0  7G 2G 4G 7G 8G 9G24G26
  21126795.6074   -4224662.34247  -3287152.09946                  21126796.7794
        22.5004         12.0004
  20630841.9594  -22690836.98847 -17205386.42546                  20630842.3464
        25.0004         14.5004
  20383487.6544   -4684519.59247  -3641176.77446                  20383488.1704
        27.5004         19.2504
  23833048.3424    9970623.30644   6203373.71342                  23833053.8264
         7.2504          1.5004
  21535196.5294  -17039441.40147 -12994723.92545                  21535196.5764
        21.0004         10.7504
  23041203.8184   -4394255.73945  -3095226.36743                  23041208.1194
         9.5004          2.5004
  23268578.6624      41613.67445   1274958.76443                  23268582.2484
        10.5004          3.0004
 00  5  2 15 45 14.9980000  0  7G 2G 4G 7G 8G 9G24G26
  21126477.1864   -4226335.18647  -3288455.62546                  21126478.2054
        23.2504         12.2504
  20620401.5614  -22745701.03247 -17248137.61046                  20620402.2524
        25.0004         15.2504
  20383975.4044   -4681957.70347  -3639180.50146                  20383975.9794
        27.0004         19.0004
  23840492.4754   10009743.96444   6233857.25041                  23840493.9044
         7.0004          1.2504
  21525291.8504  -17091490.16447 -13035281.40445                  21525292.1784
        21.0004         10.7504
  23027531.2324   -4466106.51245  -3151213.84343                  23027535.2524
         9.7504          2.5004
  23271711.9124      58073.28045   1287784.40443                  23271714.9244
        10.7504          2.7504
 00  5  2 15 45 29.9980000  0  7G 2G 4G 7G 8G 9G24G26
  21126171.7404   -4227940.89847  -3289706.84946                  21126172.6544
        23.5004         12.5004
  20609983.3734  -22800449.46847 -17290798.69346                  20609983.9004
        25.2504         14.7504
  20384475.0684   -4679330.83847  -3637133.60246                  20384475.6194
        27.0004         19.0004
  23847942.8184   10048891.55744   6264361.62941                  23847947.0144
         7.2504          1.0004
  21515407.7644  -17143432.23347 -13075755.73445                  21515408.2794
        21.7504         10.7504
  23013862.9824   -4537931.44245  -3207181.16442                  23013866.4394
         9.5004          2.2504
  23274853.5224      74584.16745   1300649.96244                  23274856.7094
        11.5004          3.5004
 00  5  2 15 45 44.9980000  0  7G 2G 4G 7G 8G 9G24G26
  21125879.3734   -4229477.34647  -3290904.09646                  21125880.2874
        23.0004         12.2504
  20599587.6704  -22855079.86947 -17333367.81446                  20599588.3614
        26.0004         14.5004
  20384987.6544   -4676637.25347  -3635034.71046                  20384988.1584
        27.0004         18.5004
  23855397.8734   10088067.70445   6294888.42942                  23855403.2174
         7.7504          1.5004
  21505544.3184  -17195265.32547 -13116145.14245                  21505545.0574
        21.5004         11.0004
  23000201.1394   -4609728.11745  -3263126.49442                  23000208.1394
        10.0004          2.0004
  23278005.4594      91148.02745   1313556.83343                  23278008.0374
        11.0004          3.2504
 00  5  2 15 45 59.9980000  0  7G 2G 4G 7G 8G 9G24G26
  21125599.9594   -4230945.58647  -3292048.19646                  21125600.8974
        23.5004         12.5004
  20589214.1314  -22909592.93147 -17375845.49946                  20589214.6704
        25.7504         15.0004
  20385512.6864   -4673878.12147  -3632884.74246                  20385513.1894
        27.0004         19.0004
  23862858.4594   10127271.05845   6325436.35541                  23862861.3774
         7.5004          1.2504
  21495701.2794  -17246990.22547 -13156450.24945                  21495702.0884
        21.7504         11.0004
  22986543.1154   -4681497.18145  -3319050.30842                  22986549.0104
        10.0004          2.2504
  23281167.1864     107763.40045   1326503.82743                  23281168.6974
        10.7504          3.2504
 00  5  2 15 46 14.9970000  0  7G 2G 4G 7G 8G 9G24G26
  21125333.8294   -4232344.47047  -3293138.24646                  21125334.9894
        23.5004         12.5004
  20578863.8134  -22963983.85747 -17418228.01246                  20578864.1884
        25.7504         14.7504
  20386050.3604   -4671053.03547  -3630683.38746                  20386050.8294
        27.5004         19.0004
  23870323.5634   10166499.82945   6356004.03942                  23870325.9074
         7.7504          1.5004
  21485879.6574  -17298602.20347 -13196667.36345                  21485880.1854
        21.2504         11.2504
  22972893.0174   -4753232.73345  -3374947.97842                  22972896.6494
        10.2504          2.0004
  23284338.5954     124429.85645   1339490.59943                  23284340.6574
        11.0004          3.0004
 00  5  2 15 46 29.9970000  0  7G 2G 4G 7G 8G 9G24G26
  21125080.5874   -4233676.45147  -3294176.16346                  21125081.6184
        23.7504         12.2504
  20568534.9784  -23018261.63047 -17460522.35946                  20568535.3884
        26.0004         14.2504
  20386600.1424   -4668163.87847  -3628432.10546                  20386600.7284
        27.5004         18.0004
  23877793.4314   10205756.52744   6386593.55242                  23877799.3964
         7.2504          1.5004
  21476078.1034  -17350110.21347 -13236803.46945                  21476078.6534
        21.2504         11.0004
  22959246.4154   -4824946.13345  -3430828.41642                  22959248.9934
        10.0004          2.0004
  23287519.8764     141146.78945   1352516.73443                  23287522.1734
        10.2504          2.5004
 00  5  2 15 46 44.9970000  0  7G 2G 4G 7G 8G 9G24G26
  21124839.8134   -4234940.51747  -3295161.16746                  21124840.4814
        23.7504         12.5004
  20558228.8454  -23072421.67947 -17502724.96646                  20558229.0674
        26.2504         15.0004
  20387162.1424   -4665210.40547  -3626130.70446                  20387162.6344
        27.7504         19.0004
  23885268.3994   10245039.06044   6417203.11042                  23885278.9154
         7.0004          1.5004
  21466297.1574  -17401509.68647 -13276854.99645                  21466297.6614
        21.2504         11.0004
  22945604.5874   -4896631.49345  -3486687.01642                  22945608.5604
         9.7504          2.2504
  23290710.6104     157913.68845   1365581.77943                  23290713.8564
        10.2504          2.7504
 00  5  2 15 46 59.9970000  0  7G 2G 4G 7G 8G 9G24G26
  21124612.5874   -4236134.97047  -3296091.91846                  21124613.1854
        23.5004         12.2504
  20547945.2284  -23126461.98547 -17544834.28246                  20547945.5444
        26.2504         15.0004
  20387736.7434   -4662191.34147  -3623778.19546                  20387737.0364
        27.7504         18.7504
  23892748.7044   10284348.86444   6447834.02741                  23892751.5634
         7.0004          1.2504
  21456537.2204  -17452798.71147 -13316820.46445                  21456537.9354
        21.5004         11.5004
  22931968.5014   -4968286.92845  -3542522.27842                  22931973.5404
         9.5004          2.2504
  23293911.0324     174731.64445   1378686.65843                  23293913.2714
        10.2504          2.7504
 00  5  2 15 47 14.9970000  0  7G 2G 4G 7G 8G 9G24G26
  21124397.9704   -4237261.86347  -3296970.03446                  21124398.9074
        23.5004         12.2504
  20537683.8534  -23180384.50347 -17586851.79546                  20537684.4034
        25.7504         15.2504
  20388323.3214   -4659108.85847  -3621376.26746                  20388323.7434
        27.7504         19.0004
  23900235.2744   10323683.40744   6478484.15142                  23900241.1464
         7.2504          1.5004
  21446797.9854  -17503979.22747 -13356701.38645                  21446798.6064
        22.0004         11.5004
  22918338.5174   -5039914.24945  -3598335.65142                  22918344.9154
         9.5004          2.2504
  23297120.5954     191598.19045   1391829.34243                  23297122.5994
        10.2504          2.5004
 00  5  2 15 47 29.9970000  0  7G 2G 4G 7G 8G 9G24G26
  21124196.5874   -4238319.28347  -3297794.01645                  21124197.4784
        22.7504         11.7504
  20527445.6654  -23234187.08247 -17628775.85546                  20527446.0994
        26.0004         15.0004
  20388922.3604   -4655961.42447  -3618923.72246                  20388922.5484
        27.7504         19.0004
  23907724.8064   10363044.20745   6509154.74341                  23907737.9234
         7.5004          0.7504
  21437079.9384  -17555049.19647 -13396496.15645                  21437080.3494
        22.5004         11.2504
  22904713.8214   -5111511.26845  -3654125.41042                  22904719.9744
         9.7504          2.2504
  23300339.7674     208514.67545   1405010.94243                  23300342.2744
        10.2504          2.5004
 00  5  2 15 47 44.9970000  0  7G 2G 4G 7G 8G 9G24G26
  21124008.4234   -4239309.05547  -3298565.27946                  21124009.2084
        23.2504         12.0004
  20517229.8374  -23287871.32947 -17670607.71146                  20517230.2474
        26.0004         14.5004
  20389533.1654   -4652751.12447  -3616422.20746                  20389533.7394
        27.7504         19.2504
  23915219.5634   10402429.09145   6539844.18141                  23915228.8724
         7.5004          1.0004
  21427382.1424  -17606010.15947 -13436205.98945                  21427382.5524
        22.5004         11.5004
  22891094.3764   -5183079.51345  -3709892.72942                  22891099.6964
         9.0004          2.2504
  23303568.0634     225478.98645   1418229.83942                  23303569.8104
        10.0004          2.2504
 00  5  2 15 47 59.9970000  0  7G 2G 4G 7G 8G 9G24G26
  21123833.4234   -4240229.56447  -3299282.58046                  21123834.3964
        23.5004         12.0004
  20507036.7744  -23341435.26347 -17712345.81946                  20507037.3134
        26.0004         14.7504
  20390156.2594   -4649476.65048  -3613870.67546                  20390156.7634
        28.0004         18.7504
  23922719.2284   10441839.33745   6570553.28541                  23922722.2744
         7.5004          1.0004
  21417705.5954  -17656860.46547 -13475829.59145                  21417705.6534
        22.2504         11.2504
  22877481.0174   -5254617.19845  -3765636.23543                  22877485.4354
         8.5004          2.5004
  23306805.6574     242492.21245   1431486.84943                  23306807.6034
         9.5004          2.5004
 00  5  2 15 48 14.9970000  0  7G 2G 4G 7G 8G 9G24G26
  21123671.1104   -4241082.57147  -3299947.28146                  21123671.9544
        23.7504         12.5004
  20496866.7904  -23394880.53547 -17753991.46046                  20496867.0014
        26.5004         15.2504
  20390791.3294   -4646140.02447  -3611270.71246                  20390791.6924
        27.7504         18.7504
  23930224.2284   10481272.82445   6601280.52541                  23930233.1614
         7.7504          1.0004
  21408050.0484  -17707601.63747 -13515368.16445                  21408050.1654
        22.2504         11.5004
  22863873.5174   -5326125.78145  -3821357.10942                  22863877.7474
         8.5004          2.2504
  23310052.1574     259552.03845   1444780.12243                  23310053.7044
         9.7504          2.5004
 00  5  2 15 48 29.9970000  0  7G 2G 4G 7G 8G 9G24G26
  21123522.0244   -4241865.84247  -3300557.63546                  21123523.0444
        23.0004         12.2504
  20486719.3064  -23448204.64447 -17795542.69046                  20486719.9854
        26.0004         15.0004
  20391438.3214   -4642739.36548  -3608620.85946                  20391438.6384
        28.2504         19.0004
  23937732.4154   10520731.47845   6632027.40341                  23937741.7124
         7.5004          1.2504
  21398415.2824  -17758231.21547 -13554819.78145                  21398415.7394
        22.7504         11.5004
  22850271.6424   -5397602.79245  -3877053.34843                  22850275.6034
         9.0004          2.7504
  23313307.7354     276660.34445   1458111.20943                  23313308.5564
        10.2504          2.7504
 00  5  2 15 48 44.9970000  0  7G 2G 4G 7G 8G 9G24G26
  21123386.3764   -4242579.58547  -3301113.82346                  21123387.6654
        23.5004         12.5004
  20476595.2434  -23501407.43047 -17836999.37746                  20476595.5714
        25.7504         15.0004
  20392097.6184   -4639275.08047  -3605921.42346                  20392098.0054
        27.7504         19.2504
  23945245.6654   10560214.58445   6662793.34341                  23945251.7244
         7.7504          1.2504
  21388802.1034  -17808749.11147 -13594184.35445                  21388802.2314
        22.7504         11.5004
  22836675.6424   -5469048.12545  -3932724.92243                  22836679.5214
        10.0004          2.5004
  23316572.5244     293816.48945   1471479.57243                  23316574.2124
        10.0004          2.5004
 00  5  2 15 48 59.9970000  0  7G 2G 4G 7G 8G 9G24G26
  21123263.4704   -4243225.45247  -3301617.11046                  21123264.6064
        23.7504         12.2504
  20466493.8994  -23554490.37047 -17878362.69346                  20466494.3454
        25.2504         15.0004
  20392768.4314   -4635749.09748  -3603173.91446                  20392768.8644
        28.2504         19.0004
  23952763.5174   10599720.23845   6693576.88141                  23952769.5874
         7.5004          1.2504
  21379209.9704  -17859156.85047 -13633463.10846                  21379210.0404
        22.2504         12.0004
  22823085.9624   -5540463.18845  -3988372.90243                  22823089.3844
        10.5004          3.0004
  23319846.2744     311018.39845   1484883.57143                  23319848.1734
         9.7504          3.0004
 00  5  2 15 49 14.9970000  0  7G 2G 4G 7G 8G 9G24G26
  21123153.3764   -4243803.01247  -3302067.17946                  21123154.2434
        23.2504         12.2504
  20456415.5484  -23607452.88147 -17919632.15446                  20456415.9584
        25.7504         14.2504
  20393451.3454   -4632161.39948  -3600378.31246                  20393451.8724
        28.2504         18.2504
  23960285.2594   10639248.43145   6724377.91041                  23960294.3684
         7.5004          1.2504
  21369638.5094  -17909453.81947 -13672655.53845                  21369638.4274
        22.2504         11.2504
  22809502.5874   -5611847.31845  -4043996.80643                  22809507.1814
        10.7504          3.2504
  23323127.0324     328265.96245   1498323.19542                  23323128.9784
         9.2504          2.2504
 00  5  2 15 49 29.9970000  0  7G 2G 4G 7G 8G 9G24G26
  21123056.2984   -4244313.51147  -3302464.98746                  21123057.5174
        23.0004         12.2504
  20446359.7204  -23660295.85247 -17960808.47246                  20446360.2594
        25.7504         14.5004
  20394145.7044   -4628513.29348  -3597535.63846                  20394146.1734
        28.2504         19.0004
  23967811.6344   10678797.69044   6755195.38741                  23967816.2514
         7.0004          1.2504
  21360088.0714  -17959641.12347 -13711762.52745                  21360088.3294
        22.2504         11.7504
  22795923.4704   -5683201.36445  -4099597.23343                  22795927.7474
        10.5004          3.0004
  23326418.3844     345557.60145   1511797.08342                  23326421.2314
         9.2504          2.0004
 00  5  2 15 49 44.9970000  0  7G 2G 4G 7G 8G 9G24G26
  21122972.5564   -4244753.04947  -3302807.51946                  21122973.8564
        22.2504         12.2504
  20436327.5564  -23713015.28647 -18001888.52946                  20436327.8494
        25.7504         15.0004
  20394851.8684   -4624801.30548  -3594643.19046                  20394852.2314
        28.2504         19.5004
  23975342.9464   10718371.50844   6786031.95341                  23975347.9154
         7.0004          1.2504
  21350559.6574  -18009714.66547 -13750780.86546                  21350559.9974
        22.7504         12.0004
  22782352.1344   -5754521.25745  -4155171.09143                  22782357.9464
        10.0004          3.0004
  23329718.1264     362896.70145   1525308.01742                  23329720.5404
         9.7504          2.2504
 00  5  2 15 49 59.9970000  0  7G 2G 4G 7G 8G 9G24G26
  21122902.1814   -4245123.08447  -3303095.87746                  21122903.5524
        22.5004         12.5004
  20426318.5634  -23765612.28347 -18042873.18746                  20426319.0094
        26.0004         15.5004
  20395570.3454   -4621027.18248  -3591702.32446                  20395570.6734
        28.2504         19.7504
  23982877.5244   10757967.85844   6816886.15941                  23982882.0364
         6.7504          1.0004
  21341052.3604  -18059675.80347 -13789711.61146                  21341052.6654
        22.2504         12.2504
  22768786.4154   -5825808.29645  -4210719.33343                  22768791.2784
        10.0004          2.7504
  23333026.3134     380281.21445   1538854.30043                  23333029.5014
         9.0004          2.5004
 00  5  2 15 50 14.9970000  0  7G 2G 4G 7G 8G 9G24G26
  21122844.5174   -4245426.41147  -3303332.25546                  21122845.9354
        22.7504         12.0004
  20416332.6184  -23818089.56747 -18083764.55446                  20416333.1224
        25.7504         15.5004
  20396299.4544   -4617193.98148  -3588715.42346                  20396299.7594
        28.2504         19.2504
  23990416.7124   10797583.83344   6847755.60641                  23990424.2394
         6.5004          1.0004
  21331565.8844  -18109527.06047 -13828556.74045                  21331566.2474
        22.0004         11.5004
  22755226.0714   -5897064.80945  -4266243.78243                  22755229.8334
         9.0004          2.7504
  23336342.5174     397708.14645   1552433.66642                  23336344.8374
         9.0004          1.7504
 00  5  2 15 50 29.9970000  0  6G 2G 4G 7G 9G24G26
  21122800.3294   -4245659.25947  -3303513.71546                  21122801.7594
        22.5004         12.2504
  20406370.0244  -23870442.94547 -18124559.37146                  20406370.5874
        26.0004         15.0004
  20397040.8844   -4613298.12948  -3585679.69846                  20397041.2124
        28.2504         19.0004
  21322101.2354  -18159264.50447 -13867313.18245                  21322101.6924
        22.2504         11.7504
  22741673.7204   -5968286.95545  -4321741.44943                  22741677.8564
         9.5004          3.0004
  23339666.9154     415180.70745   1566048.60442                  23339671.1574
         8.5004          2.2504
 00  5  2 15 50 44.9970000  0  6G 2G 4G 7G 9G24G26
  21122768.9464   -4245823.40747  -3303641.65246                  21122769.8964
        23.0004         12.2504
  20396430.8924  -23922674.09947 -18165258.94746                  20396431.2084
        26.7504         15.2504
  20397793.6574   -4609341.90448  -3582596.94346                  20397794.0914
        28.0004         18.7504
  21312657.7044  -18208889.66947 -13905982.13045                  21312658.3844
        22.2504         11.7504
  22728126.7594   -6039476.21745  -4377213.49643                  22728131.0364
         9.2504          2.5004
  23343000.5874     432696.56445   1579697.24442                  23343003.2944
         8.2504          1.7504
 00  5  2 15 50 59.9970000  0  6G 2G 4G 7G 9G24G26
  21122751.2354   -4245918.27747  -3303715.60646                  21122752.0564
        23.2504         12.5004
  20386515.0094  -23974782.26147 -18205862.69546                  20386515.3844
        27.0004         16.0004
  20398558.3064   -4605324.87648  -3579466.79646                  20398558.4934
        28.2504         18.7504
  21303235.7904  -18258401.73647 -13944562.94845                  21303236.0834
        22.2504         11.7504
  22714586.1494   -6110631.68645  -4432659.21542                  22714590.6144
         9.2504          2.2504
  23346342.7124     450255.91045   1593379.81142                  23346344.8214
         8.5004          1.7504
 00  5  2 15 51 14.9970000  0  6G 2G 4G 7G 9G24G26
  21122746.1884   -4245943.54547  -3303735.31346                  21122747.5484
        22.7504         12.2504
  20376622.6654  -24026766.87147 -18246370.16246                  20376622.8644
        26.7504         16.0004
  20399334.1034   -4601247.00947  -3576289.24346                  20399334.3964
        27.7504         18.7504
  21293835.8764  -18307800.25247 -13983055.29946                  21293836.5674
        22.2504         12.0004
  22701052.2354   -6181752.83145  -4488078.14643                  22701054.6264
         9.2504          2.5004
  23349692.0954     467858.72345   1607096.19942                  23349693.9114
         8.2504          2.0004
 00  5  2 15 51 29.9970000  0  6G 2G 4G 7G 9G24G26
  21122754.9544   -4245898.60447  -3303700.31946                  21122756.3494
        22.7504         12.2504
  20366754.0714  -24078626.98647 -18286780.63046                  20366754.5754
        26.5004         15.7504
  20400121.6734   -4597108.04147  -3573064.08246                  20400122.0244
        27.7504         18.5004
  21284457.4854  -18357084.39947 -14021458.51546                  21284457.9664
        22.7504         12.0004
  22687525.4624   -6252838.76945  -4543469.71043                  22687529.4934
        10.0004          2.7504
  23353049.8924     485505.03045   1620846.44242                  23353054.3104
         7.5004          1.7504
 00  5  2 15 51 44.9970000  0  6G 2G 4G 7G 9G24G26
  21122776.8214   -4245783.36747  -3303610.53945                  21122778.2164
        22.7504         11.7504
  20356908.8534  -24130362.31047 -18327093.84446                  20356909.3564
        26.2504         15.2504
  20400920.9314   -4592908.06048  -3569791.37446                  20400921.3644
        28.2504         18.5004
  21275100.8294  -18406253.83547 -14059772.35445                  21275101.2984
        22.7504         11.7504
  22674004.1184   -6323889.01245  -4598833.45743                  22674009.6494
        10.0004          2.5004
  23356416.3294     503194.53245   1634630.41342                  23356419.1184
         8.5004          2.0004
 00  5  2 15 51 59.9970000  0  6G 2G 4G 7G 9G24G26
  21122812.3064   -4245596.42447  -3303464.89446                  21122813.3374
        22.5004         12.5004
  20347088.0094  -24181971.15847 -18367308.50746                  20347088.4664
        26.0004         16.0004
  20401731.9624   -4588645.97248  -3566470.28046                  20401732.3724
        28.2504         19.0004
  21265766.1574  -18455307.06447 -14097995.64146                  21265766.7554
        22.7504         12.2504
  22660490.6424   -6394902.14845  -4654168.25243                  22660494.6734
         9.7504          3.0004
  23359791.0324     520928.17245   1648448.76142                  23359795.4504
         8.5004          2.0004
 00  5  2 15 52 14.9970000  0  6G 2G 4G 7G 9G24G26
  21122861.3924   -4245339.58847  -3303264.79045                  21122862.7634
        23.0004         11.5004
  20337291.0634  -24233455.15447 -18407425.88946                  20337291.6264
        25.5004         15.0004
  20402554.5484   -4584323.83648  -3563102.38846                  20402554.9114
        28.0004         18.0004
  21256453.5244  -18504245.73447 -14136129.65945                  21256453.7354
        23.0004         11.7504
  22646984.1184   -6465879.51145  -4709475.21542                  22646988.8174
        10.2504          2.2504
  23363173.2434     538703.71245   1662299.80642                  23363178.7864
         8.0004          1.5004
 00  5  2 15 52 29.9970000  0  6G 2G 4G 7G 9G24G26
  21122923.5014   -4245012.14247  -3303009.65545                  21122924.8604
        22.7504         11.2504
  20327517.7594  -24284813.45347 -18447445.32546                  20327518.4974
        25.7504         15.0004
  20403388.4384   -4579941.23647  -3559687.38246                  20403388.8134
        27.7504         17.7504
  21247162.6104  -18553068.92247 -14174173.69845                  21247163.0214
        23.0004         11.7504
  22633484.8604   -6536820.19745  -4764753.56643                  22633489.6184
        10.7504          2.5004
  23366565.5484     556521.41845   1676183.59042                  23366570.3064
         8.5004          1.7504
 00  5  2 15 52 44.9970000  0  6G 2G 4G 7G 9G24G26
  21122999.5794   -4244612.49147  -3302698.26245                  21123000.6814
        22.7504         11.2504
  20317768.8604  -24336044.09947 -18487365.28846                  20317769.3994
        25.7504         15.2504
  20404234.2824   -4575496.90547  -3556224.27046                  20404234.6104
        27.7504         18.2504
  21237894.1264  -18601774.79647 -14212126.32045                  21237894.6304
        23.0004         11.7504
  22619992.7824   -6607722.29245  -4820001.85143                  22619996.6384
        11.0004          3.0004
  23369962.5324     574382.41245   1690101.27242                  23369964.6654
         8.0004          1.5004
 00  5  2 15 52 59.9970000  0  6G 2G 4G 7G 9G24G26
  21123089.2904   -4244141.88047  -3302331.58045                  21123090.6734
        23.0004         11.5004
  20308044.0954  -24387148.31347 -18527186.73246                  20308044.6814
        26.0004         15.2504
  20405091.5634   -4570992.31447  -3552714.20546                  20405091.8334
        27.7504         18.2504
  21228647.9234  -18650364.53647 -14249988.44846                  21228648.2044
        23.2504         12.0004
  22606507.2594   -6678586.90945  -4875220.94743                  22606510.1184
        11.5004          2.7504
  23373369.6424     592285.01545   1704051.16542                  23373373.2864
         7.7504          1.5004
 00  5  2 15 53 14.9970000  0  6G 2G 4G 7G 9G24G26
  21123192.5954   -4243598.87547  -3301908.47645                  21123193.6034
        22.7504         11.0004
  20298343.5874  -24438124.23147 -18566908.20846                  20298343.9274
        25.7504         14.2504
  20405960.3454   -4566426.27047  -3549156.26146                  20405960.5444
        27.7504         17.5004
  21219424.0404  -18698836.38947 -14287758.70945                  21219423.9814
        23.5004         11.7504
  22593029.7514   -6749412.13245  -4930409.34643                  22593032.5754
        11.2504          3.0004
  23376785.0014     610230.32145   1718034.52142                  23376785.4704
         8.2504          2.2504
 00  5  2 15 53 29.9970000  0  6G 2G 4G 7G 9G24G26
  21123309.2904   -4242985.91647  -3301430.86545                  21123310.2394
        22.7504         10.0004
  20288667.1344  -24488974.13947 -18606531.49746                  20288667.6964
        26.2504         14.0004
  20406840.6344   -4561801.54548  -3545552.58746                  20406840.9744
        28.0004         16.5004
  21210222.2354  -18747192.64647 -14325438.91145                  21210222.4464
        23.2504         11.2504
  22579558.9384   -6820200.30546  -4985568.88343                  22579561.7284
        12.2504          2.7504
  23380207.1814     628215.25045   1732048.62442                  23380209.9354
         8.2504          2.0004
 00  5  2 15 53 44.9970000  0  6G 2G 4G 7G 9G24G26
  21123439.2044   -4242303.03747  -3300898.77545                  21123440.2944
        22.2504          9.7504
  20279014.9464  -24539697.75147 -18646056.37446                  20279015.6034
        26.0004         13.7504
  20407731.4934   -4557118.46547  -3541903.44746                  20407731.9974
        27.5004         16.0004
  21201042.2824  -18795433.22747 -14363028.96545                  21201042.8334
        23.5004         11.2504
  22566095.6964   -6890951.16646  -5040699.32443                  22566099.8104
        12.2504          3.0004
  23383637.8764     646239.50345   1746093.41542                  23383640.5244
         8.5004          2.0004
 00  5  2 15 53 59.9970000  0  6G 2G 4G 7G 9G24G26
  21123582.9074   -4241546.71847  -3300309.45845                  21123583.9624
        22.2504          9.5004
  20269387.2434  -24590291.53347 -18685480.07746                  20269387.4314
        26.2504         13.7504
  20408634.4704   -4552373.78347  -3538206.29746                  20408634.7164
        27.5004         16.2504
  21191885.1964  -18843554.46147 -14400526.01745                  21191885.5604
        23.7504         11.0004
  22552639.2824   -6961660.95545  -5095797.79343                  22552643.8174
        11.5004          2.7504
  23387075.8064     664305.97045   1760171.11242                  23387077.5754
         8.7504          1.7504
 00  5  2 15 54 14.9970000  0  6G 2G 4G 7G 9G24G26
  21123740.7434   -4240718.96347  -3299664.47745                  21123741.6104
        22.5004         10.5004
  20259783.9234  -24640757.19547 -18724803.95246                  20259784.3454
        26.2504         14.5004
  20409548.7594   -4547569.78447  -3534462.93346                  20409549.0404
        27.7504         16.7504
  21182750.3604  -18891558.18747 -14437931.51946                  21182750.9584
        24.0004         12.0004
  22539191.3684   -7032331.28546  -5150865.52143                  22539195.6344
        12.2504          2.7504
  23390520.9934     682412.24445   1774279.80542                  23390523.7004
         8.2504          2.0004
 00  5  2 15 54 29.9970000  0  6G 2G 4G 7G 9G24G26
  21123911.9934   -4239818.52547  -3298962.85945                  21123912.9544
        22.2504         10.0004
  20250205.1734  -24691093.21747 -18764026.80846                  20250205.4544
        26.2504         14.0004
  20410474.2744   -4542705.57647  -3530672.64746                  20410474.9544
        27.2504         15.7504
  21173638.2904  -18939442.92147 -14475244.28945                  21173638.5244
        24.2504         11.7504
  22525751.0874   -7102960.84446  -5205901.41643                  22525754.7084
        12.2504          3.0004
  23393973.9854     700559.09545   1788420.13843                  23393976.1184
         8.7504          2.5004
 00  5  2 15 54 44.9970000  0  6G 2G 4G 7G 9G24G26
  21124096.8214   -4238847.75047  -3298206.43745                  21124098.1464
        22.0004          9.5004
  20240650.8294  -24741301.82647 -18803150.39046                  20240651.1924
        26.2504         14.5004
  20411410.8534   -4537783.62847  -3526837.37246                  20411411.6034
        27.5004         16.0004
  21164548.2354  -18987210.76047 -14512465.97545                  21164548.5054
        24.0004         11.5004
  22512318.3994   -7173551.58845  -5260907.11643                  22512322.2674
        11.7504          2.7504
  23397434.6814     718743.86845   1802589.98642                  23397435.9814
         7.7504          1.7504
 00  5  2 15 54 59.9970000  0  6G 2G 4G 7G 9G24G26
  21124295.2354   -4237805.55547  -3297394.35745                  21124296.2084
        23.0004         10.5004
  20231121.0714  -24791381.52047 -18842173.50946                  20231121.5054
        26.5004         15.5004
  20412358.6034   -4532803.19247  -3522956.52646                  20412359.2824
        27.5004         18.0004
  21155480.6494  -19034860.49047 -14549595.62346                  21155481.1654
        23.5004         13.0004
  22498892.5714   -7244102.13945  -5315881.49143                  22498896.9074
        11.5004          3.0004
  23400902.7984     736967.15745   1816789.86743                  23400904.1694
         9.2504          2.7504
 00  5  2 15 55 14.9970000  0  6G 2G 4G 7G 9G24G26
  21124507.4704   -4236690.33647  -3296525.38345                  21124508.6424
        22.5004          8.2504
  20221615.9784  -24841330.57647 -18881094.82946                  20221616.2474
        26.7504         12.5004
  20413317.9234   -4527762.80547  -3519028.95346                  20413318.2514
        27.5004         13.7504
  21146436.1424  -19082390.26247 -14586631.80245                  21146436.0954
        23.2504          9.5004
  22485475.5094   -7314610.59945  -5370823.07043                  22485480.2084
        11.5004          2.5004
  23404378.2434     755230.08245   1831020.59342                  23404380.6814
         9.0004          2.0004
 00  5  2 15 55 29.9970000  0  6G 2G 4G 7G 9G24G26
  21124733.6424   -4235502.82947  -3295600.07345                  21124733.8644
        22.7504          7.5004
  20212135.6264  -24891149.58047 -18919914.81645                  20212135.8374
        26.2504         11.5004
  20414288.1184   -4522663.57147  -3515055.53246                  20414288.3764
        27.5004         13.0004
  21137414.2124  -19129800.63147 -14623574.94045                  21137413.9424
        23.7504          9.2504
  22472066.0014   -7385077.44345  -5425732.20442                  22472072.3644
        10.2504          2.0004
  23407861.3064     773531.51645   1845281.41442                  23407862.6534
         9.0004          1.5004
 00  5  2 15 55 44.9970000  0  6G 2G 4G 7G 9G24G26
  21124973.6184   -4234241.20147  -3294617.01545                  21124974.4154
        22.2504          8.0004
  20202680.6654  -24940836.35147 -18958631.76845                  20202680.8414
        26.2504         11.7504
  20415270.0324   -4517503.92747  -3511035.04546                  20415270.4314
        27.0004         13.0004
  21128415.4934  -19177089.54447 -14660423.44345                  21128415.6344
        24.0004          9.2504
  22458664.7984   -7455500.49445  -5480607.21042                  22458671.5014
        11.0004          1.7504
  23411351.2434     791872.90145   1859573.28142                  23411352.8134
         9.2504          1.7504
 00  5  2 15 55 59.9970000  0  6G 2G 4G 7G 9G24G26
  21125227.4384   -4232906.16247  -3293576.74045                  21125227.9194
        21.2504          7.5004
  20193250.5484  -24990391.59247 -18997246.22145                  20193250.7004
        27.0004         11.7504
  20416263.1734   -4512285.00547  -3506968.36446                  20416264.0174
        27.0004         12.7504
  21119439.7514  -19224257.66347 -14697177.80645                  21119439.9504
        23.7504          9.5004
  22445271.5564   -7525880.41745  -5535448.61542                  22445277.2744
        10.0004          2.2504
  23414849.0014     810252.96245   1873895.36342                  23414850.3604
         9.2504          1.7504
 00  5  2 15 56 14.9970000  0  6G 2G 4G 7G 9G24G26
  21125495.5404   -4231497.68647  -3292479.24845                  21125496.7124
        21.0004          7.5004
  20183845.5244  -25039814.93147 -19035757.90445                  20183845.7944
        27.0004         11.5004
  20417267.4784   -4507006.95847  -3502855.60446                  20417268.2744
        26.7504         12.7504
  21110486.7434  -19271304.80047 -14733837.89645                  21110486.5914
        23.5004          9.7504
  22431887.7514   -7596216.94345  -5590256.19143                  22431890.4234
        11.5004          2.7504
  23418353.5094     828671.24345   1888247.18842                  23418354.7984
         9.0004          1.7504
 00  5  2 15 56 29.9970000  0  6G 2G 4G 7G 9G24G26
  21125776.9854   -4230017.96647  -3291326.25145                  21125777.8994
        21.5004          7.2504
  20174465.4234  -25089108.39847 -19074168.37745                  20174465.2824
        27.0004         11.7504
  20418282.8924   -4501672.24647  -3498698.69646                  20418283.7944
        27.0004         13.0004
  21101556.7984  -19318232.92347 -14770405.26945                  21101556.8924
        23.5004          9.5004
  22418510.7354   -7666511.89745  -5645031.38042                  22418515.3764
        10.7504          2.0004
  23421865.6964     847125.14545   1902626.70542                  23421867.5484
         9.0004          1.5004
 00  5  2 15 56 44.9970000  0  6G 2G 4G 7G 9G24G26
  21126072.7284   -4228464.88047  -3290116.07145                  21126074.0404
        21.2504         10.7504
  20165110.3214  -25138269.67847 -19112475.86446                  20165110.4624
        27.2504         17.5004
  20419308.8604   -4496279.00547  -3494496.18346                  20419309.6464
        26.7504         19.0004
  21092649.8454  -19365039.72347 -14806878.10046                  21092650.4544
        23.5004         14.0004
  22405141.9934   -7736762.83845  -5699772.28344                  22405145.1574
        11.0004          3.5004
  23425384.4934     865616.37345   1917035.35642                  23425388.8884
         8.7504          2.0004
 00  5  2 15 56 59.9970000  0  6G 2G 4G 7G 9G24G26
  21126381.7904   -4226839.39247  -3288849.48245                  21126383.1034
        20.5004         11.0004
  20155780.3534  -25187299.47347 -19150680.87346                  20155780.4814
        27.0004         18.2504
  20420346.3534   -4490828.40747  -3490248.97746                  20420346.8684
        27.2504         20.0004
  21083765.5244  -19411725.95247 -14843256.97646                  21083766.2634
        23.2504         14.7504
  22391782.2824   -7806970.40745  -5754479.40644                  22391786.8294
        11.5004          3.7504
  23428909.6184     884143.60245   1931472.07343                  23428912.5714
         8.7504          2.5004
 00  5  2 15 57 14.9970000  0  6G 2G 4G 7G 9G24G26
  21126705.3454   -4225141.27747  -3287526.31545                  21126706.9624
        21.2504         11.0004
  20146475.1654  -25236197.34847 -19188783.10746                  20146475.3884
        26.7504         17.5004
  20421394.3134   -4485320.60847  -3485957.19446                  20421394.7354
        27.2504         19.7504
  21074904.7044  -19458291.25447 -14879541.62246                  21074905.1964
        23.7504         14.5004
  22378430.2354   -7877134.16545  -5809152.35944                  22378433.5524
        11.5004          4.0004
  23432442.1424     902706.46445   1945936.55142                  23432445.5634
         8.5004          2.0004
 00  5  2 15 57 29.9970000  0  6G 2G 4G 7G 9G24G26
  21127042.2434   -4223370.16447  -3286146.25245                  21127043.7434
        21.0004         11.0004
  20137195.3374  -25284962.72347 -19226782.07946                  20137195.6884
        26.7504         17.5004
  20422453.5244   -4479755.35647  -3481620.64946                  20422453.7944
        27.5004         19.2504
  21066066.7434  -19504735.09447 -14915731.61746                  21066066.9194
        23.7504         14.0004
  22365086.9624   -7947253.50245  -5863790.72944                  22365090.7714
        11.5004          3.7504
  23435981.6184     921305.01945   1960428.82643                  23435985.3454
         9.2504          2.5004
 00  5  2 15 57 44.9970000  0  6G 2G 4G 7G 9G24G26
  21127393.4704   -4221525.22847  -3284708.64845                  21127394.7474
        21.2504         10.7504
  20127941.1574  -25333594.50147 -19264676.95346                  20127941.4974
        26.7504         17.2504
  20423523.6734   -4474132.18947  -3477238.96846                  20423524.0244
        27.5004         18.5004
  21057251.9314  -19551056.40247 -14951826.13646                  21057251.8964
        23.7504         13.7504
  22351752.5564   -8017327.22445  -5918393.54744                  22351758.1694
        11.5004          3.5004
  23439527.7204     939939.56345   1974949.19943                  23439530.4154
         9.5004          2.7504
 00  5  2 15 57 59.9970000  0  6G 2G 4G 7G 9G24G26
  21127758.6884   -4219605.24847  -3283212.58245                  21127760.0484
        21.0004         11.0004
  20118712.3294  -25382091.29647 -19302466.64746                  20118712.6694
        26.7504         18.2504
  20424604.9074   -4468450.11947  -3472811.39646                  20424605.2244
        27.7504         20.0004
  21048460.7044  -19597253.75247 -14987824.06246                  21048460.9974
        24.2504         15.0004
  22338426.4464   -8087353.89045  -5972959.68444                  22338430.6654
        11.5004          4.0004
  23443080.8764     958610.98045   1989498.23443                  23443085.4464
         8.5004          2.5004
 00  5  2 15 58 14.9970000  0  6G 2G 4G 7G 9G24G26
  21128138.0324   -4217612.31747  -3281659.66845                  21128139.1924
        21.0004         10.5004
  20109509.3764  -25430454.97947 -19340152.61946                  20109509.9974
        27.7504         18.2504
  20425696.7674   -4462711.48647  -3468339.74546                  20425697.2944
        27.5004         19.2504
  21039692.8454  -19643329.08747 -15023726.91446                  21039693.0564
        23.7504         14.5004
  22325109.8764   -8157335.31745  -6027490.56944                  22325114.1064
        11.7504          3.7504
  23446640.9384     977316.74045   2004074.03443                  23446643.7634
         9.0004          2.5004
 00  5  2 15 58 29.9970000  0  6G 2G 4G 7G 9G24G26
  21128531.1344   -4215546.45047  -3280049.92445                  21128532.5994
        21.2504         10.7504
  20100331.3534  -25478685.42447 -19377734.76446                  20100331.6224
        27.7504         18.2504
  20426799.5794   -4456916.57047  -3463824.23646                  20426799.9784
        27.0004         18.7504
  21030948.4154  -19689282.25347 -15059534.57146                  21030948.9784
        23.7504         14.7504
  22311800.5634   -8227271.25145  -6081986.00244                  22311804.8064
        11.5004          3.5004
  23450206.5954     996056.25945   2018676.20743                  23450210.7204
         8.2504          2.5004
 00  5  2 15 58 44.9970000  0  6G 2G 4G 7G 9G24G26
  21128937.9464   -4213408.77047  -3278384.22145                  21128939.3064
        21.0004         10.2504
  20091178.5014  -25526783.51447 -19415213.77746                  20091178.8294
        27.5004         17.7504
  20427912.5954   -4451066.88447  -3459266.05346                  20427912.9464
        27.0004         18.2504
  21022226.8374  -19735114.34347 -15095247.87546                  21022227.0014
        24.0004         14.2504
  22298500.7044   -8297162.66045  -6136446.76044                  22298504.4784
        11.7504          3.5004
  23453779.0484    1014828.05345   2033303.45042                  23453782.6224
         8.5004          2.2504
 00  5  2 15 58 59.9970000  0  6G 2G 4G 7G 9G24G26
  21129358.2674   -4211199.27447  -3276662.56645                  21129359.4624
        21.2504         10.7504
  20082050.9934  -25574749.04148 -19452589.49946                  20082051.3454
        28.0004         18.2504
  20429036.3454   -4445162.65547  -3454665.37146                  20429036.9074
        27.0004         18.5004
  21013528.4544  -19780825.10847 -15130866.64946                  21013528.5604
        24.2504         14.7504
  22285210.0564   -8367009.28946  -6190872.61244                  22285214.0404
        12.0004          3.5004
  23457357.0244    1033631.61145   2047955.52642                  23457359.2514
         9.0004          2.0004
 00  5  2 15 59 14.9970000  0  6G 2G 4G 7G 9G24G26
  21129793.2674   -4208914.42447  -3274882.18545                  21129794.2984
        21.0004         11.2504
  20072949.3994  -25622578.28147 -19489859.02546                  20072950.0094
        27.7504         18.2504
  20430170.6734   -4439200.56847  -3450019.60046                  20430171.0834
        27.5004         18.5004
  21004853.5324  -19826410.79247 -15166387.95446                  21004853.8024
        23.7504         14.0004
  22271927.4854   -8436807.18146  -6245260.49744                  22271931.1424
        12.0004          3.5004
  23460942.3534    1052470.04945   2062634.70443                  23460945.1064
         8.7504          2.5004
 00  5  2 15 59 29.9970000  0  6G 2G 4G 7G 9G24G26
  21130242.3454   -4206554.16847  -3273043.04045                  21130243.7164
        21.2504         11.0004
  20063873.7434  -25670270.97247 -19527022.14146                  20063873.8604
        27.5004         18.0004
  20431316.4154   -4433180.87247  -3445328.93546                  20431316.9664
        27.2504         18.5004
  20996202.8214  -19871871.22947 -15201811.66846                  20996203.2784
        24.0004         14.5004
  22258654.4314   -8506556.04346  -6299610.18244                  22258657.0444
        12.2504          3.7504
  23464534.1884    1071342.98345   2077340.77042                  23464535.4424
         9.5004          2.2504
 00  5  2 15 59 44.9970000  0  6G 2G 4G 7G 9G24G26
  21130705.2824   -4204121.62047  -3271147.56045                  21130706.8294
        21.2504         11.0004
  20054823.4544  -25717830.04147 -19564081.14046                  20054824.0174
        27.0004         16.7504
  20432472.2984   -4427106.84947  -3440595.94146                  20432472.6494
        27.2504         18.0004
  20987575.3844  -19917209.25747 -15237139.98746                  20987575.4194
        24.0004         14.0004
  22245390.4784   -8576258.73946  -6353923.89344                  22245392.8334
        13.0004          3.7504
  23468130.7984    1090246.83145   2092070.95442                  23468132.6034
         8.5004          2.0004
 00  5  2 15 59 59.9970000  0  6G 2G 4G 7G 9G24G26
  21131182.1654   -4201616.14647  -3269195.27145                  21131183.4664
        22.0004         11.2504
  20045798.9074  -25765254.72947 -19601035.42746                  20045799.3884
        27.0004         18.0004
  20433638.5484   -4420978.18647  -3435820.37546                  20433639.0174
        27.5004         18.0004
  20978971.0324  -19962424.04747 -15272372.28746                  20978971.4314
        23.7504         15.0004
  22232135.9154   -8645914.27046  -6408200.85244                  22232138.8454
        13.2504          3.7504
  23471735.0324    1109181.92145   2106825.50642                  23471736.5564
         9.2504          2.2504
 00  5  2 16  0 14.9970000  0  6G 2G 4G 7G 9G24G26
  21131672.7204   -4199038.49647  -3267186.73645                  21131674.0914
        22.0004         11.5004
  20036799.6654  -25812545.50747 -19637885.36446                  20036800.1574
        26.7504         17.5004
  20434814.8064   -4414795.89147  -3431003.01646                  20434815.4974
        27.0004         18.2504
  20970390.3374  -20007516.22247 -15307509.04246                  20970390.5834
        23.7504         13.7504
  22218889.6734   -8715523.10946  -6462441.41344                  22218893.0134
        13.2504          4.0004
  23475343.3924    1128147.09245   2121603.46242                  23475345.5834
         9.0004          2.2504
 00  5  2 16  0 29.9970000  0  6G 2G 4G 7G 9G24G26
  21132177.2124   -4196386.91847  -3265120.59745                  21132178.3604
        22.2504         11.5004
  20027826.5174  -25859700.31347 -19674629.36146                  20027826.9274
        27.2504         18.0004
  20436001.8134   -4408558.44147  -3426142.67846                  20436002.3294
        26.7504         18.5004
  20961833.2124  -20052483.90847 -15342548.79246                  20961833.6924
        24.0004         14.5004
  22205652.3684   -8785083.36246  -6516644.12944                  22205655.0874
        13.0004          4.0004
  23478958.1654    1147143.54345   2136405.79542                  23478959.9584
         8.5004          2.0004
 00  5  2 16  0 44.9970000  0  6G 2G 4G 7G 9G24G26
  21132695.8764   -4193661.92247  -3262997.24645                  21132697.0014
        22.2504         11.7504
  20018878.9234  -25906719.54747 -19711267.70446                  20018879.4154
        27.5004         18.2504
  20437199.1344   -4402266.60947  -3421239.96246                  20437199.7204
        26.7504         18.5004
  20953299.9784  -20097327.40847 -15377491.77446                  20953300.4934
        24.5004         14.2504
  22192424.9624   -8854595.16046  -6570809.08344                  22192428.8534
        13.2504          4.2504
  23482579.1884    1166170.32745   2151231.72342                  23482581.3104
         8.2504          2.0004
 00  5  2 16  0 59.9970000  0  6G 2G 4G 7G 9G24G26
  21133228.3994   -4190862.88247  -3260816.19145                  21133229.5364
        22.2504         11.2504
  20009957.3844  -25953602.46847 -19747799.83446                  20009957.7474
        27.5004         18.2504
  20438406.8684   -4395920.11347  -3416294.64746                  20438407.6064
        26.5004         18.7504
  20944790.2354  -20142045.93547 -15412337.37246                  20944790.7394
        24.2504         15.0004
  22179206.0954   -8924057.66246  -6624935.60844                  22179209.6104
        13.0004          4.2504
  23486205.9854    1185227.66945   2166081.53542                  23486208.5174
         8.2504          1.7504
 00  5  2 16  1 14.9970000  0  6G 2G 4G 7G 9G24G26
  21133775.5014   -4187989.00447  -3258576.81845                  21133776.6034
        22.2504         11.2504
  20001062.2124  -26000347.89548 -19784224.82746                  20001062.3994
        28.0004         19.0004
  20439625.0874   -4389518.30347  -3411306.23746                  20439625.7084
        26.7504         18.5004
  20936304.5014  -20186638.53047 -15447084.84146                  20936305.1224
        24.2504         14.7504
  22165997.8064   -8993469.79646  -6679022.90444                  22166000.3964
        13.0004          4.2504
  23489838.0484    1204315.90245   2180955.37342                  23489838.7164
         8.2504          2.0004
 00  5  2 16  1 29.9970000  0  6G 2G 4G 7G 9G24G26
  21134337.0484   -4185038.65847  -3256277.87045                  21134338.0794
        22.5004         11.2504
  19992193.1654  -26046954.05648 -19820541.29846                  19992193.4354
        28.0004         18.7504
  20440854.2204   -4383059.87747  -3406273.71146                  20440854.8534
        26.7504         18.7504
  20927843.2824  -20231103.41147 -15481732.80046                  20927843.4354
        24.2504         15.0004
  22152798.9464   -9062829.53046  -6733069.36044                  22152801.1854
        13.2504          4.0004
  23493475.5174    1223436.23145   2195854.23142                  23493479.4894
         7.5004          2.2504
 00  5  2 16  1 44.9970000  0  6G 2G 4G 7G 9G24G26
  21134912.2044   -4182015.02147  -3253921.80445                  21134913.0484
        22.2504         11.5004
  19983350.2824  -26093424.13848 -19856751.73946                  19983350.4234
        28.5004         19.2504
  20442093.1034   -4376548.26847  -3401199.74046                  20442093.7004
        26.7504         18.7504
  20919405.4784  -20275443.54647 -15516283.54546                  20919405.6304
        23.7504         14.5004
  22139609.6344   -9132139.97346  -6787077.44345                  22139612.7634
        13.7504          4.5004
  23497120.3844    1242585.03345   2210775.23942                  23497124.9424
         8.2504          2.0004
 00  5  2 16  1 59.9970000  0  7G 2G 4G 7G 5G 9G24G26
  21135501.9464   -4178916.73647  -3251507.57945                  21135502.7784
        22.2504         11.0004
  19974533.5324  -26139756.40448 -19892854.78846                  19974533.7084
        28.2504         18.7504
  20443342.8534   -4369982.34347  -3396083.44746                  20443343.2744
        26.7504         18.5004
  23731706.8134     -43512.61753
         5.7504
  20910991.9154  -20319657.34047 -15550735.84846                  20910992.2314
        24.2504         14.5004
  22126429.8844   -9201399.29846  -6841045.64445                  22126433.6344
        13.7504          4.5004
  23500769.3134    1261763.31045   2225719.30142                  23500772.0214
         7.5004          1.7504
 00  5  2 16  2 14.9970000  0  7G 2G 4G 7G 5G 9G24G26
  21136105.6734   -4175744.39847  -3249035.65145                  21136106.7284
        22.7504         11.5004
  19965743.0794  -26185951.16348 -19928850.69346                  19965743.4544
        29.0004         19.2504
  20444602.3454   -4363362.94447  -3390925.48846                  20444602.9664
        27.0004         18.2504
  23720414.9464    -102853.09043
         6.0004
  20902602.1574  -20363745.26347 -15585090.06846                  20902602.6614
        23.7504         14.5004
  22113259.7984   -9270607.89546  -6894974.33945                  22113263.2784
        14.0004          4.5004
  23504424.9314    1280969.93245   2240685.39542                  23504427.5214
         7.7504          2.2504
 00  5  2 16  2 29.9970000  0  7G 2G 4G 7G 5G 9G24G26
  21136723.5564   -4172496.72547  -3246505.01745                  21136724.3414
        22.2504         11.5004
  19956978.8064  -26232007.20348 -19964738.49946                  19956979.2744
        28.5004         18.7504
  20445872.3534   -4356689.03347  -3385725.05346                  20445873.1264
        26.7504         18.2504
  23709122.3924    -162192.71644
         7.0004
  20894236.8064  -20407705.93647 -15619345.13446                  20894237.1924
        24.2504         14.7504
  22100100.0094   -9339764.26546  -6948862.34045                  22100104.2634
        13.5004          4.5004
  23508085.3994    1300205.79845   2255674.24842                  23508089.3254
         7.5004          1.7504
 00  5  2 16  2 44.9970000  0  7G 2G 4G 7G 5G 9G24G26
  21137356.0634   -4169173.69847  -3243915.65345                  21137356.9314
        22.5004         10.7504
  19948241.1654  -26277924.13048 -20000517.91146                  19948241.6224
        28.5004         18.7504
  20447152.6884   -4349961.04247  -3380482.46846                  20447153.2394
        26.7504         18.2504
  23697831.1494    -221531.55344
         7.0004
  20885895.7204  -20451539.29247 -15653500.99046                  20885895.9314
        24.5004         14.2504
  22086949.4854   -9408868.16446  -7002709.45445                  22086952.7554
        13.2504          4.7504
  23511751.3994    1319470.42744   2270685.56342                  23511757.1654
         7.0004          2.0004
 00  5  2 16  2 59.9970000  0  7G 2G 4G 7G 5G 9G24G26
  21138002.4624   -4165776.82247  -3241268.77045                  21138003.2124
        22.0004         11.0004
  19939529.4624  -26323703.37648 -20036190.03346                  19939529.5674
        28.5004         18.7504
  20448442.9384   -4343180.58047  -3375199.00446                  20448443.8174
        26.2504         17.7504
  23686538.5094    -280871.04945
         7.5004
  20877578.3374  -20495246.47247 -15687558.52646                  20877578.5244
        24.7504         14.7504
  22073809.5014   -9477920.75446  -7056516.58745                  22073812.8294
        13.7504          4.5004
  23515423.3294    1338761.93144   2285717.78742                  23515428.2634
         7.0004          2.0004
 00  5  2 16  3 14.9970000  0  7G 2G 4G 7G 5G 9G24G26
  21138663.0794   -4162304.24347  -3238562.88645                  21138663.7244
        22.0004         10.2504
  19930844.5794  -26369342.82648 -20071753.22546                  19930845.0244
        28.2504         18.2504
  20449743.5954   -4336346.03247  -3369873.39346                  20449744.1814
        26.7504         17.5004
  23675246.9934    -340209.29644    -27740.09751                  23675249.8174
         7.0004          0.7504
  20869285.5014  -20538825.52247 -15721516.22346                  20869285.6774
        24.5004         14.5004
  22060678.7124   -9546919.80546  -7110281.98245                  22060681.6654
        13.2504          4.7504
  23519099.1344    1358081.75645   2300772.07342                  23519106.5564
         7.5004          1.5004
 00  5  2 16  3 29.9970000  0  7G 2G 4G 7G 5G 9G24G26
  21139338.0404   -4158758.38847  -3235799.89645                  21139339.2004
        22.0004         10.5004
  19922185.8454  -26414844.66648 -20107209.19446                  19922186.2674
        28.0004         17.5004
  20451053.9384   -4329460.02147  -3364507.68446                  20451054.9464
        26.2504         16.2504
  23663954.6884    -399548.71444    -73978.56942                  23663962.8374
         7.2504          1.5004
  20861016.7204  -20582278.49647 -15755375.67446                  20861016.9424
        24.0004         13.7504
  22047558.6424   -9615867.48246  -7164007.36445                  22047561.0674
        13.7504          4.5004
  23522780.7594    1377427.05045   2315846.24342                  23522787.5094
         7.7504          1.5004
 00  5  2 16  3 44.9970000  0  7G 2G 4G 7G 5G 9G24G26
  21140026.5714   -4155139.53547  -3232980.02745                  21140027.5324
        21.5004         11.0004
  19913553.3764  -26460209.00048 -20142558.00046                  19913553.5054
        28.0004         18.2504
  20452373.7744   -4322523.11747  -3359102.30946                  20452374.5244
        26.2504         17.5004
  23652662.4074    -458889.59245   -120218.17942                  23652664.1774
         7.5004          1.5004
  20852771.7044  -20625605.66047 -15789137.10246                  20852771.9154
        24.5004         14.7504
  22034448.2594   -9684763.82146  -7217692.74945                  22034451.5754
        14.0004          4.7504
  23526466.6494    1396797.15644   2330939.67942                  23526470.1304
         7.0004          1.7504
 00  5  2 16  3 59.9970000  0  7G 2G 4G 7G 5G 9G24G26
  21140729.3684   -4151447.08147  -3230102.81645                  21140730.6924
        21.7504         10.7504
  19904947.1344  -26505435.05747 -20177799.07546                  19904947.3104
        27.7504         18.5004
  20453703.6574   -4315534.91247  -3353656.96946                  20453704.2084
        26.7504         17.5004
  23641370.1654    -518231.38044   -166458.48441                  23641374.1614
         7.0004          1.2504
  20844551.1494  -20668806.32147 -15822799.95246                  20844551.3254
        24.2504         14.7504
  22021347.5714   -9753607.86646  -7271337.37845                  22021350.2674
        14.0004          5.0004
  23530158.3064    1416192.13744   2346052.56841                  23530165.9744
         7.2504          1.2504
 00  5  2 16  4 14.9970000  0  7G 2G 4G 7G 5G 9G24G26
  21141446.5174   -4147679.14047  -3227166.77145                  21141447.7124
        21.5004         10.2504
  19896367.5874  -26550520.78048 -20212930.79146                  19896367.8214
        28.2504         18.2504
  20455043.7124   -4308493.91247  -3348170.48646                  20455044.2744
        27.0004         17.0004
  23630078.2514    -577572.17944   -212698.02541                  23630086.5634
         6.5004          1.2504
  20836354.7284  -20711878.38947 -15856362.59046                  20836354.7284
        24.2504         14.2504
  22008257.5094   -9822397.68646  -7324939.74745                  22008260.3454
        13.7504          5.0004
  23533853.1884    1435613.53444   2361186.00041                  23533859.9504
         7.0004          1.2504
 00  5  2 16  4 29.9970000  0  7G 2G 4G 7G 5G 9G24G26
  21142177.6184   -4143836.48547  -3224172.51845                  21142178.2164
        21.5004         10.0004
  19887814.7514  -26595466.85548 -20247953.69146                  19887814.9154
        28.2504         18.0004
  20456393.5174   -4301401.15947  -3342643.66946                  20456393.9274
        27.0004         16.7504
  23618786.4624    -636912.80144   -258937.40541                  23618787.3534
         6.7504          1.2504
  20828182.8764  -20754822.51647 -15889825.54846                  20828183.0634
        25.0004         14.0004
  21995177.2674   -9891133.59946  -7378500.12645                  21995179.9154
        13.2504          4.5004
  23537554.2044    1455060.03445   2376338.97441                  23537560.3454
         7.5004          1.2504
 00  5  2 16  4 44.9970000  0  7G 2G 4G 7G 5G 9G24G26
  21142922.9074   -4139920.70447  -3221121.29445                  21142924.1734
        21.2504         10.0004
  19879287.9544  -26640274.53448 -20282868.75246                  19879288.0604
        28.2504         17.5004
  20457752.5174   -4294258.38647  -3337077.88846                  20457752.8924
        26.7504         17.0004
  23607493.2824    -696254.78144   -305177.99141                  23607493.0834
         7.0004          1.0004
  20820035.0014  -20797640.05147 -15923189.85546                  20820035.7864
        25.2504         14.0004
  21982107.5714   -9959816.92546  -7432019.54045                  21982110.4424
        13.2504          4.5004
  23541259.2354    1474529.71844   2391510.13841                  23541260.7354
         7.2504          1.2504
 00  5  2 16  4 59.9970000  0  7G 2G 4G 7G 5G 9G24G26
  21143682.2044   -4135929.27947  -3218011.12245                  21143683.7634
        21.0004         10.0004
  19870788.1734  -26684941.19348 -20317673.93046                  19870788.3724
        28.2504         17.7504
  20459121.9464   -4287063.30147  -3331471.34146                  20459122.4274
        27.0004         17.0004
  23596201.4234    -755595.52044   -351417.37441                  23596206.6494
         6.5004          1.0004
  20811911.3924  -20840328.32347 -15956453.44046                  20811911.6034
        25.0004         14.2504
  21969047.5954  -10028444.91846  -7485495.83545                  21969051.6034
        13.0004          4.5004
  23544968.6494    1494024.64044   2406700.79442                  23544974.2284
         7.2504          1.5004
 00  5  2 16  5 14.9970000  0  7G 2G 4G 7G 5G 9G24G26
  21144455.9934   -4131863.72347  -3214843.18745                  21144457.4354
        21.2504         10.2504
  19862314.9784  -26729468.04848 -20352370.16046                  19862315.2004
        28.7504         18.5004
  20460500.7904   -4279817.69647  -3325825.41946                  20460501.2124
        26.7504         16.7504
  23584909.1494    -814936.53543   -397657.18442                  23584912.0914
         6.0004          1.5004
  20803812.4314  -20882888.70447 -15989617.36746                  20803812.8534
        25.0004         14.2504
  21955998.3134  -10097018.73146  -7538929.89645                  21956001.9704
        13.2504          4.7504
  23548683.5244    1513542.91544   2421909.72741                  23548687.3334
         7.0004          0.7504
 00  5  2 16  5 29.9970000  0  7G 2G 4G 7G 5G 9G24G26
  21145243.0874   -4127728.11447  -3211620.67145                  21145244.3064
        21.2504         10.0004
  19853867.5954  -26773859.13048 -20386960.59846                  19853867.7004
        28.2504         18.5004
  20461888.2984   -4272525.83647  -3320143.46546                  20461888.7674
        27.5004         17.0004
  23573616.2674    -874281.91043   -443900.24841                  23573621.9854
         6.0004          1.2504
  20795737.3534  -20925325.11647 -16022684.70046                  20795737.5054
        25.5004         14.7504
  21942958.7824  -10165542.10146  -7592324.66845                  21942963.3764
        13.2504          4.5004
  23552400.7514    1533079.98844   2437133.36541                  23552403.5754
         6.7504          1.2504
 00  5  2 16  5 44.9970000  0  7G 2G 4G 7G 5G 9G24G26
  21146044.4234   -4123517.46047  -3208339.65645                  21146045.4784
        21.7504         10.2504
  19845447.1104  -26818109.23848 -20421441.18946                  19845447.2744
        28.5004         18.0004
  20463285.5794   -4265183.04147  -3314421.81246                  20463286.0834
        27.5004         16.7504
  23562323.2434    -933626.74744   -490142.97041                  23562326.4314
         6.2504          1.2504
  20787686.1884  -20967632.44047 -16055651.44246                  20787686.5174
        25.5004         14.5004
  21929929.6734  -10234009.90546  -7645676.11045                  21929933.5404
        13.5004          4.5004
  23556122.8374    1552640.48644   2452375.18341                  23556123.6104
         6.7504          1.2504
 00  5  2 16  5 59.9970000  0  7G 2G 4G 7G 5G 9G24G26
  21146859.9314   -4119232.70047  -3205000.90645                  21146860.8924
        22.0004         10.5004
  19837053.2284  -26862219.02148 -20455812.43546                  19837053.1344
        28.5004         18.5004
  20464692.3844   -4257790.56747  -3308661.45346                  20464692.8174
        27.5004         17.0004
  23551029.5954    -992971.95344   -536385.92541                  23551027.2864
         6.2504          1.2504
  20779660.1424  -21009811.32447 -16088518.09546                  20779660.2714
        25.7504         15.0004
  21916911.3764  -10302422.76946  -7698984.77345                  21916915.3964
        14.0004          4.7504
  23559850.0094    1572223.05444   2467634.13642                  23559855.3534
         7.2504          1.5004
 00  5  2 16  6 14.9970000  0  7G 2G 4G 7G 5G 9G24G26
  21147689.3134   -4114873.26247  -3201603.96745                  21147690.5674
        21.7504         10.2504
  19828686.4154  -26906187.69348 -20490073.72246                  19828686.5564
        28.2504         17.5004
  20466108.4784   -4250347.90947  -3302861.99346                  20466108.9584
        27.0004         16.5004
  23539736.2124   -1052316.84144   -582628.65942                  23539736.3764
         6.2504          1.5004
  20771658.1344  -21051861.04247 -16121284.11346                  20771658.0284
        25.2504         15.0004
  21903902.9074  -10370779.72646  -7752249.86245                  21903905.5444
        14.0004          4.7504
  23563579.7514    1591827.76944   2482910.43742                  23563583.3724
         7.0004          1.5004
 00  5  2 16  6 29.9970000  0  7G 2G 4G 7G 5G 9G24G26
  21148533.4314   -4110438.75547  -3198148.53845                  21148534.8724
        21.7504         11.0004
  19820346.1574  -26950014.85548 -20524224.74246                  19820346.1574
        28.5004         18.7504
  20467534.5174   -4242855.05347  -3297023.41446                  20467534.9034
        27.0004         17.7504
  23528443.8684   -1111661.14843   -628871.02441                  23528451.8884
         6.0004          1.2504
  20763681.0484  -21093781.09947 -16153949.09346                  20763681.2124
        25.2504         15.5004
  21890906.0094  -10439080.26546  -7805470.98545                  21890908.7634
        14.2504          4.7504
  23567316.0244    1611454.53744   2498203.85342                  23567320.4664
         7.2504          1.5004
 00  5  2 16  6 44.9970000  0  7G 2G 4G 7G 5G 9G24G26
  21149391.3294   -4105930.00047  -3194635.25045                  21149392.5834
        21.7504         11.0004
  19812033.1264  -26993701.12648 -20558265.97746                  19812033.3844
        28.5004         19.0004
  20468969.4464   -4235313.12047  -3291146.59546                  20468970.1964
        26.7504         17.5004
  23517151.8844   -1171005.73144   -675113.45041                  23517156.3964
         6.7504          1.2504
  20755728.5874  -21135572.20047 -16186513.58046                  20755728.7634
        25.7504         16.2504
  21877919.3454  -10507324.85946  -7858648.55545                  21877922.5564
        14.7504          5.2504
  23571055.0244    1631102.18344   2513513.62742                  23571058.2714
         7.2504          1.5004
 00  5  2 16  6 59.9970000  0  7G 2G 4G 7G 5G 9G24G26
  21150262.6884   -4101349.49947  -3191066.05445                  21150263.9664
        21.7504         10.5004
  19803746.0954  -27037248.94648 -20592199.33246                  19803746.1774
        28.2504         18.7504
  20470413.7124   -4227724.83147  -3285233.65146                  20470414.2044
        26.7504         17.0004
  23505858.3844   -1230353.01944   -721358.05441                  23505860.6814
         7.2504          1.0004
  20747800.0714  -21177236.76047 -16218979.47346                  20747800.2594
        26.0004         15.5004
  21864942.9854  -10575515.82646  -7911784.29145                  21864945.6694
        14.7504          5.0004
  23574796.7594    1650767.72845   2528837.31641                  23574798.9974
         7.5004          1.2504
 00  5  2 16  7 14.9970000  0  7G 2G 4G 7G 5G 9G24G26
  21151148.7984   -4096693.29447  -3187437.86645                  21151149.8884
        21.5004         10.0004
  19795486.3604  -27080654.16948 -20626021.56946                  19795486.5604
        28.5004         19.0004
  20471867.1264   -4220086.41147  -3279281.64146                  20471867.7354
        26.7504         17.0004
  23494564.4234   -1289698.91945   -767601.57541                  23494564.5174
         7.5004          1.2504
  20739896.5404  -21218770.49247 -16251343.41146                  20739896.6694
        26.0004         15.2504
  21851977.9704  -10643648.84546  -7964874.88945                  21851980.5244
        15.0004          5.0004
  23578542.9464    1670454.74944   2544177.65242                  23578547.5994
         7.2504          1.7504
 00  5  2 16  7 29.9970000  0  7G 2G 4G 7G 5G 9G24G26
  21152048.7674   -4091964.51147  -3183753.12545                  21152049.7164
        21.0004         10.0004
  19787253.2284  -27123919.37848 -20659734.70046                  19787253.2984
        29.0004         19.0004
  20473329.6964   -4212401.16547  -3273293.15146                  20473330.1304
        26.7504         17.0004
  23483271.3534   -1349046.52445   -813846.45041                  23483273.4854
         7.5004          1.2504
  20732017.3064  -21260176.37447 -16283607.73546                  20732017.5874
        25.7504         15.7504
  21839022.7204  -10711726.70746  -8017922.53645                  21839025.7674
        15.0004          5.2504
  23582292.9464    1690159.80844   2559532.13841                  23582299.4854
         7.0004          1.2504
 00  5  2 16  7 44.9970000  0  7G 2G 4G 7G 5G 9G24G26
  21152963.0324   -4087159.61547  -3180009.07445                  21152964.0754
        21.0004         10.2504
  19779047.5564  -27167041.20348 -20693336.11046                  19779047.7554
        29.2504         19.5004
  20474801.7674   -4204665.81347  -3267265.61546                  20474802.0954
        26.7504         17.2504
  23471977.4154   -1408392.32644   -860089.94642                  23471978.7044
         7.0004          1.5004
  20724162.9784  -21301450.78147 -16315769.61246                  20724163.2594
        26.0004         16.2504
  21826079.1814  -10779745.60346  -8070924.20345                  21826081.9234
        14.7504          5.5004
  23586047.1964    1709885.99044   2574903.06842                  23586050.6064
         6.7504          1.7504
 00  5  2 16  7 59.9970000  0  7G 2G 4G 7G 5G 9G24G26
  21153891.5954   -4082280.23447  -3176206.98345                  21153892.6854
        20.5004          9.7504
  19770868.7674  -27210020.94448 -20726826.79946                  19770868.6964
        29.2504         19.5004
  20476282.7204   -4196882.22847  -3261200.49346                  20476283.3064
        27.0004         17.5004
  23460683.7354   -1467738.07544   -906333.40641                  23460688.6344
         7.0004          1.2504
  20716333.3764  -21342595.17647 -16347830.17646                  20716333.6464
        25.7504         16.2504
  21813146.7284  -10847706.87846  -8123880.97845                  21813149.5754
        14.7504          5.7504
  23589804.1494    1729631.19145   2590288.83141                  23589804.3724
         7.5004          1.2504
 00  5  2 16  8 14.9970000  0  7G 2G 4G 7G 5G 9G24G26
  21154834.0874   -4077327.62447  -3172347.83745                  21154835.7164
        20.5004          9.7504
  19762716.8374  -27252859.80848 -20760207.71546                  19762716.7554
        29.0004         20.0004
  20477773.1104   -4189052.05947  -3255099.07546                  20477773.3214
        26.7504         17.7504
  23449391.3604   -1527084.94944   -952577.60041                  23449397.1384
         7.0004          1.0004
  20708528.4934  -21383610.63747 -16379790.27046                  20708528.6224
        25.7504         16.2504
  21800224.9544  -10915611.52346  -8176793.63045                  21800227.5674
        14.5004          5.2504
  23593565.2514    1749393.59545   2605687.89942                  23593570.5954
         8.2504          1.5004
 00  5  2 16  8 29.9970000  0  7G 2G 4G 7G 5G 9G24G26
  21155790.4314   -4072302.35247  -3168432.06445                  21155791.6734
        20.5004          9.7504
  19754591.5634  -27295558.18648 -20793479.16746                  19754591.3884
        29.2504         20.0004
  20479271.7204   -4181176.06047  -3248961.94246                  20479272.0244
        27.0004         17.5004
  23438097.7284   -1586433.52645   -998823.18442                  23438103.4114
         7.7504          1.5004
  20700747.9314  -21424497.61147 -16411650.25146                  20700747.9074
        25.7504         15.7504
  21787313.3374  -10983459.91646  -8229662.44345                  21787315.8104
        14.0004          5.0004
  23597329.5244    1769172.40745   2621099.85742                  23597334.4114
         8.0004          1.7504
 00  5  2 16  8 44.9970000  0  7G 2G 4G 7G 5G 9G24G26
  21156761.0634   -4067201.35947  -3164457.28445                  21156762.4934
        20.2504         10.2504
  19746493.6574  -27338112.74548 -20826638.55046                  19746493.8104
        29.2504         20.5004
  20480779.8604   -4173251.32647  -3242786.83646                  20480780.2354
        27.0004         17.7504
  23426804.9154   -1645780.65345  -1045067.69342                  23426808.5834
         7.7504          1.5004
  20692992.2284  -21465252.85647 -16443407.58346                  20692992.3214
        26.0004         16.7504
  21774413.8134  -11051248.56146  -8282484.72045                  21774417.5524
        13.5004          5.2504
  23601097.5874    1788970.21345   2636526.57542                  23601102.4624
         8.7504          1.7504
 00  5  2 16  8 59.9960000  0  7G 2G 4G 7G 5G 9G24G26
  21157746.0594   -4062024.91847  -3160423.70545                  21157747.1604
        20.2504          9.7504
  19738423.5664  -27380520.48548 -20859683.52646                  19738423.5784
        29.0004         20.5004
  20482296.7464   -4165278.51947  -3236574.27346                  20482297.0634
        27.0004         17.7504
  23415512.3244   -1705122.26845  -1091307.90842                  23415514.6914
         8.2504          1.5004
  20685262.4964  -21505873.42847 -16475059.97246                  20685262.6484
        25.7504         16.7504
  21761526.0664  -11118972.70546  -8335256.70845                  21761529.4654
        13.7504          5.0004
  23604867.6994    1808785.34345   2651966.78642                  23604871.5664
         8.5004          2.0004
 00  5  2 16  9 14.9960000  0  7G 2G 4G 7G 5G 9G24G26
  21158745.3564   -4056774.14346  -3156332.23145                  21158746.8204
        19.7504          9.2504
  19730380.3404  -27422788.56848 -20892619.68646                  19730380.3054
        30.0004         21.0004
  20483822.9104   -4157258.66747  -3230325.04146                  20483823.3444
        26.5004         17.7504
  23404218.7934   -1764468.09145  -1137551.43242                  23404222.7544
         7.7504          1.5004
  20677557.1524  -21546366.39247 -16506612.93246                  20677557.5514
        26.5004         17.0004
  21748648.5044  -11186642.82246  -8387986.59145                  21748651.3164
        13.7504          5.7504
  23608641.6764    1828618.22245   2667420.85542                  23608646.0594
         8.5004          2.0004
 00  5  2 16  9 29.9960000  0  7G 2G 4G 7G 5G 9G24G26
  21159758.7624   -4051448.93247  -3152182.74345                  21159760.0394
        20.0004          9.2504
  19722364.1064  -27464913.66348 -20925444.41846                  19722364.1294
        29.7504         20.5004
  20485358.1844   -4149191.96447  -3224039.31346                  20485358.7234
        27.0004         17.5004
  23392925.9414   -1823813.67845  -1183794.65242                  23392927.4534
         7.7504          1.5004
  20669876.3794  -21586728.33347 -16538063.79446                  20669876.5554
        26.0004         17.2504
  21735782.6374  -11254253.62246  -8440670.27845                  21735785.3914
        13.2504          5.2504
  23612419.0434    1848467.59845   2682887.80142                  23612420.5084
         8.5004          2.0004
 00  5  2 16  9 44.9960000  0  7G 2G 4G 7G 5G 9G24G26
  21160786.0514   -4046049.97046  -3147975.78445                  21160787.8094
        19.7504          9.0004
  19714375.1294  -27506896.32948 -20958158.16946                  19714375.3524
        29.7504         20.2504
  20486901.7314   -4141079.56047  -3217717.96546                  20486902.3634
        26.7504         17.0004
  23381632.8484   -1883159.78744  -1230038.35641                  23381632.7544
         7.0004          1.2504
  20662220.5984  -21626959.95447 -16569413.10546                  20662220.6564
        26.5004         16.2504
  21722928.0274  -11321805.63646  -8493308.15145                  21722930.1844
        14.2504          5.2504
  23616199.6134    1868332.31445   2698366.64142                  23616204.1844
         8.2504          1.5004
 00  5  2 16  9 59.9960000  0  7G 2G 4G 7G 5G 9G24G26
  21161828.2854   -4040573.33346  -3143708.29845                  21161830.0204
        19.7504          9.0004
  19706413.9264  -27548732.37048 -20990757.66546                  19706414.1374
        29.5004         20.7504
  20488454.8484   -4132917.66747  -3211358.05546                  20488454.9064
        26.7504         16.7504
  23370340.1604   -1942502.44644  -1276279.38741                  23370342.2464
         7.0004          1.2504
  20654590.1764  -21667057.19347 -16600657.70146                  20654590.2584
        26.7504         16.5004
  21710085.5984  -11389294.52846  -8545896.84945                  21710088.5164
        14.0004          5.5004
  23619983.1914    1888215.92545   2713860.25242                  23619986.5784
         8.5004          1.5004
 00  5  2 16 10 14.9960000  0  7G 2G 4G 7G 5G 9G24G26
  21162884.7384   -4035022.57646  -3139383.05745                  21162886.0164
        19.7504          8.5004
  19698479.9814  -27590425.28248 -21023245.63246                  19698480.2274
        29.0004         20.0004
  20490016.7854   -4124710.08347  -3204962.54246                  20490017.0664
        27.0004         17.0004
  23359047.5744   -2001845.14845  -1322520.42541                  23359049.7544
         7.5004          1.2504
  20646984.8954  -21707023.30947 -16631800.12846                  20646984.9304
        26.0004         16.7504
  21697254.3324  -11456723.65746  -8598438.95845                  21697256.7464
        14.2504          5.2504
  23623769.5044    1908114.38745   2729365.37941                  23623775.3054
         8.2504          1.2504
 00  5  2 16 10 29.9960000  0  7G 2G 4G 7G 5G 9G24G26
  21163954.8404   -4029398.45347  -3135000.64845                  21163955.9534
        20.0004          8.7504
  19690573.2934  -27631975.53848 -21055622.44246                  19690573.3754
        29.5004         20.0004
  20491587.1604   -4116457.75447  -3198532.16846                  20491587.4774
        27.0004         17.0004
  23347754.9734   -2061188.51745  -1368761.94241                  23347758.0784
         7.5004          1.2504
  20639404.5274  -21746858.91147 -16662840.85646                  20639404.5984
        26.2504         16.5004
  21684433.8244  -11524093.34446  -8650934.78245                  21684436.7424
        14.2504          5.7504
  23627558.7314    1928026.65444   2744881.34042                  23627563.5004
         7.2504          1.5004
 00  5  2 16 10 44.9960000  0  7G 2G 4G 7G 5G 9G24G26
  21165039.7934   -4023697.24647  -3130558.17545                  21165040.9414
        20.2504          8.5004
  19682694.6134  -27673379.36348 -21087885.15346                  19682694.7314
        29.7504         19.7504
  20493166.7314   -4108157.17247  -3192064.19046                  20493167.3874
        26.2504         16.5004
  23336462.6374   -2120528.91745  -1415001.21142                  23336463.7974
         7.7504          1.5004
  20631849.5044  -21786560.13447 -16693776.86946                  20631849.8324
        26.2504         16.5004
  21671626.2314  -11591399.73146  -8703381.25545                  21671628.6804
        14.7504          5.7504
  23631350.7934    1947955.96544   2760410.49442                  23631355.2114
         7.2504          1.5004
 00  5  2 16 10 59.9960000  0  7G 2G 4G 7G 5G 9G24G26
  21166139.4964   -4017919.04947  -3126055.70445                  21166141.0084
        20.2504          8.5004
  19674843.5274  -27714636.72248 -21120033.72746                  19674843.4924
        30.0004         20.0004
  20494755.4814   -4099808.74747  -3185558.93646                  20494756.0314
        26.2504         16.5004
  23325171.1374   -2179866.47645  -1461238.27242                  23325172.1564
         7.7504          1.5004
  20624320.4964  -21826126.96647 -16724608.16846                  20624320.8364
        26.7504         16.2504
  21658829.8954  -11658642.59046  -8755778.23945                  21658832.8134
        14.7504          5.0004
  23635147.3164    1967901.70345   2775952.49341                  23635152.3094
         7.7504          1.2504
 00  5  2 16 11 14.9960000  0  7G 2G 4G 7G 5G 9G24G26
  21167253.2544   -4012065.41847  -3121494.45145                  21167254.4844
        20.2504          9.0004
  19667019.9264  -27755748.88548 -21152069.16846                  19667020.1724
        29.5004         20.2504
  20496352.6914   -4091414.15247  -3179017.70046                  20496353.3484
        26.0004         16.2504
  23313879.6294   -2239202.59245  -1507474.11542                  23313883.3204
         8.5004          1.5004
  20616816.4734  -21865560.82847 -16755335.84546                  20616816.7664
        26.7504         17.0004
  21646046.2704  -11725823.19246  -8808126.69545                  21646049.2704
        14.7504          5.7504
  23638945.8164    1987862.11345   2791505.91442                  23638950.6914
         7.7504          1.5004
 00  5  2 16 11 29.9960000  0  7G 2G 4G 7G 5G 9G24G26
  21168381.7704   -4006136.00447  -3116874.16245                  21168382.7074
        20.5004          9.0004
  19659224.3484  -27796715.34148 -21183991.07546                  19659224.4884
        29.2504         19.7504
  20497959.1454   -4082973.27247  -3172440.40046                  20497959.5784
        26.0004         16.5004
  23302588.1524   -2298536.87845  -1553708.60342                  23302590.0394
         7.5004          1.7504
  20609337.8014  -21904861.19647 -16785959.50846                  20609338.0354
        27.0004         17.0004
  21633273.5434  -11792940.84846  -8860426.12245                  21633276.4264
        14.7504          5.5004
  23642746.7234    2007837.13245   2807070.75642                  23642750.3914
         7.7504          1.7504
 00  5  2 16 11 44.9960000  0  7G 2G 4G 7G 5G 9G24G26
  21169524.0904   -4000133.71747  -3112197.07445                  21169525.4144
        20.5004          8.5004
  19651455.8324  -27837538.95248 -21215801.66146                  19651455.9494
        29.2504         19.7504
  20499573.4884   -4074489.28247  -3165829.50346                  20499573.8404
        25.7504         16.2504
  23291297.6294   -2357872.29844  -1599943.99842                  23291300.0554
         7.2504          1.5004
  20601884.0274  -21944030.82247 -16816481.29446                  20601884.0984
        26.7504         16.5004
  21620513.4024  -11859998.20746  -8912678.55245                  21620515.7344
        15.7504          6.0004
  23646551.2154    2027823.24344   2822644.16142                  23646556.6524
         7.2504          2.0004
 00  5  2 16 11 59.9960000  0  7G 2G 4G 7G 5G 9G24G26
  21170680.1524   -3994057.63447  -3107462.48545                  21170680.9494
        20.2504          8.5004
  19643714.8164  -27878218.50648 -21247500.00346                  19643714.9344
        29.5004         19.7504
  20501196.1994   -4065961.53547  -3159184.52646                  20501196.9024
        26.0004         15.7504
  23280006.5354   -2417207.85545  -1646179.46142                  23280006.1374
         7.5004          1.7504
  20594455.4414  -21983068.66147 -16846900.38346                  20594455.5004
        27.0004         17.0004
  21607763.8014  -11926994.13946  -8964883.12045                  21607766.4384
        15.2504          5.7504
  23650355.6914    2047821.08544   2838226.76042                  23650360.2154
         7.0004          1.7504
 00  5  2 16 12 14.9960000  0  7G 2G 4G 7G 5G 9G24G26
  21171851.3244   -3987904.34247  -3102667.73945                  21171853.0234
        20.2504          8.2504
  19636001.8564  -27918750.59448 -21279083.43346                  19636001.8204
        29.5004         20.0004
  20502827.9344   -4057386.80547  -3152502.91246                  20502828.4494
        25.7504         16.0004
  23268715.8404   -2476540.13145  -1692412.39442                  23268719.1454
         7.5004          1.7504
  20587052.4494  -22021971.22047 -16877214.06846                  20587052.6254
        27.0004         16.5004
  21595027.5594  -11993924.82046  -9017036.84845                  21595030.1724
        15.7504          5.7504
  23654165.2154    2067833.57045   2853820.71242                  23654167.2074
         7.7504          1.7504
 00  5  2 16 12 29.9960000  0  7G 2G 4G 7G 5G 9G24G26
  21173036.4734   -3981676.18947  -3097814.64545                  21173037.1064
        20.2504          8.2504
  19628316.3564  -27959137.31848 -21310553.59446                  19628316.4494
        29.2504         19.7504
  20504468.3094   -4048767.65347  -3145786.69946                  20504468.8014
        25.7504         16.0004
  23257425.6064   -2535871.43745  -1738644.48042                  23257426.7774
         8.0004          2.0004
  20579674.7464  -22060740.74147 -16907424.08546                  20579675.0164
        26.2504         16.7504
  21582303.6374  -12060792.45346  -9069141.44245                  21582306.6024
        15.7504          6.0004
  23657975.2384    2087858.06345   2869424.08342                  23657983.4924
         7.5004          1.5004
 00  5  2 16 12 44.9960000  0  7G 2G 4G 7G 5G 9G24G26
  21174236.0744   -3975371.65147  -3092902.04345                  21174237.4104
        20.5004          8.7504
  19620659.2384  -27999377.03148 -21341909.20346                  19620659.4384
        30.2504         20.0004
  20506116.8484   -4040102.84347  -3139034.91146                  20506117.4574
        25.7504         16.0004
  23246135.4814   -2595200.17345  -1784874.70942                  23246138.6914
         7.7504          1.5004
  20572322.7074  -22099375.49547 -16937529.08346                  20572323.0704
        26.2504         16.2504
  21569591.3164  -12127595.10146  -9121195.40845                  21569594.1294
        15.7504          6.0004
  23661787.6064    2107895.62345   2885037.61842                  23661790.1374
         7.7504          1.7504
 00  5  2 16 12 59.9960000  0  7G 2G 4G 7G 5G 9G24G26
  21175450.5744   -3968989.91747  -3087929.27445                  21175451.8754
        21.0004          8.7504
  19613029.9494  -28039468.65348 -21373149.41146                  19613030.0554
        30.2504         20.0004
  20507774.6214   -4031391.77747  -3132247.06846                  20507775.1724
        25.7504         15.2504
  23234846.2384   -2654525.52845  -1831102.23142                  23234849.8834
         8.2504          1.7504
  20564996.7384  -22137874.42547 -16967528.24846                  20564997.1024
        26.5004         16.5004
  21556891.9104  -12194331.76546  -9173197.96145                  21556894.2194
        16.2504          6.0004
  23665604.1524    2127946.65745   2900661.64042                  23665605.2074
         7.5004          1.5004
 00  5  2 16 13 14.9960000  0  7G 2G 4G 7G 5G 9G24G26
  21176679.0984   -3962535.20447  -3082899.65645                  21176680.2584
        21.0004          9.2504
  19605428.2774  -28079416.41848 -21404277.53246                  19605428.4064
        30.5004         21.0004
  20509440.4414   -4022638.71547  -3125426.50746                  20509441.5554
        25.5004         16.0004
  23223556.9184   -2713851.69345  -1877330.36141                  23223557.3164
         8.2504          1.2504
  20557695.5664  -22176241.57347 -16997424.72446                  20557695.6724
        26.0004         17.0004
  21544203.7544  -12261006.23246  -9225152.02745                  21544206.5664
        16.2504          6.2504
  23669420.9344    2148006.59445   2916292.64742                  23669423.7344
         7.5004          1.7504
 00  5  2 16 13 29.9960000  0  7G 2G 4G 7G 5G 9G24G26
  21177921.5274   -3956005.16447  -3077811.32645                  21177922.6064
        21.0004          9.0004
  19597854.3954  -28119217.65648 -21435291.47146                  19597854.4774
        30.7504         21.2504
  20511114.3954   -4013841.76647  -3118571.75146                  20511115.2624
        25.5004         16.2504
  23212267.6134   -2773176.34145  -1923557.37141                  23212269.8874
         8.0004          1.2504
  20550420.2774  -22214474.48047 -17027216.59746                  20550420.2894
        26.7504         17.2504
  21531528.3404  -12327616.04246  -9277055.73045                  21531530.9304
        15.7504          6.2504
  23673241.0354    2168077.26345   2931931.91942                  23673244.0594
         7.7504          1.5004
 00  5  2 16 13 44.9960000  0  7G 2G 4G 7G 5G 9G24G26
  21179179.0434   -3949397.15747  -3072662.25345                  21179180.1214
        21.2504          9.2504
  19590308.8014  -28158869.68648 -21466189.14146                  19590308.7074
        31.0004         21.0004
  20512797.1914   -4004998.42647  -3111680.84346                  20512798.0944
        25.2504         15.7504
  23200978.8094   -2832496.75845  -1969781.00942                  23200981.3164
         7.5004          1.5004
  20543170.8324  -22252570.42047 -17056901.74646                  20543171.0904
        27.0004         17.2504
  21518865.5274  -12394158.11646  -9328906.63945                  21518867.8834
        15.5004          6.0004
  23677062.7464    2188161.00445   2947581.48341                  23677066.4964
         7.7504          1.2504
 00  5  2 16 13 59.9960000  0  7G 2G 4G 7G 5G 9G24G26
  21180451.0824   -3942712.29347  -3067453.29145                  21180452.1724
        21.0004          8.7504
  19582791.3794  -28198373.46848 -21496971.30346                  19582791.4024
        30.5004         20.5004
  20514488.7624   -3996110.02647  -3104754.83046                  20514489.7234
        25.2504         15.7504
  23189691.7624   -2891814.04245  -2016002.31441                  23189694.3984
         8.0004          1.2504
  20535947.2074  -22290530.21547 -17086480.80046                  20535947.6174
        26.5004         16.7504
  21506215.8874  -12460633.39246  -9380705.50845                  21506218.6524
        15.7504          6.2504
  23680886.5044    2208256.27045   2963239.89842                  23680891.5554
         7.5004          1.7504
 00  5  2 16 14 14.9960000  0  7G 2G 4G 7G 5G 9G24G26
  21181737.6374   -3935951.95347  -3062185.51245                  21181738.4104
        20.5004          9.0004
  19575302.1914  -28237730.14548 -21527638.82646                  19575301.8404
        30.5004         20.2504
  20516188.3164   -3987178.13747  -3097794.93646                  20516188.8914
        26.0004         15.5004
  23178403.8794   -2951129.38645  -2062222.01742                  23178404.6644
         7.7504          1.5004
  20528749.3244  -22328355.27047 -17115954.86846                  20528749.7584
        26.2504         16.7504
  21493578.5744  -12527042.89746  -9432453.12945                  21493581.2704
        15.7504          5.7504
  23684712.8244    2228361.25245   2978905.99442                  23684715.6134
         8.2504          1.5004
 00  5  2 16 14 29.9960000  0  7G 2G 4G 7G 5G 9G24G26
  21183038.7384   -3929114.25447  -3056857.45445                  21183039.9924
        20.2504          8.5004
  19567841.0744  -28276937.81748 -21558190.24846                  19567841.1094
        30.2504         19.5004
  20517896.5984   -3978201.09947  -3090799.84446                  20517897.0314
        26.0004         14.7504
  23167117.9344   -3010440.92144  -2108438.75742                  23167123.3014
         7.2504          1.5004
  20521577.5124  -22366043.49547 -17145322.30946                  20521577.5234
        26.5004         15.7504
  21480954.3564  -12593384.43546  -9484147.76245                  21480956.8984
        16.2504          5.7504
  23688541.1064    2248477.44145   2994580.81642                  23688545.3954
         8.0004          1.5004
 00  5  2 16 14 44.9960000  0  7G 2G 4G 7G 5G 9G24G26
  21184354.4344   -3922199.70647  -3051469.51845                  21184355.6884
        20.5004          8.7504
  19560408.4104  -28315996.70548 -21588625.73046                  19560408.4344
        30.0004         19.5004
  20519613.4264   -3969179.58347  -3083770.09846                  20519613.9534
        25.7504         15.0004
  23155831.6684   -3069749.06745  -2154652.86142                  23155834.8324
         7.7504          1.5004
  20514431.8564  -22403595.27747 -17174583.44046                  20514432.0904
        26.7504         16.2504
  21468342.3874  -12659658.18346  -9535789.60745                  21468344.8244
        16.2504          6.0004
  23692371.0824    2268603.93545   3010263.53842                  23692376.4734
         7.7504          1.7504
 00  5  2 16 14 59.9960000  0  7G 2G 4G 7G 5G 9G24G26
  21185684.9344   -3915207.97347  -3046021.45445                  21185686.0124
        20.2504          8.2504
  19553004.1064  -28354906.46948 -21618945.01246                  19553004.0474
        30.0004         19.7504
  20521338.5744   -3960113.60347  -3076705.70846                  20521338.9384
        25.7504         14.7504
  23144546.6134   -3129053.61545  -2200864.19342                  23144550.0944
         8.0004          1.7504
  20507311.9024  -22441010.15647 -17203737.88546                  20507312.0314
        26.5004         16.2504
  21455743.8094  -12725863.63446  -9587378.24045                  21455745.9304
        16.5004          6.0004
  23696202.8714    2288740.70844   3025954.41242                  23696212.0984
         7.0004          1.5004
 00  5  2 16 15 14.9960000  0  7G 2G 4G 7G 5G 9G24G26
  21187029.6134   -3908141.14046  -3040514.84545                  21187030.6094
        19.7504          8.5004
  19545627.5824  -28393668.97248 -21649149.54246                  19545627.6644
        30.0004         19.7504
  20523071.7854   -3951005.36847  -3069608.39446                  20523072.4064
        25.7504         15.2504
  23133260.8634   -3188356.49545  -2247074.18342                  23133261.7664
         7.7504          1.7504
  20500217.8244  -22478289.99947 -17232787.11146                  20500217.9184
        26.2504         16.0004
  21443158.0824  -12792002.56046  -9638915.00745                  21443160.5784
        16.7504          6.0004
  23700035.6064    2308885.18144   3041651.26241                  23700038.7934
         6.7504          1.2504
 00  5  2 16 15 29.9960000  0  7G 2G 4G 7G 5G 9G24G26
  21188389.1684   -3900998.16847  -3034948.93645                  21188390.7274
        20.2504          8.2504
  19538279.9104  -28432283.04348 -21679238.41446                  19538280.0744
        30.2504         19.7504
  20524813.4814   -3941854.08647  -3062477.53546                  20524814.2074
        25.7504         14.2504
  23121977.0204   -3247656.58045  -2293281.99541                  23121975.9534
         8.2504          1.0004
  20493149.6294  -22515433.67647 -17261730.24046                  20493149.8754
        26.5004         16.2504
  21430585.5744  -12858073.61246  -9690398.90745                  21430588.3874
        17.0004          6.5004
  23703872.3484    2329038.08344   3057354.68241                  23703876.9414
         7.2504          1.2504
 00  5  2 16 15 44.9960000  0  7G 2G 4G 7G 5G 9G24G26
  21189762.6844   -3893779.81647  -3029324.26845                  21189763.9964
        20.0004          8.7504
  19530959.7384  -28470749.34348 -21709212.14346                  19530959.6214
        30.2504         20.0004
  20526562.7074   -3932660.70247  -3055313.87046                  20526563.3284
        26.0004         15.0004
  23110693.1294   -3306954.64745  -2339488.27442                  23110691.3484
         8.2504          1.5004
  20486107.2074  -22552441.83547 -17290567.76346                  20486107.4884
        26.2504         16.5004
  21418025.8404  -12924077.16946  -9741830.19145                  21418027.8444
        17.7504          6.2504
  23707708.3244    2349198.22144   3073063.65741                  23707712.8134
         6.5004          1.2504
 00  5  2 16 15 59.9960000  0  7G 2G 4G 7G 5G 9G24G26
  21191150.4414   -3886486.94246  -3023641.53645                  21191151.5314
        19.7504          8.2504
  19523668.0594  -28509068.40748 -21739071.14046                  19523668.0594
        30.2504         19.5004
  20528319.8404   -3923426.22247  -3048118.17846                  20528320.4144
        25.7504         14.5004
  23099409.3324   -3366251.50245  -2385693.58542                  23099411.8874
         8.5004          1.5004
  20479090.3714  -22589315.17547 -17319300.23946                  20479090.8754
        26.2504         16.2504
  21405477.8244  -12990013.91846  -9793209.43745                  21405480.2624
        16.7504          6.5004
  23711545.4264    2369364.38144   3088777.37741                  23711552.2854
         6.7504          1.2504
 00  5  2 16 16 14.9960000  0  7G 2G 4G 7G 5G 9G24G26
  21192552.5744   -3879118.96947  -3017900.28245                  21192553.8634
        20.2504          8.5004
  19516404.1524  -28547239.77048 -21768815.04846                  19516404.1884
        30.2504         19.7504
  20530085.2464   -3914150.40547  -3040890.28046                  20530086.0314
        25.7504         15.0004
  23088125.7544   -3425546.48745  -2431897.44042                  23088128.4614
         9.0004          1.5004
  20472099.3634  -22626053.04047 -17347927.15146                  20472099.4814
        26.5004         16.5004
  21392943.0904  -13055882.99046  -9844535.94845                  21392945.9844
        16.0004          6.5004
  23715385.0744    2389536.78344   3104495.91341                  23715393.2704
         7.0004          0.7504
 00  5  2 16 16 29.9960000  0  7G 2G 4G 7G 5G 9G24G26
  21193969.7074   -3871674.19947  -3012099.19045                  21193970.8674
        20.2504          9.5004
  19509169.0204  -28585261.49248 -21798442.35146                  19509169.2194
        30.5004         21.5004
  20531858.5664   -3904831.66747  -3033628.93146                  20531858.8834
        26.0004         16.2504
  23076842.3564   -3484837.85745  -2478098.50942                  23076845.4384
         8.2504          1.5004
  20465134.7314  -22662653.52947 -17376447.01146                  20465135.0004
        26.7504         17.7504
  21380422.1064  -13121682.28846  -9895808.07845                  21380424.9884
        16.2504          7.0004
  23719224.5904    2409716.59944   3120220.31341                  23719228.7974
         6.2504          1.2504
 00  5  2 16 16 44.9960000  0  7G 2G 4G 7G 5G 9G24G26
  21195400.8094   -3864152.38847  -3006238.06345                  21195402.0044
        20.2504          9.5004
  19501962.2074  -28623133.02748 -21827952.61546                  19501962.0434
        30.2504         22.0004
  20533640.0904   -3895469.99747  -3026334.13846                  20533640.6994
        25.7504         17.2504
  23065561.2624   -3544125.36245  -2524296.54842                  23065564.0274
         8.5004          2.0004
  20458196.1134  -22699116.29947 -17404859.55946                  20458196.4414
        27.0004         18.5004
  21367914.3634  -13187411.31946  -9947025.45445                  21367916.8364
        16.7504          7.5004
  23723066.0984    2429903.77344   3135950.28242                  23723075.1024
         6.2504          1.5004
 00  5  2 16 16 59.9960000  0  7G 2G 4G 7G 5G 9G24G26
  21196846.4574   -3856555.78046  -3000318.64145                  21196847.4184
        19.7504          9.5004
  19494783.6604  -28660856.70548 -21857347.67746                  19494783.7314
        30.2504         22.0004
  20535429.0434   -3886068.01247  -3019007.92746                  20535429.7814
        25.7504         16.2504
  23054278.5664   -3603411.32645  -2570493.38942                  23054281.2624
         8.2504          1.5004
  20451283.1684  -22735443.44147 -17433166.41846                  20451283.2624
        26.7504         18.2504
  21355419.4024  -13253072.06246  -9998189.61945                  21355421.8754
        16.5004          7.0004
  23726909.1914    2450095.65344   3151684.06642                  23726917.8324
         6.5004          1.5004
 00  5  2 16 17 14.9960000  0  7G 2G 4G 7G 5G 9G24G26
  21198306.2464   -3848884.12246  -2994340.75645                  21198307.6994
        19.7504          9.0004
  19487633.1454  -28698431.96348 -21886627.08746                  19487633.2034
        30.2504         21.7504
  20537225.9494   -3876625.41547  -3011650.06746                  20537226.7704
        25.5004         16.5004
  23042997.5514   -3662695.19045  -2616688.56542                  23042996.7894
         8.2504          2.0004
  20444396.0824  -22771634.44847 -17461367.20446                  20444396.0944
        27.2504         18.0004
  21342937.8244  -13318663.89946 -10049300.10945                  21342940.6254
        16.7504          7.0004
  23730751.5354    2470292.07544   3167421.41341                  23730757.6174
         6.7504          1.2504
 00  5  2 16 17 29.9960000  0  7G 2G 4G 7G 5G 9G24G26
  21199780.5434   -3841136.86947  -2988303.95645                  21199781.4814
        20.2504          8.7504
  19480511.2704  -28735858.14048 -21915790.32446                  19480511.2234
        30.2504         21.5004
  20539030.8484   -3867141.93947  -3004260.35146                  20539031.5164
        25.7504         16.5004
  23031717.3244   -3721976.42945  -2662881.73042                  23031716.9264
         8.5004          1.7504
  20437535.2074  -22807688.74447 -17489461.45746                  20437534.8674
        27.5004         18.5004
  21330469.0664  -13384186.11246 -10100356.32245                  21330471.7274
        16.2504          7.0004
  23734596.7774    2490493.22544   3183162.36341                  23734604.4814
         7.0004          1.2504
 00  5  2 16 17 44.9960000  0  7G 2G 4G 7G 5G 9G24G26
  21201269.2384   -3833314.24747  -2982208.43245                  21201270.4454
        20.2504          9.0004
  19473417.6294  -28773135.41848 -21944837.53946                  19473417.6294
        29.7504         21.7504
  20540842.9344   -3857618.03047  -2996839.13546                  20540843.4964
        26.0004         16.5004
  23020436.3794   -3781255.24245  -2709072.99442                  23020436.4844
         8.7504          2.0004
  20430700.4414  -22843606.38147 -17517449.22646                  20430700.4884
        27.5004         17.7504
  21318013.9344  -13449638.57046 -10151358.19145                  21318016.4534
        16.5004          6.7504
  23738441.6374    2510698.51244   3198906.60541                  23738445.3164
         6.2504          1.2504
 00  5  2 16 17 59.9960000  0  7G 2G 4G 7G 5G 9G24G26
  21202772.6214   -3825414.56047  -2976052.85445                  21202773.1374
        20.2504          8.7504
  19466352.5824  -28810262.06948 -21973767.38246                  19466352.6294
        30.0004         20.7504
  20542663.2464   -3848052.20447  -2989385.25946                  20542663.8564
        26.2504         16.2504
  23009156.9414   -3840529.91045  -2755260.97641                  23009153.9884
         9.0004          1.2504
  20423891.9884  -22879385.62847 -17545329.15846                  20423892.0234
        27.7504         17.5004
  21305572.5904  -13515019.40246 -10202304.25645                  21305574.9694
        16.2504          6.5004
  23742288.0204    2530909.16144   3214654.94541                  23742292.3324
         7.2504          1.2504
 00  5  2 16 18 14.9960000  0  7G 2G 4G 7G 5G 9G24G26
  21204289.7624   -3817440.18046  -2969839.08545                  21204290.8404
        19.2504          9.0004
  19459315.9654  -28847240.14048 -22002581.44446                  19459316.0474
        29.7504         21.0004
  20544491.1604   -3838447.05847  -2981900.73646                  20544491.6174
        26.0004         16.0004
  22997877.3404   -3899802.77345  -2801447.63642                  22997879.2154
         8.2504          2.0004
  20417109.1214  -22915028.71747 -17573102.99646                  20417109.1454
        27.5004         17.5004
  21293143.8014  -13580330.48446 -10253195.95745                  21293146.2734
        16.7504          7.0004
  23746134.2704    2551122.44944   3230405.42841                  23746136.4964
         6.2504          1.2504
 00  5  2 16 18 29.9960000  0  7G 2G 4G 7G 5G 9G24G26
  21205821.8094   -3809390.01646  -2963566.24945                  21205822.9224
        19.5004          8.0004
  19452307.6994  -28884068.54148 -22031278.88846                  19452307.7464
        30.0004         20.7504
  20546326.6844   -3828801.73847  -2974384.91846                  20546327.0124
        26.0004         15.7504
  22986599.4414   -3959072.57145  -2847631.89641                  22986600.4964
         8.7504          1.2504
  20410352.6764  -22950534.34447 -17600769.71846                  20410352.9104
        27.2504         17.5004
  21280729.3014  -13645570.51446 -10304032.32445                  21280731.5864
        16.7504          6.7504
  23749981.0044    2571339.03343   3246158.34941                  23749985.9144
         5.5004          1.2504
 00  5  2 16 18 44.9960000  0  7G 2G 4G 7G 5G 9G24G26
  21207367.9884   -3801265.79746  -2957235.71445                  21207369.0314
        19.7504          9.0004
  19445327.7074  -28920748.80748 -22059860.89946                  19445327.7894
        30.2504         21.2504
  20548169.1134   -3819118.18747  -2966839.29746                  20548169.7114
        25.5004         15.7504
  22975320.5594   -4018341.13645  -2893815.15842                  22975322.6914
         9.2504          1.7504
  20403622.0904  -22985904.13247 -17628330.58946                  20403622.1844
        27.0004         18.0004
  21268327.6994  -13710741.00346 -10354814.48545                  21268330.2194
        17.0004          6.5004
  23753828.6134    2591556.80744   3261912.26241                  23753832.1884
         6.2504          0.7504
 00  5  2 16 18 59.9960000  0  7G 2G 4G 7G 5G 9G24G26
  21208928.2854   -3793066.03547  -2950846.31045                  21208929.5394
        20.2504          8.7504
  19438376.2384  -28957279.32548 -22088326.22646                  19438376.3324
        30.2504         21.2504
  20550019.5824   -3809395.05547  -2959262.83846                  20550019.9344
        25.7504         16.2504
  22964042.1604   -4077606.87245  -2939996.23442                  22964042.3714
         9.0004          1.5004
  20396917.5664  -23021136.48447 -17655784.37046                  20396917.6484
        27.2504         18.0004
  21255939.4344  -13775840.02546 -10405540.95445                  21255941.8364
        16.5004          6.5004
  23757676.2854    2611776.90844   3277667.95541                  23757681.9574
         6.2504          1.0004
 00  5  2 16 19 14.9960000  0  7G 2G 4G 7G 5G 9G24G26
  21210502.8404   -3784790.95446  -2944398.21745                  21210504.1174
        19.5004          9.0004
  19431453.0824  -28993660.14948 -22116674.91646                  19431453.0704
        30.7504         21.7504
  20551877.1214   -3799632.77747  -2951655.88346                  20551877.6134
        25.5004         16.2504
  22952765.0124   -4136869.97645  -2986175.25942                  22952765.2114
         8.5004          1.7504
  20390239.4734  -23056231.44647 -17683131.09746                  20390239.5314
        27.7504         18.0004
  21243565.4264  -13840867.70846 -10456211.82045                  21243567.4064
        17.0004          7.0004
  23761525.3484    2631998.71944   3293425.07541                  23761532.0984
         6.2504          1.0004
 00  5  2 16 19 29.9960000  0  7G 2G 4G 7G 5G 9G24G26
  21212091.9574   -3776440.60546  -2937891.47945                  21212093.1764
        19.0004          9.2504
  19424558.7624  -29029891.33648 -22144906.99546                  19424558.7154
        30.7504         21.2504
  20553742.3094   -3789831.62647  -2944018.63446                  20553743.1174
        25.2504         16.2504
  22941488.0744   -4196130.31345  -3032352.15242                  22941488.7194
         8.5004          1.7504
  20383587.2074  -23091188.92047 -17710370.68046                  20383587.2194
        27.5004         18.5004
  21231204.9414  -13905823.60746 -10506826.77945                  21231206.8984
        17.2504          7.2504
  23765373.6524    2652221.83344   3309183.13641                  23765380.1564
         6.7504          1.2504
 00  5  2 16 19 44.9960000  0  7G 2G 4G 7G 5G 9G24G26
  21213695.0824   -3768015.69846  -2931326.65145                  21213696.3014
        19.0004          8.2504
  19417692.3564  -29065973.41048 -22173022.89046                  19417692.4964
        30.2504         20.2504
  20555614.7704   -3779992.44847  -2936351.74846                  20555615.5084
        25.7504         15.5004
  22930211.6604   -4255388.54245  -3078527.38342                  22930213.5704
         9.0004          1.7504
  20376960.8324  -23126009.43547 -17737503.55046                  20376960.9844
        27.5004         17.0004
  21218857.0664  -13970708.22646 -10557386.19745                  21218859.2814
        16.2504          7.0004
  23769222.4024    2672445.08845   3324941.32241                  23769225.6134
         7.5004          1.0004
 00  5  2 16 19 59.9960000  0  7G 2G 4G 7G 5G 9G24G26
  21215312.8874   -3759514.29346  -2924702.20745                  21215314.3754
        18.7504          8.5004
  19410854.8634  -29101904.25048 -22201020.93446                  19410854.7934
        29.7504         20.2504
  20557494.8634   -3770113.51147  -2928653.88446                  20557495.4844
        25.7504         16.0004
  22918936.1994   -4314642.67445  -3124699.38142                  22918938.0634
         9.0004          1.7504
  20370361.3014  -23160691.05247 -17764528.18846                  20370361.4884
        27.5004         17.5004
  21206524.3244  -14035519.30246 -10607888.27045                  21206526.4574
        17.0004          7.2504
  23773070.7624    2692670.04545   3340700.83741                  23773077.0314
         7.7504          1.0004
 00  5  2 16 20 14.9960000  0  7G 2G 4G 7G 5G 9G24G26
  21216944.6294   -3750939.80346  -2918020.83445                  21216946.3164
        18.2504          8.2504
  19404045.4654  -29137687.12448 -22228903.68646                  19404045.5234
        29.7504         19.7504
  20559381.5664   -3760198.46447  -2920927.88646                  20559382.1294
        25.7504         15.5004
  22907660.4654   -4373896.00545  -3170870.79142                  22907659.7274
         9.0004          1.7504
  20363787.3874  -23195236.96247 -17791447.07746                  20363787.7384
        27.7504         17.7504
  21194204.4414  -14100259.98846 -10658335.52145                  21194207.0314
        17.0004          7.5004
  23776919.2624    2712893.00944   3356458.80341                  23776924.9224
         7.0004          1.2504
 00  5  2 16 20 29.9960000  0  7G 2G 4G 7G 5G 9G24G26
  21218591.0434   -3742288.34946  -2911279.47345                  21218592.6844
        18.0004          8.0004
  19397265.1844  -29173318.06548 -22256668.03746                  19397264.9024
        29.2504         19.5004
  20561275.8874   -3750243.62647  -2913170.88746                  20561276.6254
        25.7504         15.2504
  22896385.9414   -4433144.64045  -3217038.57142                  22896388.1094
         8.7504          1.7504
  20357240.0824  -23229643.26847 -17818257.19146                  20357240.4814
        27.5004         17.7504
  21181898.9964  -14164926.06646 -10708724.64445                  21181901.5274
        17.2504          7.2504
  23780768.1524    2733117.35444   3372217.87241                  23780774.1884
         7.0004          0.7504
 00  5  2 16 20 44.9960000  0  7G 2G 4G 7G 5G 9G24G26
  21220250.9574   -3733564.01046  -2904481.32145                  21220252.6564
        18.0004          7.7504
  19390512.9104  -29208801.01848 -22284317.08146                  19390512.9344
        28.7504         19.0004
  20563177.1604   -3740253.16947  -2905386.12046                  20563177.5824
        26.0004         14.7504
  22885111.8874   -4492392.56845  -3263205.75842                  22885114.4654
         9.2504          2.0004
  20350718.4574  -23263913.88347 -17844961.56546                  20350718.6334
        27.5004         17.0004
  21169606.8244  -14229521.36646 -10759058.60645                  21169609.8364
        17.2504          7.2504
  23784615.7154    2753338.68745   3387974.52342                  23784623.2664
         8.0004          1.5004
 00  5  2 16 20 59.9960000  0  7G 2G 4G 7G 5G 9G24G26
  21221925.2704   -3724765.31446  -2897625.24045                  21221927.5784
        17.5004          8.2504
  19383789.1214  -29244134.43348 -22311849.60246                  19383789.2274
        29.0004         20.5004
  20565084.8094   -3730225.98047  -2897572.74246                  20565085.4534
        25.2504         16.5004
  22873837.4494   -4551638.28045  -3309371.19242                  22873838.8914
         9.5004          1.7504
  20344223.1454  -23298047.21347 -17871558.96546                  20344223.5434
        27.7504         18.5004
  21157328.5274  -14294044.15546 -10809336.05545                  21157331.5164
        17.7504          7.7504
  23788464.9264    2773558.12245   3403729.74141                  23788468.1254
         8.2504          1.2504
 00  5  2 16 21 14.9960000  0  7G 2G 4G 7G 5G 9G24G26
  21223614.4024   -3715888.64546  -2890708.36045                  21223615.7854
        17.5004          7.2504
  19377094.5274  -29279314.51548 -22339262.64046                  19377094.6684
        29.0004         18.5004
  20567000.7774   -3720158.63847  -2889728.07146                  20567001.4104
        25.2504         14.2504
  22862564.2384   -4610878.06945  -3355532.05242                  22862565.3284
         9.5004          1.5004
  20337754.8094  -23332039.45447 -17898046.42546                  20337755.0554
        27.7504         17.0004
  21145065.0824  -14358490.41946 -10859553.88145                  21145067.8014
        18.7504          7.7504
  23792312.3634    2793778.82645   3419485.98841                  23792317.4384
         8.0004          1.2504
 00  5  2 16 21 29.9960000  0  7G 2G 4G 7G 5G 9G24G26
  21225318.1844   -3706936.58246  -2883732.77845                  21225320.0234
        17.5004          7.2504
  19370428.8164  -29314343.80048 -22366558.17146                  19370428.8164
        29.2504         19.0004
  20568923.5514   -3710053.82147  -2881854.19746                  20568924.4414
        25.0004         14.0004
  22851292.3564   -4670114.45345  -3401690.27742                  22851292.6484
         9.7504          1.7504
  20331312.4814  -23365893.13547 -17924425.91346                  20331312.5394
        27.7504         17.2504
  21132815.2854  -14422862.58346 -10909713.96945                  21132817.4774
        19.0004          8.2504
  23796159.7544    2813997.88345   3435240.81042                  23796167.3754
         8.0004          1.5004
 00  5  2 16 21 44.9960000  0  7G 2G 4G 7G 5G 9G24G26
  21227036.0044   -3697908.74346  -2876698.11645                  21227038.2664
        17.2504          7.2504
  19363791.6994  -29349221.67848 -22393735.73046                  19363791.7584
        29.5004         19.0004
  20570853.9184   -3699911.31347  -2873950.95346                  20570854.6214
        25.0004         14.7504
  22840020.6994   -4729346.94545  -3447845.45942                  22840022.3874
         9.5004          2.0004
  20324896.9814  -23399607.71247 -17950697.02546                  20324896.9344
        27.7504         17.0004
  21120580.1914  -14487159.93946 -10959815.76945                  21120581.9734
        18.7504          8.2504
  23800007.3404    2834215.28745   3450994.45441                  23800009.4264
         8.0004          1.2504
 00  5  2 16 21 59.9960000  0  7G 2G 4G 7G 5G 9G24G26
  21228768.2544   -3688807.32346  -2869606.14745                  21228770.4104
        17.5004          7.5004
  19357183.0274  -29383950.38048 -22420797.05046                  19357183.1914
        29.7504         19.0004
  20572790.4494   -3689733.49947  -2866020.20546                  20572791.5634
        25.0004         14.0004
  22828749.2234   -4788577.75945  -3493999.31242                  22828752.5394
         9.7504          2.0004
  20318507.4024  -23433185.27748 -17976861.35446                  20318507.3914
        28.0004         16.5004
  21108358.1064  -14551384.25246 -11009860.65045                  21108360.7774
        18.5004          8.5004
  23803853.4884    2854428.42745   3466744.85541                  23803854.4734
         7.5004          0.5004
 00  5  2 16 22 14.9960000  0  7G 2G 4G 7G 5G 9G24G26
  21230514.6914   -3679628.39446  -2862453.76945                  21230517.2114
        17.5004          6.7504
  19350603.7934  -29418525.80248 -22447738.92246                  19350603.9924
        30.0004         18.7504
  20574734.5204   -3679516.66147  -2858059.04346                  20574735.5634
        25.2504         14.0004
  22817478.9964   -4847802.87645  -3540148.72142                  22817481.5984
         9.2504          1.7504
  20312144.5354  -23466621.77947 -18002915.77246                  20312144.7114
        27.7504         17.0004
  21096151.2384  -14615531.45246 -11059845.45245                  21096153.9104
        18.7504          8.2504
  23807700.5594    2874640.87145   3482494.48541                  23807704.8714
         7.7504          1.0004
 00  5  2 16 22 29.9960000  0  6G 2G 4G 7G 5G 9G24
  21232275.7624   -3670374.79846  -2855243.19545                  21232277.4734
        17.7504          7.0004
  19344052.9964  -29452950.61848 -22474563.44446                  19344052.9384
        30.2504         19.2504
  20576685.7234   -3669263.95947  -2850069.93546                  20576686.5084
        25.2504         13.7504
  22806209.7074   -4907025.08645  -3586295.88442                  22806211.4184
         9.5004          1.5004
  20305808.1294  -23499919.91547 -18028862.37246                  20305807.8484
        27.7504         16.7504
  21083958.7624  -14679603.98246 -11109772.04845                  21083961.6214
        19.0004          8.5004
 00  5  2 16 22 44.9960000  0  6G 2G 4G 7G 5G 9G24
  21234051.0824   -3661045.90346  -2847973.94845                  21234052.4774
        18.2504          7.5004
  19337530.9654  -29487224.12648 -22501270.06746                  19337531.3404
        30.5004         20.0004
  20578643.7384   -3658974.80747  -2842052.42546                  20578644.4654
        25.0004         13.7504
  22794940.2234   -4966243.66045  -3632440.20742                  22794941.1374
         9.2504          2.2504
  20299498.2234  -23533078.87947 -18054700.52446                  20299498.3284
        27.5004         17.0004
  21071780.3094  -14743600.96346 -11159639.77545                  21071782.4884
        19.0004          8.5004
 00  5  2 16 22 59.9960000  0  6G 2G 4G 7G 5G 9G24
  21235841.1844   -3651639.45046  -2840644.27245                  21235842.5554
        18.0004          7.2504
  19331038.2314  -29521343.88248 -22527856.88046                  19331038.1604
        30.2504         20.0004
  20580608.9884   -3648647.09847  -2834004.87146                  20580609.9144
        24.5004         14.2504
  22783672.5274   -5025456.21445  -3678579.83842                  22783674.8244
         9.0004          2.2504
  20293215.1604  -23566096.33847 -18080428.41646                  20293215.2194
        27.7504         17.2504
  21059617.1994  -14807519.75946 -11209446.60445                  21059619.3204
        19.0004          9.0004
 00  5  2 16 23 14.9960000  0  6G 2G 4G 7G 5G 9G24
  21237645.6294   -3642157.76946  -2833255.97245                  21237646.9884
        18.2504          7.0004
  19324574.1844  -29555312.11548 -22554325.62146                  19324574.2314
        30.2504         19.7504
  20582581.0664   -3638283.40047  -2825929.27046                  20582581.9574
        25.0004         14.2504
  22772405.7544   -5084665.00245  -3724716.51542                  22772407.5124
         9.2504          2.0004
  20286958.8324  -23598974.52547 -18106047.78546                  20286959.1484
        27.7504         17.5004
  21047468.4494  -14871362.55546 -11259194.20845                  21047470.6884
        19.0004          8.5004
 00  5  2 16 23 29.9960000  0  6G 2G 4G 7G 5G 9G24
  21239464.3324   -3632601.23146  -2825809.34345                  21239465.6684
        18.7504          7.2504
  19318139.0904  -29589129.22648 -22580676.60646                  19318139.1134
        30.2504         19.5004
  20584560.0664   -3627884.29747  -2817826.08746                  20584560.9344
        24.5004         14.0004
  22761139.4734   -5143870.30845  -3770850.50542                  22761138.1024
         9.7504          2.0004
  20280728.7854  -23631713.67547 -18131558.80946                  20280728.8444
        27.7504         17.5004
  21035334.0824  -14935129.22446 -11308882.46945                  21035336.3094
        19.5004          8.5004
 00  5  2 16 23 44.9960000  0  6G 2G 4G 7G 5G 9G24
  21241297.1214   -3622968.54846  -2818303.39945                  21241298.6214
        18.2504          7.5004
  19311732.7774  -29622793.64748 -22606908.61846                  19311732.8594
        30.0004         19.7504
  20586545.8404   -3617448.68247  -2809694.45046                  20586546.9654
        24.5004         14.2504
  22749873.7854   -5203070.78245  -3816980.71242                  22749873.1414
        10.0004          2.2504
  20274525.2314  -23664312.40848 -18156960.42246                  20274525.2894
        28.0004         17.7504
  21023214.3874  -14998818.35546 -11358510.33445                  21023216.8594
        19.5004          9.0004
 00  5  2 16 23 59.9960000  0  6G 2G 4G 7G 5G 9G24
  21243144.7074   -3613259.77146  -2810738.15745                  21243147.0514
        17.7504          7.0004
  19305355.7544  -29656305.47048 -22633021.71746                  19305355.6724
        30.2504         19.2504
  20588538.7234   -3606976.88747  -2801534.61746                  20588539.6134
        24.5004         14.2504
  22738609.9184   -5262266.50545  -3863107.26842                  22738611.5124
         9.7504          2.2504
  20268348.8484  -23696770.76448 -18182252.65046                  20268348.9884
        28.2504         17.0004
  21011109.8164  -15062429.69547 -11408077.56545                  21011111.4574
        20.0004          8.7504
 00  5  2 16 24 14.9960000  0  6G 2G 4G 7G 5G 9G24
  21245006.6684   -3603473.89346  -2803112.83145                  21245008.8714
        18.2504          6.7504
  19299007.8634  -29689663.60948 -22659015.06546                  19299008.0864
        30.0004         18.2504
  20590538.4574   -3596467.91147  -2793345.81646                  20590539.1254
        24.7504         13.5004
  22727345.5984   -5321456.27745  -3909229.11342                  22727348.6914
         9.5004          2.0004
  20262199.0044  -23729087.49347 -18207434.52146                  20262199.4494
        27.7504         16.7504
  20999019.6914  -15125961.99846 -11457583.23245                  20999022.0824
        19.5004          8.2504
 00  5  2 16 24 29.9960000  0  6G 2G 4G 7G 5G 9G24
  21246883.5664   -3593611.95346  -2795428.22945                  21246885.1484
        18.0004          6.7504
  19292689.1454  -29722868.84348 -22684889.26346                  19292689.1334
        30.2504         19.5004
  20592544.9344   -3585923.08947  -2785129.08046                  20592545.4734
        24.5004         14.0004
  22716083.3484   -5380641.12945  -3955347.18542                  22716083.7114
         9.5004          2.2504
  20256076.2384  -23761263.62648 -18232506.83546                  20256076.7074
        28.0004         18.0004
  20986944.6604  -15189415.89746 -11507027.78545                  20986946.5004
        19.2504          8.5004
 00  5  2 16 24 44.9960000  0  6G 2G 4G 7G 5G 9G24
  21248775.0354   -3583673.06946  -2787683.67245                  21248776.1134
        18.2504          7.2504
  19286399.8484  -29755920.20848 -22710643.56346                  19286399.6374
        30.7504         20.5004
  20594558.4884   -3575341.57647  -2776883.76546                  20594559.4144
        24.2504         13.7504
  22704822.5744   -5439820.03245  -4001460.59242                  22704824.1804
        10.0004          2.0004
  20249980.1214  -23793298.08447 -18257468.75346                  20249980.5084
        27.5004         17.5004
  20974884.6294  -15252790.15046 -11556410.28745                  20974886.9734
        19.0004          8.2504
 00  5  2 16 24 59.9960000  0  6G 2G 4G 7G 5G 9G24
  21250681.1214   -3573656.64346  -2779878.70345                  21250682.4814
        18.7504          7.2504
  19280139.5124  -29788817.06448 -22736277.47146                  19280139.4654
        30.2504         21.2504
  20596579.2854   -3564723.09647  -2768609.62746                  20596579.9304
        24.5004         14.2504
  22693561.6994   -5498992.24245  -4047568.80243                  22693562.5204
         9.7504          2.7504
  20243911.5434  -23825190.08048 -18282319.65546                  20243911.8014
        28.0004         18.7504
  20962840.7704  -15316083.97146 -11605730.11545                  20962843.5124
        19.2504          8.5004
 00  5  2 16 25 14.9960000  0  6G 2G 4G 7G 5G 9G24
  21252601.6844   -3563564.65146  -2772014.85845                  21252603.5704
        18.2504          7.2504
  19273908.5744  -29821561.26548 -22761792.42446                  19273908.5984
        30.7504         20.5004
  20598606.5664   -3554069.82147  -2760308.39046                  20598607.3984
        25.0004         14.5004
  22682303.2384   -5558159.71945  -4093673.30742                  22682303.2734
         9.7504          2.2504
  20237869.0354  -23856941.57747 -18307061.09046                  20237869.2234
        27.7504         17.7504
  20950810.8564  -15379298.97546 -11654988.51045                  20950812.9534
        18.7504          9.0004
 00  5  2 16 25 29.9960000  0  6G 2G 4G 7G 5G 9G24
  21254537.0204   -3553393.85846  -2764089.56745                  21254538.9534
        18.0004          6.7504
  19267707.2934  -29854149.41348 -22787185.77746                  19267707.2934
        30.7504         20.0004
  20600641.0744   -3543378.50147  -2751977.50346                  20600642.1064
        24.2504         14.0004
  22671045.5354   -5617319.05945  -4139771.45042                  22671044.5984
        10.0004          2.2504
  20231854.5664  -23888549.12648 -18331690.35246                  20231854.9654
        28.2504         17.7504
  20938797.3484  -15442431.65346 -11704182.77745                  20938799.5864
        19.0004          8.0004
 00  5  2 16 25 44.9960000  0  6G 2G 4G 7G 5G 9G24
  21256487.2074   -3543145.80246  -2756104.11545                  21256488.8714
        18.0004          6.5004
  19261535.2774  -29886583.02248 -22812458.70946                  19261535.3244
        30.2504         19.5004
  20602682.3244   -3532650.91547  -2743618.36546                  20602683.5434
        24.2504         14.0004
  22659787.9414   -5676471.70345  -4185864.45042                  22659787.8364
         9.5004          2.0004
  20225866.9494  -23920014.17547 -18356208.57146                  20225867.3484
        27.7504         17.5004
  20926799.0274  -15505483.19746 -11753313.80845                  20926801.3134
        19.2504          8.5004
 00  5  2 16 25 59.9960000  0  6G 2G 4G 7G 5G 9G24
  21258451.6914   -3532822.70346  -2748060.16545                  21258452.5594
        18.2504          7.2504
  19255392.5434  -29918864.15148 -22837612.83346                  19255392.6844
        30.2504         20.0004
  20604730.4344   -3521889.61247  -2735232.94646                  20604731.5234
        25.0004         14.5004
  22648532.2934   -5735619.86345  -4231953.88842                  22648532.3164
         9.2504          1.5004
  20219906.0664  -23951338.82348 -18380617.39046                  20219906.2424
        28.0004         17.7504
  20914815.6684  -15568455.54346 -11802383.13045                  20914817.8954
        19.7504          8.7504
 00  5  2 16 26 14.9960000  0  6G 2G 4G 7G 5G 9G24
  21260431.2624   -3522420.99946  -2739954.97745                  21260432.7504
        18.7504          7.0004
  19249279.1994  -29950989.19948 -22862645.32446                  19249279.3054
        30.0004         20.0004
  20606785.1604   -3511091.00947  -2726818.45746                  20606786.1684
        24.5004         14.7504
  22637278.8954   -5794759.90745  -4278036.98942                  22637278.5204
         9.5004          2.0004
  20213972.5904  -23982519.42448 -18404913.96646                  20213972.4614
        28.0004         18.0004
  20902847.9814  -15631344.89646 -11851387.78945                  20902849.9144
        19.7504          9.0004
 00  5  2 16 26 29.9960000  0  6G 2G 4G 7G 5G 9G24
  21262425.1374   -3511941.69646  -2731789.32745                  21262427.4224
        18.2504          7.2504
  19243195.5434  -29982958.97648 -22887556.82746                  19243195.4264
        30.0004         20.2504
  20608847.1134   -3500256.30247  -2718375.84346                  20608848.2974
        24.5004         14.7504
  22626026.4574   -5853892.68945  -4324114.50542                  22626027.6764
         9.5004          2.0004
  20208066.3564  -24013556.85148 -18429098.97446                  20208066.4964
        28.5004         18.5004
  20890896.2234  -15694151.92046 -11900328.28745                  20890898.3674
        19.7504          9.2504
 00  5  2 16 26 44.9960000  0  6G 2G 4G 7G 5G 9G24
  21264433.9734   -3501384.04046  -2723562.60145                  21264435.9184
        17.7504          7.5004
  19237141.5434  -30014772.72548 -22912346.75746                  19237141.7314
        30.0004         20.7504
  20610915.8164   -3489385.01347  -2709904.71746                  20610916.7194
        25.0004         15.0004
  22614775.1294   -5913017.46745  -4370185.71843                  22614775.9144
         9.5004          2.5004
  20202187.4574  -24044450.22748 -18453171.73746                  20202187.5514
        28.0004         18.7504
  20878960.5044  -15756875.58447 -11949203.83645                  20878962.5554
        20.7504          9.2504
 00  5  2 16 26 59.9960000  0  6G 2G 4G 7G 5G 9G24
  21266457.8014   -3490750.50846  -2715276.75945                  21266459.8754
        18.0004          7.0004
  19231116.9264  -30046432.80748 -22937016.93646                  19231116.8794
        30.0004         20.5004
  20612990.7154   -3478479.71047  -2701407.09046                  20612991.4304
        24.7504         15.0004
  22603525.3244   -5972136.54945  -4416252.50142                  22603527.5634
         9.2504          2.2504
  20196335.6454  -24075201.87047 -18477134.05646                  20196335.6214
        27.7504         18.7504
  20867040.0904  -15819517.95447 -11998016.03745                  20867041.8714
        20.5004          9.5004
 00  5  2 16 27 14.9960000  0  6G 2G 4G 7G 5G 9G24
  21268495.8634   -3480039.95346  -2706930.91345                  21268497.7734
        17.7504          7.2504
  19225121.6844  -30077937.90448 -22961566.35446                  19225121.4614
        30.5004         20.0004
  20615073.0594   -3467539.44447  -2692882.21846                  20615073.8794
        24.7504         14.5004
  22592276.5274   -6031248.72045  -4462313.94543                  22592277.2074
         9.7504          2.5004
  20190510.9184  -24105810.57947 -18500985.00246                  20190511.2344
        27.5004         18.5004
  20855135.1294  -15882077.70447 -12046763.86645                  20855137.2854
        20.0004          9.5004
 00  5  2 16 27 29.9960000  0  6G 2G 4G 7G 5G 9G24
  21270549.5124   -3469249.86946  -2698523.10145                  21270551.8094
        18.2504          7.2504
  19219156.4264  -30109285.66648 -22985993.17746                  19219156.1804
        30.5004         20.5004
  20617161.7854   -3456561.97347  -2684328.36946                  20617163.0634
        24.5004         14.5004
  22581029.8404   -6090351.45445  -4508367.98242                  22581030.4384
         9.7504          2.2504
  20184714.0514  -24136273.91347 -18524722.66946                  20184714.2504
        27.7504         18.7504
  20843246.5744  -15944552.06547 -12095445.14345                  20843248.9414
        20.2504          9.5004
 00  5  2 16 27 44.9960000  0  6G 2G 4G 7G 5G 9G24
  21272616.8404   -3458383.49446  -2690055.84045                  21272619.0084
        17.7504          7.2504
  19213220.6064  -30140478.94548 -23010299.62146                  19213220.4774
        30.5004         19.7504
  20619257.0904   -3445550.62647  -2675748.10146                  20619257.8754
        25.0004         14.7504
  22569784.1604   -6149447.84645  -4554417.12742                  22569786.7504
         9.7504          2.2504
  20178944.1914  -24166595.02647 -18548349.51546                  20178944.2504
        27.7504         18.2504
  20831373.9264  -16006943.98747 -12144062.19045                  20831375.9884
        20.2504          9.7504
 00  5  2 16 27 59.9960000  0  6G 2G 4G 7G 5G 9G24
  21274699.5594   -3447441.81946  -2681529.88845                  21274701.0474
        17.7504          7.2504
  19207313.8564  -30171518.89448 -23034486.58446                  19207313.5514
        31.0004         20.0004
  20621358.7854   -3434506.57347  -2667142.36346                  20621359.5594
        24.5004         14.2504
  22558539.4344   -6208538.75245  -4600461.95843                  22558542.3284
         9.7504          2.5004
  20173201.2544  -24196774.63548 -18571866.10346                  20173201.6064
        28.2504         17.7504
  20819516.9414  -16069254.07147 -12192615.45945                  20819519.0164
        20.5004          9.5004
 00  5  2 16 28 14.9960000  0  6G 2G 4G 7G 5G 9G24
  21276795.5824   -3436423.88046  -2672944.50245                  21276797.4694
        17.5004          6.2504
  19201436.6454  -30202404.16648 -23058553.02246                  19201436.4924
        31.0004         20.5004
  20623466.8564   -3423428.90247  -2658510.43046                  20623467.6064
        25.0004         13.7504
  22547295.9814   -6267623.04945  -4646501.65943                  22547298.7464
        10.0004          2.5004
  20167485.5514  -24226811.56148 -18595271.49846                  20167485.8444
        28.2504         18.5004
  20807675.0204  -16131481.07647 -12241104.00545                  20807677.2814
        20.2504          9.7504
 00  5  2 16 28 29.9960000  0  6G 2G 4G 7G 5G 9G24
  21278907.1064   -3425329.53246
        17.7504
  19195588.8484  -30233134.74548 -23082498.91946                  19195588.6724
        30.7504         20.7504
  20625581.1684   -3412317.72347  -2649852.39945                  20625581.5904
        25.5004         11.5004
  22536053.9414   -6326700.53845  -4692536.01942                  22536055.8284
        10.2504          1.7504
  20161796.7544  -24256705.65448 -18618565.59946                  20161796.9304
        28.2504         18.7504
  20795849.9264  -16193624.50047 -12289527.42145                  20795852.3404
        20.5004         10.0004
 00  5  2 16 28 44.9960000  0  6G 2G 4G 7G 5G 9G24
  21281033.2074   -3414157.30646
        17.2504
  19189770.6844  -30263708.93648 -23106322.95646                  19189770.6954
        30.7504         20.7504
  20627702.4344   -3401171.69747  -2641167.17346                  20627703.0434
        25.2504         14.2504
  22524813.5044   -6385769.71545  -4738563.91942                  22524813.8094
        10.0004          2.2504
  20156135.5124  -24286455.34648 -18641747.17646                  20156135.5474
        28.2504         18.7504
  20784040.4964  -16255682.73747 -12337884.43845                  20784042.5594
        21.0004         10.2504
 00  5  2 16 28 59.9960000  0  6G 2G 4G 7G 5G 9G24
  21283174.1994   -3402907.31946
        17.0004
  19183982.3484  -30294126.84448 -23130025.21146                  19183982.1374
        30.7504         21.0004
  20629830.0204   -3389991.05847  -2632455.00946                  20629830.6524
        25.5004         14.5004
  22513574.5744   -6444830.52045  -4784585.33242                  22513575.8634
         9.7504          2.0004
  20150501.7934  -24316060.62048 -18664816.22646                  20150501.6884
        28.2504         18.5004
  20772247.5354  -16317655.44047 -12386174.82645                  20772249.4574
        21.2504         10.5004
 00  5  2 16 29 14.9960000  0  6G 2G 4G 7G 5G 9G24
  21285329.3014   -3391582.15346      4124.95255                  21285331.3984
        17.2504          7.2504
  19178223.2704  -30324390.92448 -23153607.60046                  19178223.1884
        30.7504         21.2504
  20631963.5354   -3378778.68747  -2623718.10546                  20631964.3914
        25.0004         14.5004
  22502335.8014   -6503885.43545  -4830602.11342                  22502337.7814
         9.5004          2.2504
  20144895.2154  -24345524.01148 -18687774.71446                  20144895.4734
        28.5004         18.7504
  20760470.1604  -16379544.88247 -12434400.33445                  20760472.1764
        21.0004         10.7504
 00  5  2 16 29 29.9960000  0  6G 2G 4G 7G 5G 9G24
  21287498.9654   -3380180.87146     13009.02745                  21287500.8984
        17.2504          7.0004
  19172493.6294  -30354500.21248 -23177069.37446                  19172493.4414
        30.7504         20.5004
  20634103.4884   -3367533.71047  -2614955.80446                  20634104.4494
        24.5004         13.7504
  22491099.6684   -6562933.38645  -4876613.52143                  22491101.0984
         9.2504          2.5004
  20139315.7624  -24374844.46548 -18710621.82946                  20139315.9964
        28.5004         18.2504
  20748708.8324  -16441349.95247 -12482560.08945                  20748710.4494
        21.2504         11.2504
 00  5  2 16 29 44.9960000  0  6G 2G 4G 7G 5G 9G24
  21289682.0664   -3368704.89046     21951.33245                  21289683.2734
        17.0004          7.5004
  19166793.2934  -30384456.04348 -23200411.56646                  19166793.2344
        30.2504         21.7504
  20636249.1524   -3356257.77147  -2606169.37346                  20636250.0314
        24.5004         14.7504
  22479864.8714   -6621975.70545  -4922620.45842                  22479867.2034
         9.2504          2.2504
  20133763.2154  -24404023.44348 -18733358.69346                  20133763.2974
        28.5004         20.0004
  20736964.0354  -16503071.85447 -12530655.04545                  20736965.9224
        21.7504         11.0004
 00  5  2 16 29 59.9960000  0  6G 2G 4G 7G 5G 9G24
  21291880.5204   -3357153.98946     30951.96945                  21291882.5474
        17.2504          7.2504
  19161122.0044  -30414258.18648 -23223634.00446                  19161121.8984
        30.7504         20.7504
  20638400.8244   -3344950.86447  -2597358.80646                  20638401.9614
        24.2504         13.7504
  22468630.1914   -6681012.08945  -4968622.81643                  22468630.9184
         9.5004          2.7504
  20128237.6374  -24433060.47548 -18755984.95546                  20128237.5084
        28.7504         18.5004
  20725234.5594  -16564709.89947 -12578684.65045                  20725236.0704
        21.5004         11.0004
 00  5  2 16 30 14.9960000  0  6G 2G 4G 7G 5G 9G24
  21294093.0824   -3345526.34646     40012.43145                  21294094.6884
        17.2504          6.7504
  19155480.5824  -30443904.62448 -23246735.10946                  19155480.4534
        30.5004         21.0004
  20640558.7854   -3333611.20447  -2588522.72346                  20640560.0744
        24.2504         13.7504
  22457397.3564   -6740040.57445  -5014619.03242                  22457400.7774
         9.7504          2.2504
  20122739.3794  -24461953.68248 -18778499.14246                  20122739.4024
        28.5004         18.5004
  20713521.3714  -16626261.98347 -12626647.28445                  20713523.2464
        21.2504         10.5004
 00  5  2 16 30 29.9960000  0  6G 2G 4G 7G 5G 9G24
  21296319.9494   -3333825.56946     49129.88645                  21296321.7074
        17.2504          6.7504
  19149868.0204  -30473398.96948 -23269717.71046                  19149867.7624
        31.0004         19.7504
  20642721.9344   -3322242.59647  -2579664.07446                  20642722.8714
        24.2504         13.0004
  22446165.7464   -6799064.71045  -5060611.81443                  22446167.7384
        10.2504          2.5004
  20117267.8564  -24490706.55548 -18800903.97946                  20117267.9614
        28.2504         17.5004
  20701824.0514  -16687731.51447 -12674545.56545                  20701826.0314
        21.0004         10.2504
 00  5  2 16 30 44.9960000  0  6G 2G 4G 7G 5G 9G24
  21298561.5204   -3322047.22446     58307.78645                  21298562.7504
        17.5004          6.7504
  19144285.2234  -30502736.63348 -23292578.21346                  19144284.9304
        31.0004         19.7504
  20644891.8164   -3310840.74647  -2570779.53446                  20644892.5084
        24.0004         13.0004
  22434935.5124   -6858079.82745  -5106597.62543                  22434937.5514
        10.2504          2.5004
  20111823.8404  -24519314.54848 -18823195.92546                  20111823.8634
        28.5004         17.5004
  20690143.4654  -16749113.69647 -12722375.81245                  20690145.4574
        21.2504         10.2504
 00  5  2 16 30 59.9960000  0  6G 2G 4G 7G 5G 9G24
  21300817.0204   -3310192.85646     67544.91345                  21300818.5784
        17.2504          6.2504
  19138731.9024  -30531919.10948 -23315317.79246                  19138731.5634
        30.5004         19.0004
  20647067.6064   -3299407.35847  -2561870.41646                  20647068.5554
        24.5004         12.5004
  22423706.8634   -6917087.47045  -5152577.58343                  22423707.6024
        10.2504          2.5004
  20106407.3324  -24547779.08448 -18845376.08346                  20106407.1804
        28.5004         17.0004
  20678479.3794  -16810409.68347 -12770138.87445                  20678480.9024
        22.0004          9.7504
 00  5  2 16 31 14.9960000  0  6G 2G 4G 7G 5G 9G24
  21303086.6684   -3298267.58546     76837.29645                  21303087.8874
        17.2504          7.2504
  19133207.2314  -30560951.38748 -23337940.34046                  19133207.1024
        30.2504         20.0004
  20649248.0984   -3287947.63447  -2552940.78046                  20649248.8134
        24.5004         13.7504
  22412478.3014   -6976092.62745  -5198555.59343                  22412480.7034
        10.2504          2.7504
  20101017.0984  -24576105.13848 -18867448.33846                  20101017.1914
        28.5004         18.5004
  20666830.6294  -16871624.30647 -12817838.55145                  20666832.3984
        22.0004         10.7504
 00  5  2 16 31 29.9960000  0  6G 2G 4G 7G 5G 9G24
  21305370.3164   -3286265.76846     86189.31645                  21305372.1214
        16.7504          6.7504
  19127712.2314  -30589827.75948 -23360441.39446                  19127712.2894
        30.2504         20.0004
  20651434.9104   -3276456.26547  -2543986.47946                  20651435.4614
        24.7504         13.5004
  22401251.3014   -7035089.53845  -5244527.18843                  22401251.3364
        10.0004          2.5004
  20095654.1604  -24604287.08548 -18889408.29446                  20095654.1954
        28.2504         18.2504
  20655197.8874  -16932751.87447 -12865470.38745                  20655199.4344
        22.0004         10.7504
 00  5  2 16 31 44.9960000  0  6G 2G 4G 7G 5G 9G24
  21307669.2934   -3274185.90546     95602.17345                  21307670.8284
        16.7504          6.7504
  19122247.0904  -30618546.73448 -23382819.80246                  19122247.1024
        30.2504         20.0004
  20653628.0044   -3264931.73747  -2535006.34546                  20653628.8594
        24.5004         13.0004
  22390026.8094   -7094076.56645  -5290491.07042                  22390027.8284
        10.2504          2.2504
  20090319.0824  -24632323.32048 -18911254.71246                  20090319.0124
        29.0004         18.2504
  20643582.7934  -16993790.29747 -12913032.75745                  20643584.0594
        22.0004         10.5004
 00  5  2 16 31 59.9960000  0  6G 2G 4G 7G 5G 9G24
  21309982.2074   -3262030.19546    105074.09545                  21309983.9064
        16.7504          6.5004
  19116811.5744  -30647110.47348 -23405077.24946                  19116811.4104
        30.2504         19.5004
  20655826.7774   -3253376.41347  -2526002.20946                  20655827.5394
        24.0004         13.0004
  22378803.8404   -7153055.80345  -5336448.92143                  22378804.8954
        10.7504          2.7504
  20085011.2544  -24660215.92048 -18932989.21946                  20085011.5594
        28.2504         18.0004
  20631984.0044  -17054741.64747 -12960527.28445                  20631985.3984
        21.7504         10.2504
 00  5  2 16 32 14.9960000  0  6G 2G 4G 7G 5G 9G24
  21312309.3794   -3249800.29346    114603.85745                  21312310.9144
        17.0004          6.2504
  19111405.4414  -30675520.35548 -23427214.80746                  19111405.2074
        30.2504         19.5004
  20658031.3094   -3241792.07247  -2516975.47646                  20658032.2814
        23.7504         13.0004
  22367581.4964   -7212028.74445  -5382401.83343                  22367582.8674
        10.7504          2.5004
  20079730.6684  -24687966.36248 -18954612.93146                  20079730.6334
        29.2504         17.7504
  20620401.9494  -17115607.13447 -13007954.90245                  20620403.1804
        21.7504         10.5004
 00  5  2 16 32 29.9950000  0  6G 2G 4G 7G 5G 9G24
  21314650.4764   -3237498.66846    124189.47645                  21314652.1284
        17.2504          6.2504
  19106028.6084  -30703776.10548 -23449232.26746                  19106028.3394
        30.7504         19.5004
  20660240.6164   -3230181.32647  -2507928.15246                  20660241.1794
        24.0004         12.7504
  22356360.9134   -7270992.98745  -5428347.96643                  22356361.9684
        11.0004          2.7504
  20074476.8274  -24715574.37048 -18976125.67046                  20074476.8274
        28.5004         18.0004
  20608836.4134  -17176384.07547 -13055313.52945                  20608838.0074
        22.2504         10.7504
 00  5  2 16 32 44.9950000  0  6G 2G 4G 7G 5G 9G24
  21317006.0694   -3225123.07446    133832.74345                  21317007.7454
        17.2504          6.5004
  19100680.5304  -30731880.88548 -23471132.08346                  19100680.2614
        30.7504         19.5004
  20662455.8274   -3218542.10947  -2498858.65346                  20662456.5074
        24.2504         12.5004
  22345140.6874   -7329955.65545  -5474292.90642                  22345143.4404
        11.2504          2.2504
  20069249.8824  -24743043.06248 -18997529.85046                  20069249.9764
        28.2504         18.2504
  20597286.5074  -17237079.68547 -13102608.78245                  20597288.0074
        22.5004         10.7504
 00  5  2 16 32 59.9950000  0  6G 2G 4G 7G 5G 9G24
  21319375.1554   -3212670.42946    143536.08845                  21319376.8904
        17.2504          6.2504
  19095362.1554  -30759828.93048 -23492909.77246                  19095362.0034
        30.7504         19.5004
  20664676.5544   -3206871.42147  -2489764.62046                  20664677.4094
        24.2504         12.2504
  22333922.5624   -7388908.80845  -5520230.40143                  22333922.6904
        11.0004          2.5004
  20064050.4764  -24770366.56148 -19018820.88746                  20064050.2654
        29.0004         18.0004
  20585753.2494  -17297685.78447 -13149834.26745                  20585754.8084
        22.0004         10.5004
 00  5  2 16 33 14.9950000  0  6G 2G 4G 7G 5G 9G24
  21321759.6944   -3200141.87446    153298.55245                  21321761.3944
        17.7504          6.5004
  19090073.3194  -30787621.16848 -23514566.04846                  19090072.9094
        30.7504         19.0004
  20666902.8744   -3195170.71547  -2480647.20046                  20666903.6364
        23.7504         12.5004
  22322704.9134   -7447853.59945  -5566161.36243                  22322705.2764
        11.0004          2.5004
  20058878.3664  -24797545.94548 -19039999.63446                  20058878.3434
        29.2504         18.2504
  20574237.0934  -17358203.21647 -13196990.68045                  20574238.5584
        21.7504         10.0004
 00  5  2 16 33 29.9950000  0  6G 2G 4G 7G 5G 9G24
  21324157.7574   -3187538.62746    163119.22745                  21324158.8824
        18.0004          5.7504
  19084814.1244  -30815258.83248 -23536101.88146                  19084813.6324
        30.7504         19.0004
  20669135.0774   -3183441.28947  -2471507.40546                  20669135.7334
        23.7504         12.2504
  22311489.5624   -7506791.04145  -5612086.65643                  22311491.0154
        11.0004          2.5004
  20053733.6164  -24824582.32248 -19061066.93646                  20053733.2414
        29.7504         18.2504
  20562737.6794  -17418632.89147 -13244078.69445                  20562738.9804
        22.2504         10.2504
